[[{"header":{"parameterUnit":"m.s-1","parameterCategory":1,"la1":30.6,"la2":29.2853,"lo1":-89.7004,"lo2":-87.6739,"dy":0.0162,"dx":0.0183,"nx":112,"ny":82,"refTime":"2023-09-28T18:00:00:Z","depth":0,"parameterNumber":2,"parameterNumberName":"U-component_of_WINDS"},"data":[0.0,0.0,0.0,0.0,0.0,0.0,0.0,0.0,0.0,0.0,0.0,0.0,0.0,0.0,0.0,0.0,0.0,0.0,0.0,0.0,0.0,0.0,0.0,0.0,0.0,0.0,0.0,0.0,0.0,0.0,0.0,0.0,0.0,0.0,0.0,0.0,0.0,0.0,0.0,0.0,0.0,0.0,0.0,0.0,0.0,0.0,0.0,0.0,0.0,0.0,0.0,0.0,0.0,0.0,0.0,0.0,0.0,0.0,0.0,0.0,0.0,0.0,0.0,0.0,0.0,0.0,0.0,0.0,0.0,0.0,0.0,0.0,0.0,0.0,0.0,0.0,0.0,0.0,0.0,0.0,0.0,0.0,0.0,0.0,0.0,0.0,0.0,0.0,0.0,0.0,0.7943,0.8067,0.8228,0.8376,0.8498,0.8505,0.8636,0.9003,0.0,0.0,0.0,0.0,0.0,0.0,0.0,0.0,0.0,0.0,0.0,0.0,0.0,0.0,0.0,0.0,0.0,0.0,0.0,0.0,0.0,0.0,0.0,0.0,0.0,0.0,0.0,0.0,0.0,0.0,0.0,0.0,0.0,0.0,0.0,0.0,0.0,0.0,0.0,0.0,0.0,0.0,0.0,0.0,0.0,0.0,0.0,0.0,0.0,0.0,0.0,0.0,0.0,0.0,0.0,0.0,0.0,0.0,0.0,0.0,0.0,0.0,0.0,0.0,0.0,0.0,0.0,0.0,0.0,0.0,0.0,0.0,0.0,0.0,0.0,0.0,0.0,0.0,0.0,0.0,0.0,0.0,0.0,0.0,0.0,0.0,0.0,0.0,0.0,0.0,0.0,0.0,0.0,0.0,0.0,0.0,0.0,0.0,0.0,0.0,0.0,0.0,0.0,0.0,0.8281,0.8397,0.8464,0.8485,0.8505,0.8505,0.9309,1.1173,0.0,0.0,0.0,0.0,0.0,0.0,0.0,0.0,0.0,0.0,0.0,0.0,0.0,0.0,0.0,0.0,0.0,0.0,0.0,0.0,0.0,0.0,0.0,0.0,0.0,0.0,0.0,0.0,0.0,0.0,0.0,0.0,0.0,0.0,0.0,0.0,0.0,0.0,0.0,0.0,0.0,0.0,0.0,0.0,0.0,0.0,0.0,0.0,0.0,0.0,0.0,0.0,0.0,0.0,0.0,0.0,0.0,0.0,0.0,0.0,0.0,0.0,0.0,0.0,0.0,0.0,0.0,0.0,0.0,0.0,0.0,0.0,0.0,0.0,0.0,0.0,0.0,0.0,0.0,0.0,0.0,0.0,0.0,0.0,0.0,0.0,0.0,0.0,0.0,0.0,0.0,0.0,0.0,0.0,0.0,0.0,0.0,0.0,0.0,0.0,0.0,0.0,0.0,0.886,0.9142,0.8667,0.8608,0.8642,0.8723,0.873,0.9424,1.1096,1.0241,0.0,0.0,0.0,0.0,0.0,0.0,0.0,0.0,0.0,0.0,0.0,0.0,0.0,0.0,0.0,0.0,0.0,0.0,0.0,0.0,0.0,0.0,0.0,0.0,0.0,0.0,0.0,0.0,0.0,0.0,0.0,0.0,0.0,0.0,0.0,0.0,0.0,0.0,0.0,0.0,0.0,0.0,0.0,0.0,0.0,0.0,0.0,0.0,0.0,0.0,0.0,0.0,0.0,0.0,0.0,0.0,0.0,0.0,0.0,0.0,0.0,0.0,0.0,0.0,0.0,0.0,0.0,0.0,0.0,0.0,0.0,0.0,0.0,0.0,0.0,0.0,0.0,0.0,0.0,0.0,0.0,0.0,0.0,0.0,0.0,0.0,0.0,0.0,0.0,0.0,0.0,0.0,0.0,0.0,0.0,0.0,0.0,0.0,0.0,0.0,0.0,0.0,0.9474,0.9568,0.8825,0.8737,0.8784,0.8899,0.8912,0.9555,1.1086,1.1135,0.0,0.0,0.0,0.0,0.0,0.0,0.0,0.0,0.0,0.0,0.0,0.0,0.0,0.0,0.0,0.0,0.0,0.0,0.0,0.0,0.0,0.0,0.0,0.0,0.0,0.0,0.0,0.0,0.0,0.0,0.0,0.0,0.0,0.0,0.0,0.0,0.0,0.0,0.0,0.0,0.0,0.0,0.0,0.0,0.0,0.0,0.0,0.0,0.0,0.0,0.0,0.0,0.0,0.0,0.0,0.0,0.0,0.0,0.0,0.0,0.0,0.0,0.0,0.0,0.0,0.0,0.0,0.0,0.0,0.0,0.0,0.0,0.0,0.0,0.0,0.0,0.0,0.0,0.0,0.0,0.0,0.0,0.0,0.0,0.0,0.0,0.0,0.0,0.0,0.0,0.0,0.0,0.0,0.0,0.0,0.0,0.0,0.0,0.0,0.0,0.0,0.0,0.9441,0.8831,0.8879,0.8892,0.8899,0.8912,0.8912,0.9987,1.2488,1.2412,0.0,0.0,0.0,0.0,0.0,0.0,0.0,0.0,0.0,0.0,0.0,0.0,0.0,0.0,0.0,0.0,0.0,0.0,0.0,0.0,0.0,0.0,0.0,0.0,0.0,0.0,0.0,0.0,0.0,0.0,0.0,0.0,0.0,0.0,0.0,0.0,0.0,0.0,0.0,0.0,0.0,0.0,0.0,0.0,0.0,0.0,0.0,0.0,0.0,0.0,0.0,0.0,0.0,0.0,0.0,0.0,0.0,0.0,0.0,0.0,0.0,0.0,0.0,0.0,0.0,0.0,0.0,0.0,0.0,0.0,0.0,0.0,0.0,0.0,0.0,0.0,0.0,0.0,0.0,0.0,0.0,0.0,0.0,0.0,0.0,0.0,0.0,0.0,0.0,0.0,0.0,0.0,0.0,0.0,0.0,0.0,0.0,0.0,0.0,0.0,0.0,0.0,0.9785,0.9844,0.9283,0.9211,0.9211,0.9211,0.9944,1.1122,1.2833,0.0,0.0,0.0,0.0,0.0,0.0,0.0,0.0,0.0,0.0,0.0,0.0,0.0,0.0,0.0,0.0,0.0,0.0,0.0,0.0,0.0,0.0,0.0,0.0,0.0,0.0,0.0,0.0,0.0,0.0,0.0,0.0,0.0,0.0,0.0,0.0,0.0,0.0,0.0,0.0,0.0,0.0,0.0,0.0,0.0,0.0,0.0,0.0,0.0,0.0,0.0,0.0,0.0,0.0,0.0,0.0,0.0,0.0,0.0,0.0,0.0,0.0,0.0,0.0,0.0,0.0,0.0,0.0,0.0,0.0,0.0,0.0,0.0,0.0,0.0,0.0,0.0,0.0,0.0,0.0,0.0,0.0,0.0,0.0,0.0,0.0,0.0,0.0,0.0,0.0,0.0,0.0,0.0,0.0,0.0,0.0,0.0,0.0,0.0,0.0,0.0,0.0,0.9504,1.0016,1.0174,0.9483,0.941,0.941,0.941,1.0207,1.1376,1.3011,0.0,0.0,0.0,0.0,0.0,0.0,0.0,0.0,0.0,0.0,0.0,0.0,0.0,0.0,0.0,0.0,0.0,0.0,0.0,0.0,0.0,0.0,0.0,0.0,0.0,0.0,0.0,0.0,0.0,0.0,0.0,0.0,0.0,0.0,0.0,0.0,0.0,0.0,0.0,0.0,0.0,0.0,0.0,0.0,0.0,0.0,0.0,0.0,0.0,0.0,0.0,0.0,0.0,0.0,0.0,0.0,0.0,0.0,0.0,0.0,0.0,0.0,0.0,0.0,0.0,0.0,0.0,0.0,0.0,0.0,0.0,0.0,0.0,0.0,0.0,0.0,0.0,0.0,0.0,0.0,0.0,0.0,0.0,0.0,0.0,0.0,0.0,0.0,0.0,0.0,0.0,0.0,0.0,0.0,0.0,0.0,0.0,0.0,0.0,0.0,0.0,0.0,1.0883,1.0098,0.9417,0.9417,0.9417,0.9417,0.9417,0.9446,1.0571,0.0,0.0,0.0,0.0,0.0,0.0,0.0,0.0,0.0,0.0,0.0,0.0,0.0,0.0,0.0,0.0,0.0,0.0,0.0,0.0,0.0,0.0,0.0,0.0,0.0,0.0,0.0,0.0,0.0,0.0,0.0,0.0,0.0,0.0,0.0,0.0,0.0,0.0,0.0,0.0,0.0,0.0,0.0,0.0,0.0,0.0,0.0,0.0,0.0,0.0,0.0,0.0,0.0,0.0,0.0,0.0,0.0,0.0,0.0,0.0,0.0,0.0,0.0,0.0,0.0,0.0,0.0,0.0,0.0,0.0,0.0,0.0,0.0,0.0,0.0,0.0,0.0,0.0,0.0,0.0,0.0,0.0,0.0,0.0,0.0,0.0,0.0,0.0,0.0,0.0,0.0,0.0,0.0,0.0,0.0,0.0,0.0,0.0,0.0,0.0,0.0,0.0,0.0,0.9686,0.9626,0.9578,0.968,0.9693,0.9693,0.9693,1.1381,1.2764,1.357,0.0,0.0,0.0,0.0,0.0,0.0,0.0,0.0,0.0,0.0,0.0,0.0,0.0,0.0,0.0,0.0,0.0,0.0,0.0,0.0,0.0,0.0,0.0,0.0,0.0,0.0,0.0,0.0,0.0,0.0,0.0,0.0,0.0,0.0,0.0,0.0,0.0,0.0,0.0,0.0,0.0,0.0,0.0,0.0,0.0,0.0,0.0,0.0,0.0,0.0,0.0,0.0,0.0,0.0,0.0,0.0,0.0,0.0,0.0,0.0,0.0,0.0,0.0,0.0,0.0,0.0,0.0,0.0,0.0,0.0,0.0,0.0,0.0,0.0,0.0,0.0,0.0,0.0,0.0,0.0,0.0,0.0,0.0,0.0,0.0,0.0,0.0,0.0,0.0,0.0,0.0,0.0,0.0,0.0,0.0,0.0,0.0,0.0,0.0,0.0,0.0,0.0,0.9452,0.9569,0.969,0.9961,1.0005,1.0005,1.0005,1.1441,1.2791,1.388,0.0,0.0,0.0,0.0,0.0,0.0,0.0,0.0,0.0,0.0,0.0,0.0,0.0,0.0,0.0,0.0,0.0,0.0,0.0,0.0,0.0,0.0,0.0,0.0,0.0,0.0,0.0,0.0,0.0,0.0,0.0,0.0,0.0,0.0,0.0,0.0,0.0,0.0,0.0,0.0,0.0,0.0,0.0,0.0,0.0,0.0,0.0,0.0,0.0,0.0,0.0,0.0,0.0,0.0,0.0,0.0,0.0,0.0,0.0,0.0,0.0,0.0,0.0,0.0,0.0,0.0,0.0,0.0,0.0,0.0,0.0,0.0,0.0,0.0,0.0,0.0,0.0,0.0,0.0,0.0,0.0,0.0,0.0,0.0,0.0,0.0,0.0,0.0,0.0,0.0,0.0,0.0,0.0,0.0,0.0,0.0,0.0,0.0,0.0,0.0,0.0,0.0,0.9815,0.9761,0.9782,1.0199,1.0283,1.0315,1.0315,1.0404,1.1506,1.3944,0.0,0.0,0.0,0.0,0.0,0.0,0.0,0.0,0.0,0.0,0.0,0.0,0.0,0.0,0.0,0.0,0.0,0.0,0.0,0.0,0.0,0.0,0.0,0.0,0.0,0.0,0.0,0.0,0.0,0.0,0.0,0.0,0.0,0.0,0.0,0.0,0.0,0.0,0.0,0.0,0.0,0.0,0.0,0.0,0.0,0.0,0.0,0.0,0.0,0.0,0.0,0.0,0.0,0.0,0.0,0.0,0.0,0.0,0.0,0.0,1.3187,1.3802,0.0,0.0,0.0,0.0,0.0,0.0,0.0,0.0,0.0,0.0,0.0,0.0,0.0,0.0,0.0,0.0,0.0,0.0,0.0,0.0,0.0,0.0,0.0,0.0,0.0,0.0,0.0,0.0,0.0,0.0,0.0,0.0,0.0,0.0,0.0,0.0,0.0,0.0,0.0,0.0,0.9671,0.9709,0.9722,0.9818,1.0117,1.0315,1.0315,1.1221,1.2036,1.2595,1.4622,0.0,0.0,0.0,0.0,0.0,0.0,0.0,0.0,0.0,0.0,0.0,0.0,0.0,0.0,0.0,0.0,0.0,0.0,0.0,0.0,0.0,0.0,0.0,0.0,0.0,0.0,0.0,0.0,0.0,0.0,0.0,0.0,0.0,0.0,0.0,0.0,0.0,0.0,0.0,0.0,0.0,0.0,0.0,0.0,0.0,0.0,0.0,0.0,0.0,0.0,0.0,0.0,0.0,0.0,0.0,0.0,0.0,0.0,0.0,1.2593,1.3127,0.0,0.0,0.0,0.0,0.0,0.0,0.0,0.0,0.0,0.0,0.0,0.0,0.0,0.0,0.0,0.0,0.0,0.0,0.0,0.0,0.0,0.0,0.0,0.0,0.0,0.0,0.0,0.0,0.0,0.0,0.0,0.0,0.0,0.0,0.0,0.0,0.0,0.0,0.0,0.0,0.9466,0.9568,0.9696,0.9922,1.026,1.0493,1.0493,1.1095,1.1766,1.2443,1.3815,0.0,0.0,0.0,0.0,0.0,0.0,0.0,0.0,0.0,0.0,0.0,0.0,0.0,0.0,0.0,0.0,0.0,0.0,0.0,0.0,0.0,0.0,0.0,0.0,0.0,0.0,0.0,0.0,0.0,0.0,0.0,0.0,0.0,0.0,0.0,0.0,0.0,0.0,0.0,0.0,0.0,0.0,0.0,0.0,0.0,0.0,0.0,0.0,0.0,0.0,0.0,0.0,0.0,1.1487,1.1528,1.1535,1.1535,1.1167,1.0594,1.1913,1.2235,1.1884,1.2585,0.0,0.0,0.0,0.0,0.0,0.0,0.0,0.0,0.0,0.0,0.0,0.0,0.0,0.0,0.0,0.0,0.0,0.0,0.0,0.0,0.0,0.0,1.06,1.0477,0.9564,0.9163,1.0881,0.0,0.0,0.0,0.0,0.0,0.0,0.0,0.0,0.0,0.0,0.0,0.9243,0.9457,0.9664,1.0081,1.0459,1.0684,1.0684,1.0684,1.1214,1.2355,1.2651,1.3955,0.0,0.0,0.0,0.0,0.0,0.0,0.0,0.0,0.0,0.0,0.0,0.0,0.0,0.0,0.0,0.0,0.0,0.0,0.0,0.0,0.0,0.0,0.0,0.0,0.0,0.0,0.0,0.0,0.0,0.0,0.0,0.0,0.8525,0.8549,0.0,0.0,0.0,0.0,0.0,0.0,0.0,0.0,0.0,0.0,0.0,0.0,0.0,0.9142,0.9283,0.9456,0.9602,0.9721,0.9842,1.0003,1.0154,1.0154,1.0323,1.0604,1.0809,0.0,1.1529,1.1313,0.0,0.0,0.0,0.0,0.0,0.0,0.0,0.0,0.0,0.0,0.0,0.0,0.0,0.0,0.0,0.0,0.0,0.0,0.0,0.0,0.0,0.0,0.8333,0.8303,0.829,0.8359,0.8638,0.9082,0.9531,0.9812,0.9046,0.8346,0.0,0.0,0.0,0.0,0.0,0.0,0.9088,0.9465,0.9709,0.9761,1.0326,1.0684,1.0684,1.0684,1.0784,1.0982,1.2132,1.3506,1.5108,1.6365,0.0,0.0,0.0,0.0,0.0,0.0,0.0,0.0,0.0,0.0,0.0,0.0,0.0,0.0,0.0,0.0,0.0,0.0,0.0,0.0,0.0,0.0,0.0,0.0,0.0,0.0,0.0,0.0,0.0,0.859,0.8623,0.8698,0.8706,0.8755,0.0,0.0,0.0,0.0,0.0,0.0,0.0,0.0,0.0,0.9535,0.9543,0.9616,0.9722,0.9795,0.9861,0.9861,0.9917,0.9991,1.0064,1.0064,1.019,1.0403,1.0818,1.1203,1.1548,1.1274,1.1563,1.2118,0.0,0.0,0.0,0.0,1.1843,1.189,1.2238,1.2351,1.2289,1.1818,0.0,0.0,0.0,0.0,0.0,0.0,0.0,0.9701,0.872,0.8673,0.8756,0.8198,0.8123,0.822,0.8291,0.8541,0.8759,0.8831,0.8548,0.8307,0.8307,0.8437,0.0,0.0,0.0,0.8656,0.8784,0.9322,0.9694,0.9694,1.0293,1.0684,1.0684,1.0684,1.0684,1.0684,1.128,1.2256,1.3669,1.4315,1.5674,0.0,0.0,0.0,0.0,0.0,0.0,0.0,0.0,0.0,0.0,0.0,0.0,0.0,0.0,0.0,0.0,0.0,0.0,0.0,0.0,0.0,0.0,0.0,0.0,0.0,0.0,0.0,0.0,0.7901,0.8042,0.8413,0.8474,0.8544,0.0,0.0,0.0,0.0,0.0,0.0,0.8684,0.8691,0.8802,0.9039,0.9361,0.96,0.9805,0.9817,0.9997,1.0398,1.0118,1.0134,1.0463,1.0463,1.0463,1.0498,1.1116,1.1535,1.1714,1.1755,1.1901,1.2134,1.2134,1.2134,1.2153,1.2286,1.2352,1.2427,1.2767,1.2702,1.2392,1.1837,1.1558,1.1259,1.062,0.0,0.0,0.0,0.0,0.9845,0.8527,0.8765,0.9172,0.844,0.8269,0.8318,0.8443,0.8459,0.8437,0.8313,0.8399,0.8459,0.8459,0.853,0.0,0.859,0.859,0.859,0.859,0.9256,0.9694,0.9694,1.0293,1.0684,1.0684,1.0684,1.0684,1.0684,1.0684,1.1339,1.275,1.3144,1.4479,1.6947,0.0,0.0,0.0,0.0,0.0,0.0,0.0,0.0,0.0,0.0,0.0,0.0,0.0,0.0,0.0,0.0,0.0,0.0,0.0,0.0,0.0,0.0,0.0,0.0,0.0,0.0,0.0,0.0,0.0,0.7446,0.757,0.0,0.0,0.0,0.0,0.6505,0.6445,0.6524,0.6726,0.6731,0.6737,0.6774,0.7889,0.8566,0.8763,0.877,0.9501,1.096,0.9853,0.9982,1.1138,1.1138,1.1138,1.1167,1.1527,1.1822,1.21,1.2553,1.2861,1.3032,1.3032,1.3032,1.3032,1.3041,1.3051,1.3051,1.307,1.247,1.1672,1.177,1.1373,1.0869,1.1016,1.0436,0.0,0.0,0.9011,0.8321,0.8231,0.8323,0.8443,0.841,0.8492,0.8573,0.8579,0.8579,0.8579,0.8568,0.8573,0.8579,0.8579,0.0,0.859,0.859,0.859,0.859,0.859,0.9256,0.9694,0.9694,1.0293,1.0684,1.0684,1.0684,1.0684,1.0684,1.0684,1.1339,1.275,1.4086,1.5489,1.698,1.8323,0.0,0.0,0.0,0.0,0.0,0.0,0.0,0.0,0.0,0.0,0.0,0.0,0.0,0.0,0.0,0.0,0.0,0.0,0.0,0.0,0.0,0.0,0.0,0.0,0.0,0.0,0.0,0.0,0.6613,0.6687,0.0,0.6941,0.6952,0.6833,0.6505,0.6485,0.6595,0.6839,0.685,0.6919,0.7045,0.7472,0.772,0.7794,0.7806,0.8082,0.8625,0.8206,0.8271,0.8767,0.8767,0.8788,0.8845,0.9325,0.9818,1.034,1.0838,1.1476,1.2058,1.1483,1.126,1.1323,1.1487,1.1578,1.1631,1.1766,1.1593,1.1172,1.0623,0.985,0.9153,0.9201,0.9056,0.8869,0.8869,0.8666,0.8465,0.8465,0.8492,0.8524,0.8524,0.8557,0.859,0.859,0.859,0.859,0.859,0.859,0.859,0.859,0.859,0.859,0.859,0.859,0.859,0.859,0.9023,0.9422,0.9661,1.0127,1.0459,1.0684,1.0684,1.0684,1.0684,1.0684,1.0916,1.1439,1.1934,1.2849,1.4283,1.5684,1.6829,0.0,0.0,0.0,0.0,0.0,0.0,0.0,0.0,0.0,0.0,0.0,0.0,0.0,0.0,0.0,0.0,0.0,0.0,0.0,0.0,0.0,0.0,0.0,0.0,0.0,0.507,0.5283,0.5752,0.5845,0.5941,0.6112,0.6126,0.5998,0.5686,0.5663,0.5743,0.5899,0.5939,0.6018,0.6151,0.6537,0.6782,0.6846,0.6816,0.7045,0.7531,0.711,0.715,0.7586,0.7586,0.7628,0.7707,0.8156,0.8754,0.9418,0.9538,1.0136,1.0919,1.0621,1.0546,1.0588,1.0759,1.0862,1.0878,1.0696,1.0672,1.0522,0.9569,0.8834,0.8323,0.8323,0.841,0.8475,0.8475,0.853,0.859,0.859,0.859,0.859,0.859,0.859,0.859,0.859,0.8622,0.8683,0.8683,0.8617,0.859,0.859,0.859,0.86,0.8677,0.8683,0.8666,0.8704,0.9013,0.9385,0.9795,1.0133,1.047,1.0833,1.0867,1.0867,1.0867,1.0867,1.0867,1.0867,1.1337,1.2033,1.2961,1.4316,1.5474,1.6429,0.0,0.0,0.0,0.0,0.0,0.0,0.0,0.0,0.0,0.0,0.0,0.0,0.0,0.0,0.0,0.0,0.0,0.0,0.0,0.0,0.0,0.0,0.0,0.3307,0.3352,0.3787,0.4843,0.4953,0.502,0.5139,0.5154,0.4775,0.388,0.3801,0.3803,0.3806,0.3864,0.3897,0.3899,0.5048,0.5741,0.5953,0.5827,0.6467,0.7869,0.6618,0.6682,0.7874,0.7874,0.7874,0.7906,0.8257,0.8831,0.9462,0.8831,0.8997,0.9767,1.0675,1.1017,1.1024,1.1024,1.1024,1.0904,0.999,0.9761,0.9687,0.8715,0.8497,0.859,0.859,0.859,0.859,0.859,0.859,0.859,0.859,0.859,0.8595,0.8595,0.8595,0.86,0.86,0.8727,0.8808,0.8808,0.8716,0.86,0.86,0.86,0.8638,0.8792,0.8808,0.0,0.8903,0.9261,0.9642,1.0058,1.0404,1.0744,1.1165,1.12,1.12,1.12,1.12,1.12,1.12,1.2494,1.3241,1.3309,1.4565,1.5245,1.5313,0.0,0.0,0.0,0.0,0.0,0.0,0.0,0.0,0.0,0.0,0.0,0.0,0.0,0.0,0.0,0.0,0.0,0.0,0.0,0.0,0.0,0.351,0.3504,0.3401,0.3474,0.3647,0.3951,0.4064,0.4141,0.4177,0.418,0.41,0.3888,0.3864,0.3902,0.3956,0.3978,0.4006,0.4052,0.4351,0.4559,0.4613,0.4578,0.4779,0.5183,0.483,0.4855,0.5233,0.5233,0.5263,0.5348,0.5977,0.6638,0.7299,0.7657,0.825,0.8897,0.8972,0.9056,0.9139,0.9139,0.9199,0.9243,0.898,0.8937,0.8905,0.864,0.8562,0.859,0.859,0.859,0.859,0.859,0.859,0.859,0.859,0.8688,0.8754,0.8754,0.8785,0.8816,0.8816,0.8843,0.8865,0.8865,0.8838,0.8816,0.8816,0.8816,0.8827,0.8865,0.8865,0.8881,0.8914,0.9261,0.9642,1.0058,1.0404,1.0744,1.1165,1.12,1.12,1.12,1.12,1.12,1.12,1.1572,1.2253,1.3275,1.3652,1.4335,0.0,0.0,0.0,0.0,0.0,0.0,0.0,0.0,0.0,0.0,0.0,0.0,0.0,0.0,0.0,0.0,0.0,0.0,0.0,0.0,0.0,0.0,0.3669,0.3669,0.3572,0.3621,0.3691,0.3691,0.3779,0.3847,0.3842,0.3867,0.3905,0.3967,0.397,0.4,0.4036,0.4066,0.4096,0.4131,0.4155,0.4169,0.4169,0.4169,0.4169,0.4169,0.4169,0.4221,0.4253,0.4253,0.4273,0.4308,0.4745,0.548,0.6418,0.6853,0.765,0.8573,0.0,0.0,0.0,0.0,0.853,0.859,0.859,0.859,0.859,0.859,0.859,0.859,0.859,0.8622,0.8699,0.8699,0.8698,0.8742,0.8742,0.8791,0.8845,0.8845,0.8865,0.8919,0.8919,0.8957,0.8995,0.8995,0.9033,0.0,0.9065,0.8979,0.8935,0.8984,0.8995,0.9011,0.9054,0.9418,0.9836,1.0223,1.0575,1.0933,1.132,1.1355,0.0,0.0,0.0,1.1355,1.1355,1.1355,0.0,0.0,0.0,1.2986,1.3745,1.3745,0.0,0.0,1.4816,1.5007,0.0,0.0,0.0,0.0,0.0,0.0,0.0,0.0,0.0,0.0,0.0,0.0,0.0,0.0,0.0,0.0,0.3544,0.3463,0.3463,0.3472,0.3567,0.379,0.388,0.391,0.3934,0.3985,0.4039,0.4099,0.4104,0.4107,0.4112,0.4164,0.0,0.0,0.0,0.4308,0.4308,0.4308,0.4308,0.4308,0.4308,0.4308,0.4308,0.4308,0.4308,0.4308,0.4375,0.5178,0.6418,0.6485,0.7355,0.859,0.859,0.859,0.859,0.859,0.859,0.859,0.859,0.0,0.0,0.8606,0.8617,0.8628,0.8628,0.8704,0.8825,0.8825,0.8867,0.8919,0.8919,0.8924,0.8935,0.8935,0.8946,0.8957,0.8957,0.9044,0.9119,0.9119,0.9237,0.9307,0.9323,0.9103,0.8995,0.9103,0.9119,0.9188,0.9363,0.9746,1.0155,1.0552,1.0896,0.0,1.1631,1.1667,1.1667,1.1667,1.1667,1.1667,1.1667,1.1667,1.1667,1.1667,1.1667,1.1667,1.1667,1.1667,1.1667,1.1696,1.3884,1.4233,0.0,0.0,0.0,0.0,0.0,0.0,0.0,0.0,0.0,0.0,0.0,0.0,0.0,0.0,0.0,0.2588,0.1954,0.1466,0.1466,0.1467,0.2074,0.3681,0.3977,0.4047,0.4058,0.4069,0.4101,0.4161,0.4166,0.4188,0.427,0.4283,0.4289,0.4289,0.43,0.4308,0.4308,0.4308,0.4308,0.4308,0.4308,0.0,0.4308,0.4308,0.4308,0.4342,0.4943,0.5647,0.6451,0.7049,0.7817,0.859,0.859,0.859,0.859,0.859,0.859,0.859,0.859,0.8683,0.877,0.877,0.8802,0.8849,0.8849,0.8865,0.0,0.8881,0.8897,0.8919,0.8919,0.8989,0.9065,0.9065,0.913,0.9237,0.9237,0.9253,0.9269,0.9269,0.9291,0.9334,0.9432,0.9334,0.9242,0.9269,0.9269,0.9388,0.9735,1.0226,1.0694,1.1096,1.161,1.1905,1.2016,1.2016,1.2016,1.2016,1.2016,1.2016,1.2016,1.2016,1.2016,1.2016,1.2016,1.2016,1.2016,1.2016,1.2016,1.2002,1.2208,1.223,0.0,0.0,0.0,0.0,0.0,0.0,0.0,0.0,0.0,0.0,0.0,0.2299,0.2349,0.0,0.163,0.1613,0.1204,0.0906,0.0913,0.0932,0.1326,0.2277,0.2476,0.2542,0.2542,0.259,0.2608,0.266,0.2661,0.267,0.2689,0.3194,0.3499,0.3499,0.4003,0.4308,0.4308,0.4308,0.4308,0.4308,0.4338,0.4352,0.4354,0.4382,0.4395,0.4429,0.4806,0.5556,0.6654,0.7742,0.8429,0.8735,0.8735,0.8731,0.871,0.871,0.872,0.8735,0.8735,0.8812,0.8861,0.8861,0.887,0.8919,0.8919,0.8957,0.9006,0.9006,0.9049,0.9092,0.9092,0.9136,0.9184,0.9184,0.9264,0.9318,0.9383,0.9394,0.9416,0.9476,0.9487,0.9508,0.9605,0.953,0.9487,0.9487,0.9671,0.9818,0.9818,1.0571,1.1094,1.1094,1.1716,1.2098,1.2098,1.2098,1.2098,1.2098,1.2098,1.2098,1.2098,1.2098,1.2098,1.2098,1.2098,1.2098,1.2098,1.2098,1.2098,1.2098,1.1948,1.1877,0.0,0.0,0.0,0.0,0.0,0.0,0.0,0.0848,0.0896,0.0899,0.0888,0.0905,0.0911,0.0798,0.0684,0.0632,0.0444,0.0319,0.0323,0.0361,0.0362,0.0293,0.0722,0.1025,0.1025,0.1068,0.1109,0.1109,0.1109,0.1109,0.1109,0.1916,0.2386,0.2386,0.3203,0.3647,0.3647,0.3896,0.4002,0.4002,0.4287,0.4414,0.4417,0.4461,0.4517,0.4517,0.4797,0.56,0.6821,0.8288,0.8919,0.8919,0.8919,0.887,0.8874,0.8812,0.8867,0.8919,0.8919,0.893,0.8952,0.8952,0.8968,0.8984,0.8984,0.9054,0.913,0.913,0.9231,0.9307,0.9334,0.934,0.9345,0.9367,0.9378,0.94,0.9503,0.9525,0.9589,0.9687,0.9709,0.9714,0.9699,0.9704,0.9731,0.9709,0.9966,1.0078,0.9822,1.0739,1.1321,1.1095,1.1715,1.2186,1.2186,1.2186,1.2186,1.2186,1.2186,1.2186,1.2186,1.2186,1.2186,1.2186,1.2186,1.2186,1.2186,1.2186,1.2186,1.2186,1.2186,1.2173,0.0711,0.0831,0.0951,0.0953,0.1005,0.1029,0.0,0.084,0.0824,0.0896,0.0901,0.0911,0.0905,0.022,-0.0348,-0.0417,-0.117,-0.1771,-0.1775,-0.1797,-0.1846,-0.1843,-0.0101,0.1073,0.1073,0.1108,0.1109,0.1109,0.1109,0.1109,0.1109,0.1209,0.1277,0.1277,0.1327,0.1369,0.1369,0.2357,0.2896,0.2896,0.3981,0.4474,0.4474,0.448,0.4517,0.4587,0.588,0.6542,0.6821,0.8288,0.8919,0.8919,0.8919,0.8973,0.9044,0.8935,0.8908,0.8919,0.8919,0.8989,0.9076,0.9076,0.9147,0.9264,0.9264,0.9275,0.9285,0.9285,0.9296,0.9329,0.9438,0.9465,0.9492,0.9643,0.9665,0.9671,0.9682,0.9687,0.9693,0.9703,0.9709,0.9704,0.9764,0.978,0.9786,0.9725,0.9746,0.9859,1.0116,1.0748,1.1276,1.158,1.2111,1.2454,1.2454,1.2454,1.2454,1.2454,1.2454,1.2454,1.2454,1.2454,1.2454,1.2454,1.2454,1.2454,1.2454,1.2454,1.2454,1.2454,1.2454,1.2386,-0.0081,0.0082,0.0083,0.0056,0.0057,-0.0058,-0.0611,-0.0738,-0.0778,-0.0722,-0.0764,-0.0777,-0.0786,-0.1143,-0.1445,-0.1466,-0.1838,-0.2116,-0.2167,-0.2181,-0.2189,-0.2189,-0.1379,-0.0807,-0.0807,-0.0807,-0.0807,-0.0807,-0.0807,-0.0807,-0.0807,-0.0237,0.0102,0.0102,0.069,0.1007,0.1007,0.1466,0.1716,0.1716,0.2259,0.2515,0.2515,0.2572,0.2579,0.2687,0.4866,0.583,0.6008,0.8225,0.9119,0.9119,0.9119,0.9152,0.9184,0.9065,0.9065,0.9119,0.9119,0.9152,0.9231,0.9231,0.9264,0.9318,0.9389,0.941,0.9427,0.9497,0.9514,0.953,0.9616,0.9633,0.9643,0.9693,0.9709,0.9725,0.9753,0.9769,0.9791,0.9862,0.9873,0.9889,0.9899,0.9905,0.9888,0.9883,1.0064,1.0256,1.0409,1.1108,1.1721,1.2106,1.2352,1.2501,1.2501,1.2501,1.2501,1.2501,1.2501,1.2501,1.2501,1.2501,1.2542,1.2591,1.2637,1.2678,1.2805,1.2805,1.2805,1.2805,1.2805,1.2778,-0.096,-0.078,-0.0793,-0.086,-0.0869,-0.1052,-0.1744,-0.1928,-0.1924,-0.1924,-0.1996,-0.2034,-0.2042,-0.2061,-0.2118,-0.2117,-0.2121,-0.2129,-0.2185,-0.2189,-0.2189,-0.2189,-0.2189,-0.2189,-0.2189,-0.2189,-0.2189,-0.2189,-0.2196,-0.2201,-0.2201,-0.1475,-0.1037,-0.1037,-0.0315,0.0106,0.0106,0.0389,0.0567,0.0567,0.093,0.1113,0.1114,0.1161,0.1202,0.1311,0.3601,0.4581,0.4763,0.7087,0.8304,0.8733,0.8733,0.9009,0.9394,0.9313,0.9313,0.9356,0.9356,0.9378,0.9405,0.9405,0.9405,0.9421,0.9508,0.9536,0.9594,0.9682,0.9709,0.9714,0.9709,0.9715,0.9726,0.9758,0.9764,0.9791,0.9829,0.985,0.9878,0.9964,0.998,0.998,0.998,1.0047,1.0107,1.0225,1.0526,1.0683,1.0608,1.137,1.2115,1.2584,1.263,1.263,1.263,1.263,1.263,1.263,1.263,1.263,1.263,1.263,1.2678,1.2793,1.2793,1.2847,1.3003,1.3003,1.3003,1.3003,1.3003,1.3023,-0.1765,-0.1759,-0.1753,-0.1754,-0.1796,-0.1869,-0.1899,-0.1943,-0.1985,-0.1985,-0.2041,-0.2105,-0.2101,-0.2108,-0.2119,-0.2182,-0.2186,-0.2188,-0.2189,-0.2189,-0.2189,-0.2189,-0.2189,-0.2189,-0.2189,-0.2189,-0.2189,-0.2189,-0.2215,-0.2199,-0.2199,-0.2158,-0.2139,-0.2139,-0.2166,-0.2217,-0.2217,-0.1121,-0.0546,-0.0546,0.0619,0.1201,0.1201,0.1202,0.1202,0.1275,0.2439,0.2985,0.3057,0.433,0.5789,0.726,0.726,0.8248,0.9698,0.9693,0.9616,0.9481,0.9481,0.9594,0.9698,0.9698,0.9698,0.9698,0.9698,0.9703,0.9703,0.9703,0.9709,0.9731,0.9764,0.9791,0.9823,0.9943,1.0008,1.0008,0.9975,0.9975,0.9975,0.998,0.998,0.998,0.998,1.0117,1.0357,1.0792,1.0936,1.0884,1.0631,1.1456,1.2305,1.2929,1.2989,1.2989,1.2989,1.2989,1.2989,1.2989,1.2989,1.2989,1.2989,1.2989,1.2989,1.2996,1.2996,1.2996,1.3003,1.3003,1.3003,1.3003,1.3003,1.3077,-0.1905,-0.1804,-0.1821,-0.1861,-0.1885,-0.1911,-0.195,-0.1973,-0.2024,-0.2045,-0.2074,-0.2097,-0.2108,-0.2125,-0.2177,-0.2186,-0.2189,-0.2189,-0.2189,-0.2189,-0.2189,-0.2189,-0.2189,-0.2196,-0.2217,-0.22,-0.2197,-0.2184,-0.2193,-0.2208,-0.2194,-0.2259,-0.2275,-0.2275,-0.2304,-0.2283,-0.2283,-0.1927,-0.1713,-0.1713,-0.1311,-0.1129,-0.1129,-0.1129,-0.0984,-0.0693,0.1028,0.188,0.2251,0.3978,0.5046,0.5665,0.675,0.7556,0.8187,0.9291,0.9693,0.9709,0.9633,0.9671,0.9709,0.9709,0.9709,0.972,0.9758,0.978,0.9796,0.9878,0.99,0.9911,0.991,0.9921,0.9932,0.997,0.998,0.998,0.998,0.998,0.998,0.998,1.0085,1.0139,1.0139,1.0481,1.0964,1.1724,1.1841,1.1841,1.1748,1.2291,1.2782,1.2996,1.3003,1.3003,1.3003,1.3003,1.3003,1.3003,1.3003,1.3003,1.3003,1.3003,1.3043,1.3139,1.3146,1.3193,1.3254,1.3254,1.3254,1.3254,1.3254,1.3275,-0.1892,-0.1826,-0.1853,-0.1891,-0.1916,-0.1942,-0.1978,-0.2004,-0.2056,-0.2076,-0.2105,-0.2125,-0.2125,-0.2175,-0.2189,-0.2189,-0.2189,-0.2189,-0.2189,-0.2189,-0.2189,-0.2189,-0.2197,-0.2213,-0.2199,-0.2192,-0.2195,-0.2215,-0.2226,-0.2241,-0.2225,-0.229,-0.2305,-0.2305,-0.2287,-0.2296,-0.2296,-0.2296,-0.2301,-0.2349,-0.2323,-0.2328,-0.2328,-0.2328,-0.2144,-0.1737,-0.0298,0.0561,0.0972,0.2412,0.3372,0.4029,0.5091,0.6246,0.7456,0.8531,0.93,0.985,0.9769,0.9758,0.9796,0.9796,0.9796,0.9807,0.9845,0.9861,0.9878,0.9959,0.998,0.998,0.998,0.998,0.998,0.998,0.998,0.9991,1.0074,1.0085,1.0101,1.0144,1.0215,1.0309,1.0469,1.1091,1.1757,1.2375,1.2584,1.2693,1.264,1.2876,1.3098,1.3152,1.3159,1.3159,1.3159,1.3159,1.3159,1.3159,1.3159,1.3159,1.3159,1.3159,1.3159,1.3254,1.3254,1.3302,1.3403,1.3403,1.3403,1.3403,1.3403,1.3403,-0.1816,-0.1857,-0.1902,-0.1903,-0.1946,-0.1987,-0.1989,-0.2067,-0.2109,-0.2112,-0.2168,-0.2189,-0.2189,-0.2189,-0.2189,-0.2189,-0.2189,-0.2189,-0.2189,-0.2189,-0.2189,-0.219,-0.2217,-0.2202,-0.2204,-0.2195,-0.2213,-0.2214,-0.2275,-0.2292,-0.2293,-0.2283,-0.2296,-0.2296,-0.2297,-0.2299,-0.2299,-0.23,-0.2352,-0.2417,-0.2409,-0.2386,-0.2386,-0.2386,-0.2159,-0.1741,-0.1364,-0.0948,-0.053,-0.0152,0.0955,0.239,0.2467,0.4459,0.724,0.7357,0.8414,0.9848,0.973,0.9806,0.998,0.998,0.998,0.998,0.998,0.998,0.998,0.998,0.998,0.998,1.0025,0.9991,0.9991,1.0036,1.0041,1.0068,1.0188,1.0215,1.0248,1.0362,1.0429,1.0596,1.1005,1.1915,1.2619,1.2714,1.3106,1.3349,1.3241,1.3227,1.3282,1.3383,1.3403,1.3403,1.3403,1.3403,1.3403,1.3403,1.3403,1.3403,1.3403,1.3403,1.3403,1.3403,1.3403,1.3403,1.3403,1.3403,1.3403,1.3403,1.3403,1.3403,-0.1984,-0.1889,-0.1907,-0.1959,-0.1992,-0.2024,-0.2048,-0.2082,-0.2116,-0.2171,-0.2183,-0.2189,-0.2189,-0.2189,-0.2189,-0.2189,-0.2189,-0.2189,-0.2189,-0.2189,-0.2197,-0.2185,-0.2195,-0.2218,-0.2263,-0.2275,-0.2288,-0.2273,-0.2298,-0.23,-0.2284,-0.2292,-0.2296,-0.2296,-0.2354,-0.2367,-0.2367,-0.2388,-0.2367,-0.2412,-0.2382,-0.2386,-0.2386,-0.2386,-0.2006,-0.1364,-0.1262,-0.0806,-0.0154,-0.0039,0.0234,0.0742,0.2029,0.3008,0.3916,0.517,0.6694,0.8136,0.811,0.8939,0.998,0.998,0.998,0.998,0.998,0.998,0.998,0.998,0.998,1.0002,1.0134,1.0155,1.0177,1.0269,1.0291,1.0302,1.0335,1.034,1.0346,1.0378,1.0738,1.1277,1.2117,1.2491,1.2819,1.3189,1.3321,1.339,1.3349,1.3342,1.3356,1.3397,1.3403,1.3403,1.3403,1.3403,1.3403,1.3403,1.3403,1.3403,1.3403,1.3403,1.3403,1.3403,1.3403,1.3403,1.3403,1.3403,1.3403,1.3403,1.3403,1.3403,-0.1978,-0.1911,-0.1958,-0.1988,-0.2016,-0.2046,-0.2076,-0.2108,-0.2167,-0.2185,-0.2189,-0.2189,-0.2189,-0.2189,-0.2189,-0.2189,-0.2189,-0.2189,-0.2189,-0.22,-0.2215,-0.2198,-0.2223,-0.2253,-0.2288,-0.2303,-0.2316,-0.2295,-0.2318,-0.2316,-0.2296,-0.2345,-0.2353,-0.2353,-0.2382,-0.2398,-0.2398,-0.2428,-0.2443,-0.2444,-0.2457,-0.2425,-0.2425,-0.2425,-0.2002,-0.1232,-0.124,-0.0778,0.0,0.0,0.0,0.0079,0.102,0.1842,0.2624,0.3564,0.4972,0.6499,0.724,0.8167,0.9105,0.9763,0.998,0.998,0.998,1.0057,1.0101,1.0101,1.0139,1.0199,1.0264,1.0286,1.0302,1.0367,1.0384,1.04,1.0489,1.05,1.0557,1.0776,1.1247,1.1812,1.2554,1.2858,1.3106,1.3362,1.3403,1.3403,1.3403,1.3403,1.3403,1.3403,1.3403,1.3403,1.3403,1.3403,1.3403,1.3403,1.3403,1.3403,1.3403,1.3403,1.3403,1.3403,1.3403,1.3403,1.3403,1.3403,1.3403,1.3403,1.3403,1.3403,-0.1899,-0.1956,-0.2015,-0.2011,-0.2041,-0.2105,-0.2102,-0.2165,-0.2189,-0.2189,-0.2189,-0.2189,-0.2189,-0.2189,-0.2189,-0.2189,-0.2189,-0.219,-0.2195,-0.2184,-0.2203,-0.2211,-0.2259,-0.2292,-0.2296,-0.2322,-0.2301,-0.2301,-0.2305,-0.2307,-0.2303,-0.2368,-0.2386,-0.2427,-0.2416,-0.2432,-0.2397,-0.2462,-0.2513,-0.2514,-0.2502,-0.2514,-0.2514,-0.2514,-0.2043,-0.1296,-0.1296,-0.0825,0.0,0.0,0.0,0.0,0.0,0.0903,0.2156,0.2156,0.3215,0.4868,0.6317,0.7197,0.7974,0.9531,1.0057,1.0068,1.0068,1.0144,1.0226,1.0226,1.0302,1.0389,1.0405,1.0451,1.0411,1.0427,1.0433,1.046,1.0599,1.0661,1.0859,1.138,1.1861,1.2318,1.2733,1.3106,1.3403,1.3403,1.3403,1.3403,1.3403,1.3403,1.3403,1.3403,1.3403,1.3403,1.3403,1.3403,1.3403,1.3403,1.3403,1.3403,1.3403,1.3403,1.3403,1.3403,1.3403,1.3403,1.3403,1.3403,1.3403,1.3403,1.3403,1.3403,-0.196,-0.2003,-0.2015,-0.2011,-0.2041,-0.2105,-0.2102,-0.2165,-0.2189,-0.2189,-0.2189,-0.2189,-0.2189,-0.2189,-0.2189,-0.2189,-0.2189,-0.2197,-0.2188,-0.2196,-0.2218,-0.227,-0.2285,-0.23,-0.2287,-0.2353,-0.2371,-0.2371,-0.2394,-0.2397,-0.2372,-0.2399,-0.2427,-0.2491,-0.2496,-0.2473,-0.2499,-0.2504,-0.2506,-0.2507,-0.2512,-0.2514,-0.2514,-0.2514,-0.2043,-0.1296,-0.1296,-0.0825,0.0,0.0,0.0,0.0,0.0,0.0196,0.0432,0.0432,0.1499,0.2982,0.3259,0.5285,0.7991,0.961,1.0242,1.0324,1.0324,1.0335,1.0356,1.0356,1.0367,1.0446,1.0544,1.0566,1.0593,1.0609,1.0636,1.0641,1.0699,1.0995,1.1416,1.1896,1.2318,1.2733,1.3189,1.3362,1.3403,1.3403,1.3403,1.3403,1.3403,1.3403,1.3403,1.3403,1.3403,1.3403,1.3403,1.3403,1.3403,1.3403,1.3403,1.3403,1.3403,1.3403,1.3403,1.3403,1.3403,1.3403,1.3403,1.3403,1.3403,1.3403,1.3403,1.3403,-0.1969,-0.1988,-0.2005,-0.2035,-0.2065,-0.2095,-0.2159,-0.2178,-0.2189,-0.2189,-0.2189,-0.2189,-0.2189,-0.2189,-0.2193,-0.221,-0.2213,-0.2189,-0.2185,-0.2237,-0.2258,-0.2288,-0.2304,-0.2318,-0.2295,-0.236,-0.2415,-0.2415,-0.2421,-0.2433,-0.2403,-0.2431,-0.2461,-0.2492,-0.2492,-0.25,-0.2514,-0.2514,-0.2514,-0.2514,-0.2514,-0.2514,-0.2514,-0.2514,-0.2043,-0.1296,-0.1296,-0.0825,0.0,0.0,0.0,0.0,0.0,0.0,0.0,0.0,0.0522,0.1329,0.2214,0.3649,0.552,0.8167,0.9653,1.0384,1.0384,1.0468,1.0517,1.0517,1.052,1.0579,1.0634,1.065,1.0666,1.0679,1.0695,1.0695,1.0695,1.107,1.1528,1.2027,1.2401,1.2858,1.3321,1.3403,1.3403,1.3403,1.3403,1.3403,1.3403,1.3403,1.3403,1.3403,1.3403,1.3403,1.3403,1.3403,1.3403,1.3403,1.3403,1.3403,1.3403,1.3403,1.3403,1.3403,1.3403,1.3403,1.3403,1.3403,1.3403,1.3403,1.3403,1.3403,-0.2001,-0.1997,-0.2026,-0.2088,-0.2087,-0.2117,-0.2181,-0.2423,-0.2558,-0.2255,-0.2423,-0.2558,-0.2255,-0.2189,-0.2199,-0.2195,-0.22,-0.2213,-0.2214,-0.2275,-0.2293,-0.23,-0.2283,-0.2299,-0.2305,-0.2371,-0.2391,-0.2434,-0.2487,-0.2469,-0.2406,-0.2466,-0.2489,-0.2514,-0.2514,-0.2514,-0.2514,-0.2514,-0.2514,-0.2514,-0.2514,-0.2514,-0.2514,-0.2514,-0.2043,-0.1296,-0.1296,-0.0787,0.0,0.0,0.0,0.0,0.0,0.0,0.0,0.0,0.0,0.0204,0.1509,0.23,0.315,0.5878,0.8188,0.9967,1.0338,1.0525,1.0637,1.0637,1.0661,1.0695,1.0695,1.0695,1.0695,1.0695,1.0695,1.0737,1.082,1.1237,1.1694,1.2152,1.2567,1.2982,1.3362,1.3403,1.3403,1.3403,1.3403,1.3403,1.3403,1.3403,1.3403,1.3403,1.3403,1.3403,1.3403,1.3403,1.3403,1.3403,1.3403,1.3403,1.3403,1.3403,1.3403,1.3403,1.3403,1.3403,1.3403,1.3403,1.3403,1.3403,1.3403,1.3403,-0.2006,-0.1997,-0.2026,-0.2088,-0.2087,-0.2117,-0.2181,-0.3194,-0.3732,-0.2457,-0.3228,-0.3732,-0.2423,-0.2189,-0.2199,-0.2195,-0.22,-0.2221,-0.2278,-0.2289,-0.23,-0.2289,-0.2295,-0.2307,-0.2371,-0.2402,-0.2431,-0.2496,-0.2491,-0.2508,-0.2506,-0.2508,-0.2511,-0.2514,-0.2514,-0.2514,-0.2514,-0.2514,-0.2514,-0.2514,-0.2514,-0.2514,-0.2514,-0.2514,-0.2043,-0.1296,-0.1296,-0.079,0.0,0.0,0.0,0.0,0.0,0.0,0.0,0.0,0.0,0.0041,0.0165,0.1331,0.2768,0.3062,0.5527,0.861,1.02,1.0668,1.0679,1.0679,1.0684,1.0695,1.0695,1.0695,1.0695,1.0695,1.0695,1.082,1.1237,1.1694,1.2152,1.2567,1.3024,1.3362,1.3403,1.3403,1.3403,1.3403,1.3403,1.3403,1.3403,1.3403,1.3403,1.3403,1.3403,1.3403,1.3403,1.3403,1.3403,1.3403,1.3403,1.3403,1.3403,1.3403,1.3403,1.3403,1.3403,1.3403,1.3403,1.3403,1.3403,1.3403,1.3403,1.3403,-0.2008,-0.2042,-0.2081,-0.2093,-0.2755,-0.3439,-0.3459,-0.4565,-0.5168,-0.3763,-0.39,-0.3866,-0.2457,-0.2189,-0.2204,-0.2185,-0.2193,-0.2213,-0.2308,-0.2316,-0.2284,-0.2295,-0.2296,-0.2308,-0.2375,-0.2406,-0.2444,-0.2492,-0.2507,-0.2514,-0.2514,-0.2514,-0.2514,-0.2514,-0.2514,-0.2514,-0.2514,-0.2514,-0.2514,-0.2514,-0.2514,-0.2514,-0.2476,-0.2256,-0.1827,-0.1271,-0.1,-0.0563,0.0,0.0,0.0,0.0,0.0,0.0,0.0,0.0,0.0,0.0,0.0,0.0461,0.1262,0.2354,0.3696,0.5371,0.8261,0.9142,0.9351,1.0398,1.0695,1.0695,1.0695,1.0695,1.0695,1.0695,1.0695,1.082,1.132,1.1778,1.2235,1.2609,1.3065,1.3403,1.3403,1.3403,1.3403,1.3403,1.3403,1.3403,1.3403,1.3403,1.3403,1.3403,1.3403,1.3403,1.3403,1.3403,1.3403,1.3403,1.3403,1.3403,1.3403,1.3403,1.3403,1.3403,1.3403,1.3403,1.3403,1.3403,1.3403,1.3403,1.3403,1.3403,-0.2545,-0.2688,-0.2837,-0.3271,-0.4158,-0.4934,-0.4934,-0.6034,-0.6535,-0.4669,-0.4635,-0.4367,-0.2524,-0.2189,-0.2208,-0.2201,-0.221,-0.223,-0.2288,-0.2296,-0.2296,-0.2296,-0.2296,-0.2311,-0.2387,-0.2428,-0.2467,-0.2511,-0.2514,-0.2514,-0.2514,-0.2514,-0.2514,-0.2514,-0.2514,-0.2514,-0.2514,-0.2514,-0.2519,-0.2527,-0.2527,-0.2532,-0.2501,-0.2083,-0.1688,-0.1287,-0.0811,-0.0367,0.0,0.0,0.0,0.0,0.0,0.0,0.0,0.0,0.0,0.0,0.0,0.0,0.021,0.1472,0.1891,0.248,0.558,0.7254,0.847,1.019,1.0695,1.0695,1.0695,1.0695,1.0695,1.0695,1.0695,1.0862,1.1486,1.1861,1.2276,1.2816,1.3148,1.3403,1.3403,1.3403,1.3403,1.3403,1.3403,1.3403,1.3403,1.3403,1.3403,1.3403,1.3403,1.3403,1.3403,1.3403,1.3403,1.3403,1.3403,1.3403,1.3403,1.3403,1.3403,1.3403,1.3403,1.3403,1.3403,1.3403,1.3403,1.3403,1.3403,1.3403,-0.3795,-0.4169,-0.452,-0.599,-0.637,-0.6364,-0.6364,-0.7503,-0.7774,-0.4903,-0.5399,-0.5533,-0.2726,-0.2189,-0.2208,-0.2201,-0.221,-0.223,-0.2288,-0.2296,-0.2296,-0.2296,-0.2296,-0.232,-0.2379,-0.2478,-0.2514,-0.2514,-0.2514,-0.2514,-0.2514,-0.2514,-0.2514,-0.2514,-0.2514,-0.2514,-0.2514,-0.2514,-0.2529,-0.2599,-0.2599,-0.2614,-0.2601,-0.2115,-0.1668,-0.1261,-0.0814,-0.0369,0.0,0.0,0.0,0.0,0.0,0.0,0.0,0.0,0.0,0.0,0.0,0.0,0.0,0.0042,0.0042,0.0379,0.2186,0.5245,0.847,1.019,1.0695,1.0695,1.0695,1.0695,1.0695,1.0695,1.0695,1.0945,1.1902,1.211,1.2359,1.3238,1.3403,1.3403,1.3403,1.3403,1.3403,1.3403,1.3403,1.3403,1.3403,1.3403,1.3403,1.3403,1.3403,1.3403,1.3403,1.3403,1.3403,1.3403,1.3403,1.3403,1.3403,1.3403,1.3403,1.3403,1.3403,1.3403,1.3403,1.3403,1.3403,1.3403,1.3403,1.3403,-0.4045,-0.4864,-0.5708,-0.6251,-0.7167,-0.7902,-0.7902,-0.8274,-0.8041,-0.6134,-0.5332,-0.44,-0.2558,-0.2206,-0.2199,-0.2204,-0.2228,-0.229,-0.2291,-0.2296,-0.2296,-0.2296,-0.2332,-0.2365,-0.2383,-0.2478,-0.2514,-0.2514,-0.2514,-0.2514,-0.2514,-0.2534,-0.2585,-0.2585,-0.2585,-0.2555,-0.2574,-0.2574,-0.2579,-0.2589,-0.2589,-0.2432,-0.2116,-0.1682,-0.1235,-0.0782,-0.0374,-0.0125,0.0,0.0,0.0,0.0,0.0,0.0,0.0,0.0,0.0,0.0,0.0,0.0,0.0,0.0,0.0,0.0337,0.2144,0.4365,0.6878,0.9856,1.0695,1.0695,1.0695,1.0695,1.0695,1.0695,1.0695,1.0945,1.1902,1.211,1.2359,1.3238,1.3403,1.3403,1.3403,1.3403,1.3403,1.3403,1.3403,1.3403,1.3403,1.3403,1.3403,1.3403,1.3403,1.3403,1.3403,1.3403,1.3403,1.3403,1.3403,1.3403,1.3403,1.3403,1.3403,1.3403,1.3403,1.3403,1.3403,1.3403,1.3403,1.3403,1.3403,1.3403,-0.4804,-0.597,-0.7167,-0.7837,-0.8723,-0.9377,-0.9377,-0.8972,-0.8174,-0.6698,-0.5268,-0.3866,-0.2457,-0.2214,-0.221,-0.2205,-0.2271,-0.2301,-0.2292,-0.2296,-0.23,-0.2349,-0.2394,-0.2428,-0.244,-0.2485,-0.2514,-0.2514,-0.2514,-0.2519,-0.253,-0.2589,-0.261,-0.2592,-0.2582,-0.2583,-0.2601,-0.2601,-0.2608,-0.2619,-0.2619,-0.238,-0.1937,-0.1495,-0.1041,-0.0625,-0.0168,0.0,0.0,0.0,0.0,0.0,0.0,0.0,0.0,0.0,0.0,0.0,0.0,0.0,0.0,0.0,0.0,0.0337,0.2144,0.4449,0.6878,0.91,1.019,1.0695,1.0695,1.0695,1.0695,1.0695,1.0695,1.0945,1.1902,1.211,1.2359,1.3238,1.3403,1.3403,1.3403,1.3403,1.3403,1.3403,1.3403,1.3403,1.3403,1.3403,1.3403,1.3403,1.3403,1.3403,1.3403,1.3403,1.3403,1.3403,1.3403,1.3403,1.3403,1.3403,1.3403,1.3403,1.3403,1.3403,1.3403,1.3403,1.3403,1.3403,1.3403,1.3403,0.0,-0.7267,-0.8676,-1.0313,-1.0684,-1.0684,-1.0684,-0.9543,0.0,-0.6664,-0.5202,-0.3765,-0.2457,-0.2215,-0.2213,-0.2206,-0.2273,-0.2303,-0.2292,-0.2296,-0.2307,-0.2375,-0.2405,-0.2435,-0.2505,-0.2496,-0.2514,-0.2514,-0.2517,-0.253,-0.2599,-0.2603,-0.259,-0.2603,-0.2622,-0.2608,-0.2608,-0.2608,-0.2622,-0.2609,-0.2567,-0.2332,-0.1934,-0.1472,-0.1052,-0.0631,-0.0168,0.0,0.0,0.0,0.0,0.0,0.0,0.0,0.0,0.0,0.0,0.0,0.0,0.0,0.0,0.0,0.0,0.0295,0.2017,0.5036,0.7927,0.8052,0.9351,1.0695,1.0695,1.0695,1.0695,1.0695,1.0737,1.0987,1.1902,1.211,1.2401,1.3238,1.3403,1.3403,1.3403,1.3403,1.3403,1.3403,1.3403,1.3403,1.3403,1.3403,1.3403,1.3403,1.3403,1.3403,1.3403,1.3403,1.3403,1.3403,1.3403,1.3403,1.3403,1.3403,1.3403,1.3403,1.3403,1.3403,1.3403,1.3403,1.3403,1.3403,1.3403,1.3403,-0.6177,0.0,-0.8758,-1.0307,-1.0684,-1.0684,0.0,-0.874,-0.6831,-0.6464,-0.4431,-0.2591,-0.2255,-0.2199,-0.2202,-0.2209,-0.2253,-0.2288,-0.2295,-0.2296,-0.2307,-0.2375,-0.2405,-0.2435,-0.2505,-0.2496,-0.2514,-0.2514,-0.2536,-0.2592,-0.2599,-0.2602,-0.2591,-0.2605,-0.2662,-0.2671,-0.2671,-0.2671,-0.2675,-0.2682,-0.2305,-0.1888,-0.143,-0.1052,-0.0589,-0.0168,-0.0042,0.0,0.0,0.0,0.0,0.0,0.0,0.0,0.0,0.0,0.0,0.0,0.0,0.0,0.0,0.0,0.0,0.0084,0.0505,0.315,0.6334,0.7718,0.9351,1.0695,1.0695,1.0695,1.0695,1.0695,1.0987,1.1403,1.1986,1.2359,1.2733,1.3279,1.3403,1.3403,1.3403,1.3403,1.3403,1.3403,1.3403,1.3403,1.3403,1.3403,1.3403,1.3403,1.3403,1.3403,1.3403,1.3403,1.3403,1.3403,1.3403,1.3403,1.3403,1.3403,1.3403,1.3403,1.3403,1.3403,1.3403,1.3403,1.3403,1.3403,1.3403,1.3403,-0.686,-0.8275,-0.9582,-1.0485,-1.0684,-1.0518,-0.9881,-0.8002,-0.6235,-0.5566,-0.3696,-0.2189,-0.2189,-0.2204,-0.221,-0.221,-0.2259,-0.2296,-0.2296,-0.2308,-0.2365,-0.2395,-0.2427,-0.2457,-0.2487,-0.2504,-0.2514,-0.2514,-0.2542,-0.2606,-0.2618,-0.2581,-0.2611,-0.2626,-0.2684,-0.2692,-0.2692,-0.2692,-0.2608,-0.2356,-0.2104,-0.1641,-0.101,-0.08,-0.0463,0.0,0.0,0.0,0.0,0.0,0.0,0.0,0.0,0.0,0.0,0.0,0.0,0.0,0.0,0.0,0.0,0.0,0.0,0.0,0.0,0.1933,0.4533,0.6334,0.8136,0.9689,1.0487,1.0695,1.0695,1.0695,1.0904,1.1278,1.1944,1.2276,1.2609,1.3279,1.3403,1.3403,1.3403,1.3403,1.3403,1.3403,1.3403,1.3403,1.3403,1.3403,1.3403,1.3403,1.3403,1.3403,1.3403,1.3403,1.3403,1.3403,1.3403,1.3403,1.3403,1.3403,1.3403,1.3403,1.3403,1.3403,1.3403,1.3403,1.3403,1.3403,1.3403,1.3437,-0.7441,-0.9245,-1.0561,-1.0657,-1.0684,-1.0386,-0.9211,-0.7802,-0.6402,-0.5202,-0.3662,-0.2524,-0.2524,-0.2342,-0.221,-0.221,-0.2259,-0.2296,-0.2296,-0.2358,-0.239,-0.2382,-0.245,-0.2481,-0.2511,-0.2514,-0.2514,-0.2514,-0.2547,-0.2617,-0.26,-0.2594,-0.2624,-0.2691,-0.2692,-0.2692,-0.2692,-0.2692,-0.2482,-0.2018,-0.1934,-0.1473,-0.0716,-0.0631,-0.0379,0.0,0.0,0.0,0.0,0.0,0.0,0.0,0.0,0.0,0.0,0.0,0.0,0.0,0.0,0.0,0.0,0.0,0.0,0.0,0.0,0.1051,0.2646,0.4491,0.6501,0.8511,1.0232,1.0695,1.0695,1.0695,1.082,1.1112,1.1944,1.2193,1.2526,1.3272,1.3403,1.3403,1.3403,1.3403,1.3403,1.3403,1.3403,1.3403,1.3403,1.3403,1.3403,1.3403,1.3403,1.3403,1.3403,1.3403,1.3403,1.3403,1.3403,1.3403,1.3403,1.3403,1.3403,1.3403,1.3403,1.3403,1.3403,1.3403,1.3403,1.3403,1.3424,1.3505,-0.6885,-0.8623,-1.0657,-1.0684,-1.0684,-1.0651,-1.0419,-0.9277,-0.8207,-0.7974,-0.5837,-0.3964,-0.3964,-0.2994,-0.221,-0.221,-0.2259,-0.2296,-0.2296,-0.2358,-0.239,-0.2382,-0.245,-0.2481,-0.2511,-0.2514,-0.2514,-0.2514,-0.2564,-0.2597,-0.2601,-0.2656,-0.2687,-0.2692,-0.2692,-0.2692,-0.2692,-0.2692,-0.2482,-0.1976,-0.1598,-0.1178,-0.0674,-0.0295,-0.0084,0.0,0.0,0.0,0.0,0.0,0.0,0.0,0.0,0.0,0.0,0.0,0.0,0.0,0.0,0.0,0.0,0.0,0.0,0.0,0.0,0.021,0.0799,0.2606,0.5538,0.8511,1.0232,1.0695,1.0695,1.0695,1.132,1.1902,1.2069,1.2692,1.3231,1.3355,1.3403,1.3403,1.3403,1.3403,1.3403,1.3403,1.3403,1.3403,1.3403,1.3403,1.3403,1.3403,1.3403,1.3403,1.3403,1.3403,1.3403,1.3403,1.3403,1.3403,1.3403,1.3403,1.3403,1.3403,1.3403,1.3403,1.3403,1.3403,1.3403,1.3403,1.3532,1.3565,-0.8561,-0.9644,-1.0684,-1.0684,-1.0114,-0.9576,-0.9576,-0.844,-0.7403,-0.7403,-0.6368,-0.5215,-0.4445,-0.3799,-0.3131,-0.2395,-0.2279,-0.2296,-0.2296,-0.2373,-0.2408,-0.2383,-0.2465,-0.2499,-0.2512,-0.2514,-0.2514,-0.2514,-0.2568,-0.2601,-0.2601,-0.266,-0.2692,-0.2692,-0.2692,-0.2692,-0.2692,-0.244,-0.2103,-0.1598,-0.1178,-0.0758,-0.0295,-0.0084,0.0,0.0,0.0,0.0,0.0,0.0,0.0,0.0,0.0,0.0,0.0,0.0,0.0,0.0,0.0,0.0,0.0,0.0,0.0,0.0,0.0,0.0,0.0379,0.2186,0.4616,0.7045,0.8845,0.9981,1.0695,1.0695,1.1029,1.1486,1.1986,1.2401,1.2858,1.3314,1.3403,1.3403,1.3403,1.3403,1.3403,1.3403,1.3403,1.3403,1.3403,1.3403,1.3403,1.3403,1.3403,1.3403,1.3403,1.3403,1.3403,1.3403,1.3403,1.3403,1.3403,1.3403,1.3403,1.3403,1.3403,1.3403,1.3403,1.3403,1.3444,1.3526,1.3551,1.3715,-0.9818,-1.0366,-1.0684,-1.0684,-0.9881,-0.9078,-0.9078,-0.8202,-0.7403,-0.7403,-0.7136,-0.6598,-0.5536,-0.4863,-0.4107,-0.3048,-0.2551,-0.2299,-0.2305,-0.2352,-0.2389,-0.2433,-0.2481,-0.2514,-0.2514,-0.2514,-0.2517,-0.2525,-0.2572,-0.2605,-0.2612,-0.2662,-0.2692,-0.2692,-0.2608,-0.2524,-0.2524,-0.1977,-0.1557,-0.1304,-0.0884,-0.0463,0.0,0.0,0.0,0.0,0.0,0.0,0.0,0.0,0.0,0.0,0.0,0.0,0.0,0.0,0.0,0.0,0.0,0.0,0.0,0.0,0.0,0.0,0.0,0.0,0.0295,0.1682,0.3696,0.5831,0.763,0.9392,1.0695,1.0695,1.0862,1.1237,1.1944,1.2276,1.2609,1.3279,1.3403,1.3403,1.3403,1.3403,1.3403,1.3403,1.3403,1.3403,1.3403,1.3403,1.3403,1.3403,1.3403,1.3403,1.3403,1.3403,1.3403,1.3403,1.3403,1.3403,1.3403,1.3403,1.3403,1.3403,1.3403,1.3403,1.3403,1.3437,1.3512,1.3592,1.3702,1.3851,-0.9026,-0.9703,-1.0684,-1.0684,-1.0618,-1.0552,-1.0552,-1.0485,-1.0386,-1.0386,-0.9344,-0.8444,-0.846,-0.6329,-0.458,-0.4537,-0.3278,-0.2305,-0.2371,-0.2403,-0.2433,-0.25,-0.2495,-0.2514,-0.2514,-0.2514,-0.2526,-0.2595,-0.2585,-0.2613,-0.2601,-0.2675,-0.2692,-0.2692,-0.2272,-0.2061,-0.2061,-0.1221,-0.0968,-0.1304,-0.0884,-0.0463,0.0,0.0,0.0,0.0,0.0,0.0,0.0,0.0,0.0,0.0,0.0,0.0,0.0,0.0,0.0,0.0,0.0,0.0,0.0,0.0,0.0,0.0,0.0,0.0,0.0042,0.0168,0.2688,0.5831,0.763,0.9392,1.0695,1.0695,1.1362,1.2027,1.2069,1.2733,1.3321,1.3403,1.3403,1.3403,1.3403,1.3403,1.3403,1.3403,1.3403,1.3403,1.3403,1.3403,1.3403,1.3403,1.3403,1.3403,1.3403,1.3403,1.3403,1.3403,1.3403,1.3403,1.3403,1.3403,1.3403,1.3403,1.3403,1.3403,1.3403,1.3504,1.3578,1.3592,1.3912,1.4091,-1.0009,-1.0286,-1.0684,-1.0684,-1.0684,-1.0684,-1.0684,-1.0014,-0.9643,-1.0518,-1.0286,-0.9676,-0.8937,-0.5707,-0.3512,-0.4545,-0.3374,-0.2365,-0.2413,-0.2421,-0.2457,-0.2506,-0.2496,-0.2514,-0.2514,-0.2514,-0.2527,-0.2597,-0.2586,-0.2615,-0.2603,-0.2676,-0.2566,-0.2272,-0.2103,-0.185,-0.1556,-0.101,-0.0758,-0.0926,-0.0463,-0.0168,0.0,0.0,0.0,0.0,0.0,0.0,0.0,0.0,0.0,0.0,0.0,0.0,0.0,0.0,0.0,0.0,0.0,0.0,0.0,0.0,0.0,0.0,0.0,0.0,0.0,0.0,0.1808,0.4155,0.5957,0.8553,1.0695,1.0695,1.0987,1.132,1.1611,1.1902,1.2318,1.2858,1.2941,1.3065,1.3362,1.3403,1.3403,1.3403,1.3403,1.3403,1.3403,1.3403,1.3403,1.3403,1.3403,1.3403,1.3403,1.3403,1.3403,1.3403,1.3403,1.3403,1.3403,1.3403,1.3403,1.3403,1.3403,1.3403,1.3403,1.3511,1.3632,1.372,1.3973,1.4122,-1.069,-1.0684,-1.0684,-1.0684,-1.0684,-1.0684,-1.0684,-0.9948,-0.9543,-1.0485,-1.0792,-1.0325,-0.8502,-0.5766,-0.4003,-0.4584,-0.3424,-0.2382,-0.2391,-0.2474,-0.2512,-0.2482,-0.2502,-0.2514,-0.2514,-0.2514,-0.253,-0.261,-0.247,-0.2373,-0.2409,-0.2303,-0.2103,-0.1808,-0.1641,-0.1431,-0.1094,-0.0674,-0.0463,-0.0463,-0.0168,0.0,0.0,0.0,0.0,0.0,0.0,0.0,0.0,0.0,0.0,0.0,0.0,0.0,0.0,0.0,0.0,0.0,0.0,0.0,0.0,0.0,0.0,0.0,0.0,0.0,0.0,0.0,0.1304,0.3108,0.491,0.763,1.0023,1.057,1.082,1.1029,1.132,1.1528,1.1819,1.2567,1.2692,1.2858,1.3321,1.3403,1.3403,1.3403,1.3403,1.3403,1.3403,1.3403,1.3403,1.3403,1.3403,1.3403,1.3403,1.3403,1.3403,1.3403,1.3403,1.3403,1.3403,1.3403,1.3403,1.3403,1.3403,1.3424,1.3471,1.3578,1.3727,1.3919,1.4068,1.4197,-1.0684,-1.0684,-1.0684,-1.0684,-1.0684,-1.0684,-1.0684,-1.0684,-1.0684,-1.0691,-1.0921,-1.0262,-0.7318,-0.6877,-0.6463,-0.4947,-0.3388,-0.239,-0.2382,-0.245,-0.248,-0.2511,-0.2475,-0.2475,-0.2475,-0.2475,-0.2499,-0.2597,-0.2156,-0.1931,-0.1974,-0.1556,-0.1304,-0.1304,-0.0926,-0.0716,-0.0674,-0.0253,0.0,0.0,0.0,0.0,0.0,0.0,0.0,0.0,0.0,0.0,0.0,0.0,0.0,0.0,0.0,0.0,0.0,0.0,0.0,0.0,0.0,0.0,0.0,0.0,0.0,0.0,0.0,0.0,0.0,0.0,0.1304,0.3108,0.491,0.671,0.8511,1.0273,1.107,1.1403,1.1403,1.1778,1.2193,1.2609,1.2692,1.2858,1.3314,1.3403,1.3403,1.3403,1.3403,1.3403,1.3403,1.3403,1.3403,1.3403,1.3403,1.3403,1.3403,1.3403,1.3403,1.3403,1.3403,1.3403,1.3403,1.3403,1.3403,1.3403,1.3403,1.3478,1.3585,1.3727,1.3919,1.4119,1.4231,1.4299,-1.0127,-1.0359,-1.0651,-1.0425,-1.0518,-1.0684,-1.0684,-1.0684,-1.0345,-0.9052,-0.8193,-0.7332,-0.6154,-0.4289,-0.3141,-0.3755,-0.2797,-0.1966,-0.1992,-0.2287,-0.2387,-0.212,-0.2082,-0.1964,-0.1689,-0.165,-0.1666,-0.1665,-0.1546,-0.1479,-0.1512,-0.1388,-0.1178,-0.0884,-0.0758,-0.0547,-0.021,-0.0084,0.0,0.0,0.0,0.0,0.0,0.0,0.0,0.0,0.0,0.0,0.0,0.0,0.0,0.0,0.0,0.0,0.0,0.0,0.0,0.0,0.0,0.0,0.0,0.0,0.0,0.0,0.0,0.0,0.0,0.0,0.0379,0.1514,0.4616,0.579,0.6961,0.9981,1.082,1.0904,1.0904,1.1029,1.1237,1.1694,1.2069,1.2401,1.2816,1.3189,1.3403,1.3403,1.3403,1.3403,1.3403,1.3403,1.3403,1.3403,1.3403,1.3403,1.3403,1.3403,1.3403,1.3403,1.3403,1.3403,1.3403,1.3403,1.3403,1.3403,1.3403,1.3478,1.3585,1.3727,1.3919,1.4119,1.4231,1.4299,-1.016,-1.0392,-1.0651,-1.0459,-1.0552,-1.0671,-1.0598,-1.0578,-0.9939,-0.7625,-0.7013,-0.6239,-0.4236,-0.2897,-0.2231,-0.2517,-0.2027,-0.1559,-0.1578,-0.1832,-0.1925,-0.1689,-0.165,-0.1571,-0.1336,-0.1296,-0.1309,-0.13,-0.1139,-0.1027,-0.1051,-0.0884,-0.0673,-0.0421,-0.0421,-0.0295,0.0,0.0,0.0,0.0,0.0,0.0,0.0,0.0,0.0,0.0,0.0,0.0,0.0,0.0,0.0,0.0,0.0,0.0,0.0,0.0,0.0,0.0,0.0,0.0,0.0,0.0,0.0,0.0,0.0,0.0,0.0,0.0,0.0,0.0842,0.4449,0.5413,0.6292,0.9856,1.0695,1.0695,1.0695,1.0695,1.0904,1.157,1.1902,1.2276,1.2858,1.3196,1.3403,1.3403,1.3403,1.3403,1.3403,1.3403,1.3403,1.3403,1.3403,1.3403,1.3403,1.3403,1.3403,1.3403,1.3403,1.3403,1.3403,1.3403,1.3403,1.3403,1.3458,1.3566,1.3673,1.3858,1.4014,1.4163,1.4258,1.4299,-1.0452,-1.0585,-1.0651,-1.0552,-1.0585,-1.0558,-1.0373,-1.0317,-0.9468,-0.6449,-0.6676,-0.6155,-0.1891,-0.2225,-0.2708,-0.1337,-0.1128,-0.1143,-0.1157,-0.1248,-0.1296,-0.1256,-0.1217,-0.1217,-0.1178,-0.1178,-0.119,-0.1178,-0.0773,-0.0575,-0.0631,-0.0253,0.0,0.0,0.0,0.0,0.0,0.0,0.0,0.0,0.0,0.0,0.0,0.0,0.0,0.0,0.0,0.0,0.0,0.0,0.0,0.0,0.0,0.0,0.0,0.0,0.0,0.0,0.0,0.0,0.0,0.0,0.0,0.0,0.0,0.0,0.0,0.0,0.0,0.0799,0.4239,0.5287,0.625,0.9643,1.057,1.0695,1.0695,1.0695,1.0945,1.1819,1.2027,1.2359,1.3155,1.3362,1.3403,1.3403,1.3403,1.3403,1.3403,1.3403,1.3403,1.3403,1.3403,1.3403,1.3403,1.3403,1.3403,1.3403,1.3403,1.3403,1.3403,1.3403,1.3403,1.3403,1.3511,1.366,1.3795,1.3994,1.415,1.4299,1.4299,1.4299,-0.9256,-0.9655,-1.0153,-0.9582,-0.9688,-0.9931,-0.9928,-0.9799,-0.8833,-0.5799,-0.4553,-0.3224,-0.0729,-0.0515,-0.0632,-0.0301,-0.0534,-0.0733,-0.0742,-0.1058,-0.1178,-0.0785,-0.0746,-0.0628,-0.0314,-0.0275,-0.0278,-0.0284,-0.0203,-0.0123,-0.0168,-0.0042,0.0,0.0,0.0,0.0,0.0,0.0,0.0,0.0,0.0,0.0,0.0,0.0,0.0,0.0,0.0,0.0,0.0,0.0,0.0,0.0,0.0,0.0,0.0,0.0,0.0,0.0,0.0,0.0,0.0,0.0,0.0,0.0,0.0,0.0,0.0,0.0,0.0,0.0505,0.273,0.4323,0.5957,0.8136,0.9689,1.0695,1.0695,1.0695,1.0779,1.0945,1.1611,1.2152,1.2359,1.2941,1.3403,1.3403,1.3403,1.3403,1.3403,1.3403,1.3403,1.3403,1.3403,1.3403,1.3403,1.3403,1.3403,1.3403,1.3403,1.3403,1.3403,1.3403,1.3403,1.3403,1.3511,1.366,1.3795,1.3994,1.415,1.4299,1.4299,1.4299,-0.9222,-0.9528,-0.9861,-0.9489,-0.957,-0.9722,-0.9679,-0.9042,-0.775,-0.5346,-0.4271,-0.299,-0.0478,0.0,0.0,0.0,-0.0192,-0.031,-0.0314,-0.051,-0.0589,-0.0353,-0.0314,-0.0236,-0.0039,0.0,0.0,0.0,0.0,0.0,0.0,0.0,0.0,0.0,0.0,0.0,0.0,0.0,0.0,0.0,0.0,0.0,0.0,0.0,0.0,0.0,0.0,0.0,0.0,0.0,0.0,0.0,0.0,0.0,0.0,0.0,0.0,0.0,0.0,0.0,0.0,0.0,0.0,0.0,0.0,0.0,0.0,0.0,0.0,0.0421,0.2228,0.4029,0.5873,0.7676,0.9434,1.0695,1.0695,1.0695,1.082,1.1278,1.1778,1.2235,1.265,1.3113,1.3403,1.3403,1.3403,1.3403,1.3403,1.3403,1.3403,1.3403,1.3403,1.3403,1.3403,1.3403,1.3403,1.3403,1.3403,1.3403,1.3403,1.3403,1.3437,1.3505,1.3612,1.3761,1.3953,1.4109,1.4224,1.4299,1.4299,1.4299,-0.9422,-0.9495,-0.9495,-0.9495,-0.9539,-0.9551,-0.9434,-0.8243,-0.6701,-0.5038,-0.4475,-0.3399,-0.0519,0.0,0.0,0.0,0.0,0.0,0.0,0.0,0.0,0.0,0.0,0.0,0.0,0.0,0.0,0.0,0.0,0.0,0.0,0.0,0.0,0.0,0.0,0.0,0.0,0.0,0.0,0.0,0.0,0.0,0.0,0.0,0.0,0.0,0.0,0.0,0.0,0.0,0.0,0.0,0.0,0.0,0.0,0.0,0.0,0.0,0.0,0.0,0.0,0.0,0.0,0.0,0.0,0.0,0.0,0.0,0.0,0.0337,0.1849,0.3822,0.579,0.7296,0.9226,1.0695,1.0695,1.0695,1.0945,1.1819,1.211,1.2443,1.3272,1.3403,1.3403,1.3403,1.3403,1.3403,1.3403,1.3403,1.3403,1.3403,1.3403,1.3403,1.3403,1.3403,1.3403,1.3403,1.3403,1.3403,1.3403,1.3424,1.3512,1.3619,1.3741,1.3919,1.4119,1.4224,1.4299,1.4299,1.4299,1.4299,-0.8823,-0.8756,-0.8756,-0.8756,-0.8767,-0.8806,-0.8934,-0.7801,-0.6313,-0.496,-0.3603,-0.2084,-0.0334,0.0,0.0,0.0,0.0,0.0,0.0,0.0,0.0,0.0,0.0,0.0,0.0,0.0,0.0,0.0,0.0,0.0,0.0,0.0,0.0,0.0,0.0,0.0,0.0,0.0,0.0,0.0,0.0,0.0,0.0,0.0,0.0,0.0,0.0,0.0,0.0,0.0,0.0,0.0,0.0,0.0,0.0,0.0,0.0,0.0,0.0,0.0,0.0,0.0,0.0,0.0,0.0,0.0,0.0,0.0,0.0,0.0042,0.0295,0.2856,0.5454,0.5706,0.8303,1.0695,1.0695,1.0695,1.0862,1.1403,1.211,1.2775,1.3314,1.3403,1.3403,1.3403,1.3403,1.3403,1.3403,1.3403,1.3403,1.3403,1.3403,1.3403,1.3403,1.3403,1.3403,1.3403,1.3403,1.3403,1.3403,1.3532,1.3626,1.3768,1.3788,1.3919,1.4119,1.4224,1.4299,1.4299,1.4299,1.4299,-0.8651,-0.859,-0.859,-0.859,-0.8687,-0.8784,-0.8892,-0.7816,-0.6416,-0.5008,-0.3419,-0.1832,-0.0299,0.0,0.0,0.0,0.0,0.0,0.0,0.0,0.0,0.0,0.0,0.0,0.0,0.0,0.0,0.0,0.0,0.0,0.0,0.0,0.0,0.0,0.0,0.0,0.0,0.0,0.0,0.0,0.0,0.0,0.0,0.0,0.0,0.0,0.0,0.0,0.0,0.0,0.0,0.0,0.0,0.0,0.0,0.0,0.0,0.0,0.0,0.0,0.0,0.0,0.0,0.0,0.0,0.0,0.0,0.0,0.0,0.0,0.0,0.1933,0.4155,0.5161,0.7379,0.9518,1.0487,1.0695,1.0904,1.1653,1.2484,1.3148,1.3362,1.3403,1.3403,1.3403,1.3403,1.3403,1.3403,1.3403,1.3403,1.3403,1.3403,1.3403,1.3403,1.3403,1.3403,1.3403,1.3403,1.3403,1.3403,1.3546,1.3653,1.3795,1.3926,1.4048,1.4197,1.4265,1.4299,1.4299,1.4299,1.4299,-0.859,-0.859,-0.859,-0.859,-0.8442,-0.8287,-0.8313,-0.6973,-0.543,-0.4327,-0.2839,-0.1357,-0.0225,0.0,0.0,0.0,0.0,0.0,0.0,0.0,0.0,0.0,0.0,0.0,0.0,0.0,0.0,0.0,0.0,0.0,0.0,0.0,0.0,0.0,0.0,0.0,0.0,0.0,0.0,0.0,0.0,0.0,0.0,0.0,0.0,0.0,0.0,0.0,0.0,0.0,0.0,0.0,0.0,0.0,0.0,0.0,0.0,0.0,0.0,0.0,0.0,0.0,0.0,0.0,0.0,0.0,0.0,0.0,0.0,0.0,0.0,0.1346,0.315,0.4952,0.6794,0.8595,1.0482,1.0987,1.1278,1.211,1.2858,1.3403,1.3403,1.3403,1.3403,1.3403,1.3403,1.3403,1.3403,1.3403,1.3403,1.3403,1.3403,1.3403,1.3403,1.3403,1.3403,1.3403,1.3403,1.3417,1.3458,1.3558,1.3707,1.3856,1.4055,1.4183,1.4299,1.4299,1.4299,1.4299,1.4299,1.4299,-0.859,-0.859,-0.859,-0.859,-0.7564,-0.6572,-0.6688,-0.445,-0.2366,-0.2432,-0.1202,-0.011,0.0,0.0,0.0,0.0,0.0,0.0,0.0,0.0,0.0,0.0,0.0,0.0,0.0,0.0,0.0,0.0,0.0,0.0,0.0,0.0,0.0,0.0,0.0,0.0,0.0,0.0,0.0,0.0,0.0,0.0,0.0,0.0,0.0,0.0,0.0,0.0,0.0,0.0,0.0,0.0,0.0,0.0,0.0,0.0,0.0,0.0,0.0,0.0,0.0,0.0,0.0,0.0,0.0,0.0,0.0,0.0,0.0,0.0,0.0,0.1346,0.315,0.4952,0.6794,0.8678,1.0898,1.1694,1.2152,1.2609,1.3065,1.3403,1.3403,1.3403,1.3403,1.3403,1.3403,1.3403,1.3403,1.3403,1.3403,1.3403,1.3403,1.3403,1.3403,1.3403,1.3403,1.3403,1.3403,1.3464,1.3572,1.3714,1.3862,1.4098,1.4211,1.4292,1.4299,1.4299,1.4299,1.4299,1.4299,1.4299,-0.8351,-0.859,-0.8606,-0.8716,-0.7625,-0.658,-0.6704,-0.4399,-0.2244,-0.2291,-0.1057,0.0,0.0,0.0,0.0,0.0,0.0,0.0,0.0,0.0,0.0,0.0,0.0,0.0,0.0,0.0,0.0,0.0,0.0,0.0,0.0,0.0,0.0,0.0,0.0,0.0,0.0,0.0,0.0,0.0,0.0,0.0,0.0,0.0,0.0,0.0,0.0,0.0,0.0,0.0,0.0,0.0,0.0,0.0,0.0,0.0,0.0,0.0,0.0,0.0,0.0,0.0,0.0,0.0,0.0,0.0,0.0,0.0,0.0,0.0,0.0,0.0463,0.1723,0.47,0.7881,1.0523,1.1611,1.1986,1.2235,1.2609,1.3065,1.3403,1.3403,1.3403,1.3403,1.3403,1.3403,1.3403,1.3403,1.3403,1.3403,1.3403,1.3403,1.3403,1.3403,1.3403,1.3403,1.3403,1.3492,1.3531,1.3585,1.3858,1.4014,1.4112,1.4224,1.4299,1.4299,1.4299,1.4299,1.4299,1.4299,1.4299,-0.6873,-0.7541,-0.7959,-0.8034,-0.7359,-0.6555,-0.6118,-0.4107,-0.2148,-0.1639,-0.0729,0.0,0.0,0.0,0.0,0.0,0.0,0.0,0.0,0.0,0.0,0.0,0.0,0.0,0.0,0.0,0.0,0.0,0.0,0.0,0.0,0.0,0.0,0.0,0.0,0.0,0.0,0.0,0.0,0.0,0.0,0.0,0.0,0.0,0.0,0.0,0.0,0.0,0.0,0.0,0.0,0.0,0.0,0.0,0.0,0.0,0.0,0.0,0.0,0.0,0.0,0.0,0.0,0.0,0.0,0.0,0.0,0.0,0.0,0.0,0.0,0.0463,0.1682,0.47,0.8006,1.0773,1.1861,1.2193,1.2443,1.2858,1.3189,1.3403,1.3403,1.3403,1.3403,1.3403,1.3403,1.3403,1.3403,1.3403,1.3403,1.3403,1.3403,1.3403,1.3403,1.3403,1.3424,1.3471,1.3531,1.3632,1.3777,1.3966,1.4139,1.4193,1.4251,1.4299,1.4299,1.4299,1.4299,1.4299,1.4299,1.4299,0.0,0.0,0.0,-0.6548,-0.6608,-0.6275,-0.4852,-0.3353,-0.1857,-0.0365,-0.0073,-0.0036,0.0,0.0,0.0,0.0,0.0,0.0,0.0,0.0,0.0,0.0,0.0,0.0,0.0,0.0,0.0,0.0,0.0,0.0,0.0,0.0,0.0,0.0,0.0,0.0,0.0,0.0,0.0,0.0,0.0,0.0,0.0,0.0,0.0,0.0,0.0,0.0,0.0,0.0,0.0,0.0,0.0,0.0,0.0,0.0,0.0,0.0,0.0,0.0,0.0,0.0,0.0,0.0,0.0,0.0,0.0,0.0,0.0,0.0,0.0,0.1346,0.315,0.491,0.7087,0.9341,1.1564,1.2401,1.2858,1.3314,1.3403,1.3403,1.3403,1.3403,1.3403,1.3403,1.3403,1.3403,1.3403,1.3403,1.3403,1.3403,1.3403,1.3403,1.3403,1.3403,1.3464,1.3578,1.3592,1.377,1.4105,1.4119,1.415,1.4299,1.4299,1.4299,1.4299,1.4299,1.4299,1.4299,1.4299,1.4299,-0.4026,0.0,0.0,0.0,0.0,0.0,-0.4441,-0.3411,-0.2184,-0.1748,-0.1676,-0.1311,-0.0219,0.0,0.0,0.0,0.0,0.0,0.0,0.0,0.0,0.0,0.0,0.0,0.0,0.0,0.0,0.0,0.0,0.0,0.0,0.0,0.0,0.0,0.0,0.0,0.0,0.0,0.0,0.0,0.0,0.0,0.0,0.0,0.0,0.0,0.0,0.0,0.0,0.0,0.0,0.0,0.0,0.0,0.0,0.0,0.0,0.0,0.0,0.0,0.0,0.0,0.0,0.0,0.0,0.0,0.0,0.0,0.0,0.0,0.0,0.1346,0.2898,0.3738,0.6623,0.9466,1.0435,1.1979,1.3231,1.3355,1.3403,1.3403,1.3403,1.3403,1.3403,1.3403,1.3403,1.3403,1.3403,1.3403,1.3403,1.3403,1.3403,1.3403,1.3403,1.3403,1.3464,1.3578,1.3687,1.3871,1.4105,1.4177,1.4258,1.4299,1.4299,1.4299,1.4299,1.4299,1.4299,1.4299,1.4299,1.4299,0.0,0.0,-0.3501,-0.3549,0.0,0.0,-0.3633,-0.2983,-0.2111,-0.1457,-0.1348,-0.1057,-0.0182,0.0,0.0,0.0,0.0,0.0,0.0,0.0,0.0,0.0,0.0,0.0,0.0,0.0,0.0,0.0,0.0,0.0,0.0,0.0,0.0,0.0,0.0,0.0,0.0,0.0,0.0,0.0,0.0,0.0,0.0,0.0,0.0,0.0,0.0,0.0,0.0,0.0,0.0,0.0,0.0,0.0,0.0,0.0,0.0,0.0,0.0,0.0,0.0,0.0,0.0,0.0,0.0,0.0,0.0,0.0,0.0,0.0,0.0,0.0926,0.2145,0.3152,0.6041,0.8841,0.9888,1.1855,1.3403,1.3403,1.3403,1.3403,1.3403,1.3403,1.3403,1.3403,1.3403,1.3403,1.3403,1.3403,1.3403,1.3403,1.3403,1.3403,1.3403,1.3458,1.3559,1.3666,1.3858,1.4007,1.4163,1.4251,1.4299,1.4299,1.4299,1.4299,1.4299,1.4299,1.4299,1.4299,1.4299,1.4299,0.0,0.0,0.0,-0.2029,-0.3135,0.0,-0.2585,-0.2293,-0.1893,-0.0547,-0.0255,-0.0219,-0.0036,0.0,0.0,0.0,0.0,0.0,0.0,0.0,0.0,0.0,0.0,0.0,0.0,0.0,0.0,0.0,0.0,0.0,0.0,0.0,0.0,0.0,0.0,0.0,0.0,0.0,0.0,0.0,0.0,0.0,0.0,0.0,0.0,0.0,0.0,0.0,0.0,0.0,0.0,0.0,0.0,0.0,0.0,0.0,0.0,0.0,0.0,0.0,0.0,0.0,0.0,0.0,0.0,0.0,0.0,0.0,0.0,0.0,0.0084,0.0379,0.1137,0.2859,0.5203,0.7626,0.9471,1.1564,1.3148,1.3355,1.3403,1.3403,1.3403,1.3403,1.3403,1.3403,1.3403,1.3403,1.3403,1.3403,1.3403,1.3403,1.3403,1.341,1.3424,1.3553,1.3653,1.3815,1.3994,1.4143,1.4292,1.4299,1.4299,1.4299,1.4299,1.4299,1.4299,1.4299,1.4299,1.4299,1.4299,1.4299,0.0,-0.0212,-0.0463,-0.0464,-0.0686,0.0,-0.2075,-0.2293,-0.2221,-0.1929,-0.1857,-0.1457,-0.0219,0.0,0.0,0.0,0.0,0.0,0.0,0.0,0.0,0.0,0.0,0.0,0.0,0.0,0.0,0.0,0.0,0.0,0.0,0.0,0.0,0.0,0.0,0.0,0.0,0.0,0.0,0.0,0.0,0.0,0.0,0.0,0.0,0.0,0.0,0.0,0.0,0.0,0.0,0.0,0.0,0.0,0.0,0.0,0.0,0.0,0.0,0.0,0.0,0.0,0.0,0.0,0.0,0.0,0.0,0.0,0.0,0.0084,0.0463,0.0631,0.0968,0.2018,0.3782,0.579,0.7964,0.9888,1.1641,1.3106,1.3403,1.3403,1.3403,1.3403,1.3403,1.3403,1.3403,1.3403,1.3403,1.3403,1.3403,1.3403,1.3403,1.3451,1.3531,1.3572,1.3743,1.4007,1.4098,1.4143,1.4292,1.4299,1.4299,1.4299,1.4299,1.4299,1.4299,1.4299,1.4299,1.4299,1.4299,1.4299,0.0,0.0,0.0,0.0,0.0,0.0,0.0,-0.1166,-0.1166,-0.1166,-0.1166,-0.0911,-0.0146,0.0,0.0,0.0,0.0,0.0,0.0,0.0,0.0,0.0,0.0,0.0,0.0,0.0,0.0,0.0,0.0,0.0,0.0,0.0,0.0,0.0,0.0,0.0,0.0,0.0,0.0,0.0,0.0,0.0,0.0,0.0,0.0,0.0,0.0,0.0,0.0,0.0,0.0,0.0,0.0,0.0,0.0,0.0,0.0,0.0,0.0,0.0,0.0,0.0,0.0,0.0,0.0,0.0,0.0,0.0,0.0168,0.0421,0.0631,0.101,0.1473,0.1893,0.3572,0.558,0.7592,0.9429,1.1225,1.3065,1.3403,1.3403,1.3403,1.3403,1.3403,1.3403,1.3403,1.3403,1.3403,1.3403,1.3403,1.3403,1.3471,1.3546,1.3578,1.3763,1.3912,1.4105,1.4143,1.4217,1.4299,1.4299,1.4299,1.4299,1.4299,1.4299,1.4299,1.4299,1.4299,1.4299,1.4299,1.4299,0.0,0.0,0.0,0.0,0.0,0.0,0.0,0.0,0.0,0.0,0.0,0.0,0.0,0.0,0.0,0.0,0.0,0.0,0.0,0.0,0.0,0.0,0.0,0.0,0.0,0.0,0.0,0.0,0.0,0.0,0.0,0.0,0.0,0.0,0.0,0.0,0.0,0.0,0.0,0.0,0.0,0.0,0.0,0.0,0.0,0.0,0.0,0.0,0.0,0.0,0.0,0.0,0.0,0.0,0.0,0.0,0.0,0.0,0.0,0.0,0.0,0.0,0.0,0.0,0.0126,0.0126,0.0168,0.021,0.0505,0.0842,0.0926,0.1473,0.2018,0.2104,0.353,0.5371,0.7129,0.8924,1.0721,1.2519,1.3148,1.3403,1.3403,1.3403,1.3403,1.3403,1.3403,1.3403,1.3403,1.3403,1.341,1.3444,1.3553,1.3612,1.3709,1.3933,1.4125,1.4159,1.4231,1.4299,1.4299,1.4299,1.4299,1.4299,1.4299,1.4299,1.4299,1.4299,1.4299,1.4299,1.4299,1.4299,0.0,0.0,0.0,0.0,0.0,0.0,0.0,0.0,0.0,0.0,0.0,0.0,0.0,0.0,0.0,0.0,0.0,0.0,0.0,0.0,0.0,0.0,0.0,0.0,0.0,0.0,0.0,0.0,0.0,0.0,0.0,0.0,0.0,0.0,0.0,0.0,0.0,0.0,0.0,0.0,0.0,0.0,0.0,0.0,0.0,0.0,0.0,0.0,0.0,0.0,0.0,0.0,0.0,0.0,0.0,0.0,0.0,0.0,0.0,0.0,0.0,0.0,0.0,0.0084,0.0505,0.0631,0.0716,0.1052,0.1178,0.1346,0.1725,0.1935,0.2103,0.2524,0.2819,0.3488,0.5287,0.7087,0.8845,1.0679,1.2312,1.3403,1.3403,1.3403,1.3403,1.3403,1.3403,1.3403,1.3403,1.3403,1.3451,1.3545,1.3578,1.3736,1.4,1.4098,1.4129,1.4265,1.4292,1.4299,1.4299,1.4299,1.4299,1.4299,1.4299,1.4299,1.4299,1.4299,1.4299,1.4299,1.4299,1.4299,0.0,0.0,0.0,0.0,0.0,0.0,0.0,0.0,0.0,0.0,0.0,0.0,0.0,0.0,0.0,0.0,0.0,0.0,0.0,0.0,0.0,0.0,0.0,0.0,0.0,0.0,0.0,0.0,0.0,0.0,0.0,0.0,0.0,0.0,0.0,0.0,0.0,0.0,0.0,0.0,0.0,0.0,0.0,0.0,0.0,0.0,0.0,0.0,0.0,0.0,0.0,0.0,0.0,0.0,0.0,0.0,0.0,0.0,0.0,0.0,0.0042,0.0337,0.0421,0.0505,0.0926,0.1052,0.1094,0.1262,0.1514,0.1766,0.1934,0.2188,0.244,0.265,0.2692,0.3195,0.4994,0.6752,0.8553,1.0346,1.2146,1.3403,1.3403,1.3403,1.3403,1.3403,1.3403,1.3431,1.3519,1.3532,1.3587,1.3693,1.3831,1.3939,1.4105,1.415,1.4231,1.4299,1.4299,1.4299,1.4299,1.4299,1.4299,1.4299,1.4299,1.4299,1.4299,1.4299,1.4299,1.4299,1.4299,1.4299,0.0,0.0,0.0,0.0,0.0,0.0,0.0,0.0,0.0,0.0,0.0,0.0,0.0,0.0,0.0,0.0,0.0,0.0,0.0,0.0,0.0,0.0,0.0,0.0,0.0,0.0,0.0,0.0,0.0,0.0,0.0,0.0,0.0,0.0,0.0,0.0,0.0,0.0,0.0,0.0,0.0,0.0,0.0,0.0,0.0,0.0,0.0,0.0,0.0,0.0,0.0,0.0,0.0,0.0084,0.0168,0.0042,0.0084,0.021,0.021,0.0253,0.0421,0.0758,0.0884,0.0926,0.1346,0.1472,0.1514,0.164,0.1934,0.2188,0.2188,0.244,0.2692,0.2692,0.2692,0.3069,0.4367,0.6417,0.8386,0.9721,1.1813,1.3417,1.3458,1.3431,1.3417,1.3458,1.3464,1.3519,1.3626,1.3646,1.37,1.3892,1.4007,1.4089,1.4129,1.4238,1.4299,1.4299,1.4299,1.4299,1.4299,1.4299,1.4299,1.4299,1.4299,1.4299,1.4299,1.4299,1.4299,1.4299,1.4299,1.4299,0.0,0.0,0.0,0.0,0.0,0.0,0.0,0.0,0.0,0.0,0.0,0.0,0.0,0.0,0.0,0.0,0.0,0.0,0.0,0.0,0.0,0.0,0.0,0.0,0.0,0.0,0.0,0.0,0.0,0.0,0.0,0.0,0.0,0.0,0.0,0.0,0.0,0.0,0.0,0.0,0.0,0.0,0.0,0.0,0.0,0.0,0.0,0.0,0.0,0.0,0.0,0.0,0.0,0.0295,0.0631,0.0168,0.0295,0.0674,0.0674,0.0926,0.1262,0.1262,0.1262,0.1388,0.185,0.1976,0.2061,0.2524,0.265,0.2692,0.2692,0.2692,0.2692,0.2692,0.2692,0.2734,0.2777,0.5541,0.801,0.8094,1.0976,1.3451,1.3551,1.3498,1.3451,1.3558,1.3578,1.3632,1.3774,1.3788,1.3849,1.4048,1.4112,1.4129,1.4278,1.4299,1.4299,1.4299,1.4299,1.4299,1.4299,1.4299,1.4299,1.4299,1.4299,1.4299,1.4299,1.4299,1.4299,1.4299,1.4299,1.4299,0.0,0.0,0.0,0.0,0.0,0.0,0.0,0.0,0.0,0.0,0.0,0.0,0.0,0.0,0.0,0.0,0.0,0.0,0.0,0.0,0.0,0.0,0.0,0.0,0.0,0.0,0.0,0.0,0.0,0.0,0.0,0.0,0.0,0.0,0.0,0.0,0.0,0.0,0.0,0.0,0.0,0.0,0.0,0.0,0.0,0.0,0.0,0.0,0.0,0.0,0.0168,0.0463,0.0463,0.0716,0.1052,0.0631,0.0716,0.1094,0.1094,0.1178,0.1346,0.1682,0.1766,0.185,0.2314,0.2482,0.2482,0.265,0.2692,0.2692,0.2692,0.2692,0.2692,0.2692,0.2692,0.2692,0.2692,0.5614,0.8218,0.8218,1.1154,1.3666,1.3714,1.3687,1.3666,1.372,1.3727,1.3781,1.3973,1.3994,1.4055,1.4204,1.4224,1.4245,1.4292,1.4299,1.4299,1.4299,1.4299,1.4299,1.4299,1.4299,1.4299,1.4299,1.4299,1.4299,1.4299,1.4299,1.4299,1.4299,1.4299,1.4299,0.0,0.0,0.0,0.0,0.0,0.0,0.0,0.0,0.0,0.0,0.0,0.0,0.0,0.0,0.0,0.0,0.0,0.0,0.0,0.0,0.0,0.0,0.0,0.0,0.0,0.0,0.0,0.0,0.0,0.0,0.0,0.0,0.0,0.0,0.0,0.0,0.0,0.0,0.0,0.0,0.0,0.0,0.0,0.0,0.0,0.0,0.0,0.0084,0.0253,0.0253,0.0505,0.0926,0.0926,0.1178,0.1514,0.1052,0.1178,0.1556,0.1724,0.1808,0.185,0.2146,0.223,0.2314,0.2608,0.2692,0.2695,0.2706,0.2701,0.2695,0.2706,0.2701,0.2692,0.2692,0.2701,0.2709,0.2709,0.5662,0.8313,0.8313,1.1276,1.3815,1.3869,1.3926,1.3926,1.3926,1.3926,1.398,1.4136,1.415,1.419,1.4292,1.4299,1.4299,1.4299,1.4299,1.4299,1.4299,1.4299,1.4299,1.4299,1.4299,1.4346,1.4455,1.4353,1.4353,1.4455,1.4353,1.4299,1.4299,1.4299,1.4299]},{"header":{"parameterUnit":"m.s-1","parameterCategory":1,"la1":30.6,"la2":29.2853,"lo1":-89.7004,"lo2":-87.6739,"dy":0.0162,"dx":0.0183,"nx":112,"ny":82,"refTime":"2023-09-28T18:00:00:Z","depth":0,"parameterNumber":3,"parameterNumberName":"V-component_of_WINDS"},"data":[0.0,0.0,0.0,0.0,0.0,0.0,0.0,0.0,0.0,0.0,0.0,0.0,0.0,0.0,0.0,0.0,0.0,0.0,0.0,0.0,0.0,0.0,0.0,0.0,0.0,0.0,0.0,0.0,0.0,0.0,0.0,0.0,0.0,0.0,0.0,0.0,0.0,0.0,0.0,0.0,0.0,0.0,0.0,0.0,0.0,0.0,0.0,0.0,0.0,0.0,0.0,0.0,0.0,0.0,0.0,0.0,0.0,0.0,0.0,0.0,0.0,0.0,0.0,0.0,0.0,0.0,0.0,0.0,0.0,0.0,0.0,0.0,0.0,0.0,0.0,0.0,0.0,0.0,0.0,0.0,0.0,0.0,0.0,0.0,0.0,0.0,0.0,0.0,0.0,0.0,4.5047,4.5898,4.6663,4.7351,4.8043,4.8082,4.8058,4.7991,0.0,0.0,0.0,0.0,0.0,0.0,0.0,0.0,0.0,0.0,0.0,0.0,0.0,0.0,0.0,0.0,0.0,0.0,0.0,0.0,0.0,0.0,0.0,0.0,0.0,0.0,0.0,0.0,0.0,0.0,0.0,0.0,0.0,0.0,0.0,0.0,0.0,0.0,0.0,0.0,0.0,0.0,0.0,0.0,0.0,0.0,0.0,0.0,0.0,0.0,0.0,0.0,0.0,0.0,0.0,0.0,0.0,0.0,0.0,0.0,0.0,0.0,0.0,0.0,0.0,0.0,0.0,0.0,0.0,0.0,0.0,0.0,0.0,0.0,0.0,0.0,0.0,0.0,0.0,0.0,0.0,0.0,0.0,0.0,0.0,0.0,0.0,0.0,0.0,0.0,0.0,0.0,0.0,0.0,0.0,0.0,0.0,0.0,0.0,0.0,0.0,0.0,0.0,0.0,4.6812,4.7625,4.7851,4.7966,4.8082,4.8082,4.7893,4.7452,0.0,0.0,0.0,0.0,0.0,0.0,0.0,0.0,0.0,0.0,0.0,0.0,0.0,0.0,0.0,0.0,0.0,0.0,0.0,0.0,0.0,0.0,0.0,0.0,0.0,0.0,0.0,0.0,0.0,0.0,0.0,0.0,0.0,0.0,0.0,0.0,0.0,0.0,0.0,0.0,0.0,0.0,0.0,0.0,0.0,0.0,0.0,0.0,0.0,0.0,0.0,0.0,0.0,0.0,0.0,0.0,0.0,0.0,0.0,0.0,0.0,0.0,0.0,0.0,0.0,0.0,0.0,0.0,0.0,0.0,0.0,0.0,0.0,0.0,0.0,0.0,0.0,0.0,0.0,0.0,0.0,0.0,0.0,0.0,0.0,0.0,0.0,0.0,0.0,0.0,0.0,0.0,0.0,0.0,0.0,0.0,0.0,0.0,0.0,0.0,0.0,0.0,0.0,4.6945,4.7726,4.8688,4.8817,4.9009,4.9471,4.951,4.9342,4.8913,4.91,0.0,0.0,0.0,0.0,0.0,0.0,0.0,0.0,0.0,0.0,0.0,0.0,0.0,0.0,0.0,0.0,0.0,0.0,0.0,0.0,0.0,0.0,0.0,0.0,0.0,0.0,0.0,0.0,0.0,0.0,0.0,0.0,0.0,0.0,0.0,0.0,0.0,0.0,0.0,0.0,0.0,0.0,0.0,0.0,0.0,0.0,0.0,0.0,0.0,0.0,0.0,0.0,0.0,0.0,0.0,0.0,0.0,0.0,0.0,0.0,0.0,0.0,0.0,0.0,0.0,0.0,0.0,0.0,0.0,0.0,0.0,0.0,0.0,0.0,0.0,0.0,0.0,0.0,0.0,0.0,0.0,0.0,0.0,0.0,0.0,0.0,0.0,0.0,0.0,0.0,0.0,0.0,0.0,0.0,0.0,0.0,0.0,0.0,0.0,0.0,0.0,0.0,4.8179,4.8519,4.9572,4.9707,4.9976,5.063,5.0707,5.063,5.0396,5.0226,0.0,0.0,0.0,0.0,0.0,0.0,0.0,0.0,0.0,0.0,0.0,0.0,0.0,0.0,0.0,0.0,0.0,0.0,0.0,0.0,0.0,0.0,0.0,0.0,0.0,0.0,0.0,0.0,0.0,0.0,0.0,0.0,0.0,0.0,0.0,0.0,0.0,0.0,0.0,0.0,0.0,0.0,0.0,0.0,0.0,0.0,0.0,0.0,0.0,0.0,0.0,0.0,0.0,0.0,0.0,0.0,0.0,0.0,0.0,0.0,0.0,0.0,0.0,0.0,0.0,0.0,0.0,0.0,0.0,0.0,0.0,0.0,0.0,0.0,0.0,0.0,0.0,0.0,0.0,0.0,0.0,0.0,0.0,0.0,0.0,0.0,0.0,0.0,0.0,0.0,0.0,0.0,0.0,0.0,0.0,0.0,0.0,0.0,0.0,0.0,0.0,0.0,4.914,4.9611,5.0515,5.0592,5.063,5.0707,5.0707,5.0785,5.0913,5.0247,0.0,0.0,0.0,0.0,0.0,0.0,0.0,0.0,0.0,0.0,0.0,0.0,0.0,0.0,0.0,0.0,0.0,0.0,0.0,0.0,0.0,0.0,0.0,0.0,0.0,0.0,0.0,0.0,0.0,0.0,0.0,0.0,0.0,0.0,0.0,0.0,0.0,0.0,0.0,0.0,0.0,0.0,0.0,0.0,0.0,0.0,0.0,0.0,0.0,0.0,0.0,0.0,0.0,0.0,0.0,0.0,0.0,0.0,0.0,0.0,0.0,0.0,0.0,0.0,0.0,0.0,0.0,0.0,0.0,0.0,0.0,0.0,0.0,0.0,0.0,0.0,0.0,0.0,0.0,0.0,0.0,0.0,0.0,0.0,0.0,0.0,0.0,0.0,0.0,0.0,0.0,0.0,0.0,0.0,0.0,0.0,0.0,0.0,0.0,0.0,0.0,0.0,5.0784,5.1091,5.2149,5.2241,5.2241,5.2241,5.2067,5.1908,5.1833,0.0,0.0,0.0,0.0,0.0,0.0,0.0,0.0,0.0,0.0,0.0,0.0,0.0,0.0,0.0,0.0,0.0,0.0,0.0,0.0,0.0,0.0,0.0,0.0,0.0,0.0,0.0,0.0,0.0,0.0,0.0,0.0,0.0,0.0,0.0,0.0,0.0,0.0,0.0,0.0,0.0,0.0,0.0,0.0,0.0,0.0,0.0,0.0,0.0,0.0,0.0,0.0,0.0,0.0,0.0,0.0,0.0,0.0,0.0,0.0,0.0,0.0,0.0,0.0,0.0,0.0,0.0,0.0,0.0,0.0,0.0,0.0,0.0,0.0,0.0,0.0,0.0,0.0,0.0,0.0,0.0,0.0,0.0,0.0,0.0,0.0,0.0,0.0,0.0,0.0,0.0,0.0,0.0,0.0,0.0,0.0,0.0,0.0,0.0,0.0,0.0,0.0,5.2069,5.2132,5.2341,5.3105,5.3197,5.3197,5.3197,5.2971,5.2812,5.2675,0.0,0.0,0.0,0.0,0.0,0.0,0.0,0.0,0.0,0.0,0.0,0.0,0.0,0.0,0.0,0.0,0.0,0.0,0.0,0.0,0.0,0.0,0.0,0.0,0.0,0.0,0.0,0.0,0.0,0.0,0.0,0.0,0.0,0.0,0.0,0.0,0.0,0.0,0.0,0.0,0.0,0.0,0.0,0.0,0.0,0.0,0.0,0.0,0.0,0.0,0.0,0.0,0.0,0.0,0.0,0.0,0.0,0.0,0.0,0.0,0.0,0.0,0.0,0.0,0.0,0.0,0.0,0.0,0.0,0.0,0.0,0.0,0.0,0.0,0.0,0.0,0.0,0.0,0.0,0.0,0.0,0.0,0.0,0.0,0.0,0.0,0.0,0.0,0.0,0.0,0.0,0.0,0.0,0.0,0.0,0.0,0.0,0.0,0.0,0.0,0.0,0.0,5.2756,5.3031,5.3236,5.3236,5.3236,5.3236,5.3236,5.3231,5.3298,0.0,0.0,0.0,0.0,0.0,0.0,0.0,0.0,0.0,0.0,0.0,0.0,0.0,0.0,0.0,0.0,0.0,0.0,0.0,0.0,0.0,0.0,0.0,0.0,0.0,0.0,0.0,0.0,0.0,0.0,0.0,0.0,0.0,0.0,0.0,0.0,0.0,0.0,0.0,0.0,0.0,0.0,0.0,0.0,0.0,0.0,0.0,0.0,0.0,0.0,0.0,0.0,0.0,0.0,0.0,0.0,0.0,0.0,0.0,0.0,0.0,0.0,0.0,0.0,0.0,0.0,0.0,0.0,0.0,0.0,0.0,0.0,0.0,0.0,0.0,0.0,0.0,0.0,0.0,0.0,0.0,0.0,0.0,0.0,0.0,0.0,0.0,0.0,0.0,0.0,0.0,0.0,0.0,0.0,0.0,0.0,0.0,0.0,0.0,0.0,0.0,0.0,0.0,5.3902,5.4072,5.4318,5.4895,5.4972,5.4972,5.4972,5.4568,5.4341,5.4427,0.0,0.0,0.0,0.0,0.0,0.0,0.0,0.0,0.0,0.0,0.0,0.0,0.0,0.0,0.0,0.0,0.0,0.0,0.0,0.0,0.0,0.0,0.0,0.0,0.0,0.0,0.0,0.0,0.0,0.0,0.0,0.0,0.0,0.0,0.0,0.0,0.0,0.0,0.0,0.0,0.0,0.0,0.0,0.0,0.0,0.0,0.0,0.0,0.0,0.0,0.0,0.0,0.0,0.0,0.0,0.0,0.0,0.0,0.0,0.0,0.0,0.0,0.0,0.0,0.0,0.0,0.0,0.0,0.0,0.0,0.0,0.0,0.0,0.0,0.0,0.0,0.0,0.0,0.0,0.0,0.0,0.0,0.0,0.0,0.0,0.0,0.0,0.0,0.0,0.0,0.0,0.0,0.0,0.0,0.0,0.0,0.0,0.0,0.0,0.0,0.0,0.0,5.5371,5.5509,5.5845,5.667,5.6742,5.6742,5.6742,5.639,5.6099,5.5799,0.0,0.0,0.0,0.0,0.0,0.0,0.0,0.0,0.0,0.0,0.0,0.0,0.0,0.0,0.0,0.0,0.0,0.0,0.0,0.0,0.0,0.0,0.0,0.0,0.0,0.0,0.0,0.0,0.0,0.0,0.0,0.0,0.0,0.0,0.0,0.0,0.0,0.0,0.0,0.0,0.0,0.0,0.0,0.0,0.0,0.0,0.0,0.0,0.0,0.0,0.0,0.0,0.0,0.0,0.0,0.0,0.0,0.0,0.0,0.0,0.0,0.0,0.0,0.0,0.0,0.0,0.0,0.0,0.0,0.0,0.0,0.0,0.0,0.0,0.0,0.0,0.0,0.0,0.0,0.0,0.0,0.0,0.0,0.0,0.0,0.0,0.0,0.0,0.0,0.0,0.0,0.0,0.0,0.0,0.0,0.0,0.0,0.0,0.0,0.0,0.0,0.0,5.6933,5.718,5.7494,5.8215,5.8319,5.8313,5.8313,5.8258,5.801,5.7393,0.0,0.0,0.0,0.0,0.0,0.0,0.0,0.0,0.0,0.0,0.0,0.0,0.0,0.0,0.0,0.0,0.0,0.0,0.0,0.0,0.0,0.0,0.0,0.0,0.0,0.0,0.0,0.0,0.0,0.0,0.0,0.0,0.0,0.0,0.0,0.0,0.0,0.0,0.0,0.0,0.0,0.0,0.0,0.0,0.0,0.0,0.0,0.0,0.0,0.0,0.0,0.0,0.0,0.0,0.0,0.0,0.0,0.0,0.0,0.0,3.9127,3.8375,0.0,0.0,0.0,0.0,0.0,0.0,0.0,0.0,0.0,0.0,0.0,0.0,0.0,0.0,0.0,0.0,0.0,0.0,0.0,0.0,0.0,0.0,0.0,0.0,0.0,0.0,0.0,0.0,0.0,0.0,0.0,0.0,0.0,0.0,0.0,0.0,0.0,0.0,0.0,0.0,5.7988,5.8021,5.8098,5.828,5.8308,5.8313,5.8313,5.8066,5.7863,5.7704,5.7183,0.0,0.0,0.0,0.0,0.0,0.0,0.0,0.0,0.0,0.0,0.0,0.0,0.0,0.0,0.0,0.0,0.0,0.0,0.0,0.0,0.0,0.0,0.0,0.0,0.0,0.0,0.0,0.0,0.0,0.0,0.0,0.0,0.0,0.0,0.0,0.0,0.0,0.0,0.0,0.0,0.0,0.0,0.0,0.0,0.0,0.0,0.0,0.0,0.0,0.0,0.0,0.0,0.0,0.0,0.0,0.0,0.0,0.0,0.0,4.0714,4.0175,0.0,0.0,0.0,0.0,0.0,0.0,0.0,0.0,0.0,0.0,0.0,0.0,0.0,0.0,0.0,0.0,0.0,0.0,0.0,0.0,0.0,0.0,0.0,0.0,0.0,0.0,0.0,0.0,0.0,0.0,0.0,0.0,0.0,0.0,0.0,0.0,0.0,0.0,0.0,0.0,5.8932,5.8955,5.9132,5.9491,5.9513,5.9511,5.9511,5.9323,5.9153,5.9015,5.8669,0.0,0.0,0.0,0.0,0.0,0.0,0.0,0.0,0.0,0.0,0.0,0.0,0.0,0.0,0.0,0.0,0.0,0.0,0.0,0.0,0.0,0.0,0.0,0.0,0.0,0.0,0.0,0.0,0.0,0.0,0.0,0.0,0.0,0.0,0.0,0.0,0.0,0.0,0.0,0.0,0.0,0.0,0.0,0.0,0.0,0.0,0.0,0.0,0.0,0.0,0.0,0.0,0.0,4.2498,4.2649,4.2769,4.2769,4.2987,4.3293,4.2867,4.2492,4.2227,4.1982,0.0,0.0,0.0,0.0,0.0,0.0,0.0,0.0,0.0,0.0,0.0,0.0,0.0,0.0,0.0,0.0,0.0,0.0,0.0,0.0,0.0,0.0,5.3292,5.3276,5.3726,5.4033,5.3634,0.0,0.0,0.0,0.0,0.0,0.0,0.0,0.0,0.0,0.0,0.0,5.9837,5.9922,6.0166,6.085,6.0866,6.0787,6.0787,6.0787,6.0691,6.039,6.0328,6.0,0.0,0.0,0.0,0.0,0.0,0.0,0.0,0.0,0.0,0.0,0.0,0.0,0.0,0.0,0.0,0.0,0.0,0.0,0.0,0.0,0.0,0.0,0.0,0.0,0.0,0.0,0.0,0.0,0.0,0.0,0.0,0.0,4.0,4.0115,0.0,0.0,0.0,0.0,0.0,0.0,0.0,0.0,0.0,0.0,0.0,0.0,0.0,4.2664,4.2754,4.3436,4.3764,4.3737,4.4511,4.5235,4.5922,4.5922,4.6325,4.6982,4.6935,0.0,4.3215,4.3353,0.0,0.0,0.0,0.0,0.0,0.0,0.0,0.0,0.0,0.0,0.0,0.0,0.0,0.0,0.0,0.0,0.0,0.0,0.0,0.0,0.0,0.0,5.555,5.5555,5.6741,5.7876,5.7795,5.6541,5.5833,5.7291,5.7931,5.8233,0.0,0.0,0.0,0.0,0.0,0.0,6.0809,6.083,6.0871,6.0981,6.0888,6.0787,6.0787,6.0787,6.0769,6.0734,6.0475,6.0143,5.976,5.9388,0.0,0.0,0.0,0.0,0.0,0.0,0.0,0.0,0.0,0.0,0.0,0.0,0.0,0.0,0.0,0.0,0.0,0.0,0.0,0.0,0.0,0.0,0.0,0.0,0.0,0.0,0.0,0.0,0.0,4.0306,4.0458,4.0922,4.096,4.1189,0.0,0.0,0.0,0.0,0.0,0.0,0.0,0.0,0.0,4.4857,4.4895,4.5119,4.5616,4.596,4.6146,4.6146,4.6533,4.6877,4.7221,4.7221,4.7433,4.7787,4.8175,4.7927,4.7081,4.6183,4.595,4.613,0.0,0.0,0.0,0.0,4.7611,4.7801,4.9083,4.9538,4.9634,5.019,0.0,0.0,0.0,0.0,0.0,0.0,0.0,5.5367,5.6044,5.6763,5.7304,5.7425,5.8028,5.8724,5.9227,5.8678,5.8172,5.8438,5.8954,5.9343,5.9343,6.0035,0.0,0.0,0.0,6.1109,6.1051,6.101,6.0992,6.0992,6.0894,6.0787,6.0787,6.0787,6.0787,6.0787,6.0679,6.041,6.0106,5.9915,5.9534,0.0,0.0,0.0,0.0,0.0,0.0,0.0,0.0,0.0,0.0,0.0,0.0,0.0,0.0,0.0,0.0,0.0,0.0,0.0,0.0,0.0,0.0,0.0,0.0,0.0,0.0,0.0,0.0,4.0884,4.1255,4.1818,4.1886,4.223,0.0,0.0,0.0,0.0,0.0,0.0,4.5069,4.5108,4.5683,4.691,4.6927,4.7317,4.8192,4.8389,4.8592,4.8787,4.9045,4.9122,4.9093,4.9093,4.9093,4.9125,4.963,5.0215,5.0615,4.9081,4.8523,4.8666,4.8666,4.8666,4.8742,4.9393,4.9658,4.9841,5.1085,5.1544,5.174,5.2711,5.3372,5.3835,5.4164,0.0,0.0,0.0,0.0,5.7483,5.8365,5.8645,5.8741,5.889,5.9072,5.942,6.0074,6.019,6.0035,5.9382,5.9764,6.019,6.019,6.0692,0.0,6.1118,6.1118,6.1118,6.1118,6.1021,6.0992,6.0992,6.0894,6.0787,6.0787,6.0787,6.0787,6.0787,6.0787,6.0628,6.0307,6.0223,5.9876,5.9224,0.0,0.0,0.0,0.0,0.0,0.0,0.0,0.0,0.0,0.0,0.0,0.0,0.0,0.0,0.0,0.0,0.0,0.0,0.0,0.0,0.0,0.0,0.0,0.0,0.0,0.0,0.0,0.0,0.0,4.2913,4.2931,0.0,0.0,0.0,0.0,4.6658,4.6785,4.7168,4.8047,4.8086,4.8124,4.8198,4.8107,4.8428,4.9226,5.0058,5.0799,5.1423,5.2362,5.2735,5.2543,5.2543,5.2543,5.2537,5.2539,5.2514,5.241,5.142,5.1464,5.2146,5.2146,5.2146,5.2146,5.2184,5.2222,5.2222,5.2298,5.2444,5.2787,5.3646,5.5128,5.6742,5.7509,5.7895,0.0,0.0,5.8331,5.8513,5.8565,5.9223,5.9837,5.9841,6.0422,6.1002,6.1041,6.1041,6.1041,6.0963,6.1002,6.1041,6.1041,0.0,6.1118,6.1118,6.1118,6.1118,6.1118,6.1021,6.0992,6.0992,6.0894,6.0787,6.0787,6.0787,6.0787,6.0787,6.0787,6.0628,6.0307,5.9969,5.9622,5.9215,5.8895,0.0,0.0,0.0,0.0,0.0,0.0,0.0,0.0,0.0,0.0,0.0,0.0,0.0,0.0,0.0,0.0,0.0,0.0,0.0,0.0,0.0,0.0,0.0,0.0,0.0,0.0,0.0,0.0,4.4748,4.5251,0.0,4.6793,4.687,4.7124,4.7801,4.7844,4.8459,4.9845,4.9923,5.0426,5.1552,5.1531,5.1653,5.1958,5.2232,5.2507,5.2776,5.312,5.3544,5.402,5.402,5.4333,5.4878,5.5353,5.5505,5.545,5.5594,5.4428,5.262,5.2749,5.3116,5.3702,5.4186,5.4766,5.5314,5.5804,5.604,5.6165,5.6629,5.7324,5.7993,5.8302,5.8838,5.9341,5.9341,5.9766,6.0228,6.0228,6.0422,6.0654,6.0654,6.0886,6.1118,6.1118,6.1118,6.1118,6.1118,6.1118,6.1118,6.1118,6.1118,6.1118,6.1118,6.1118,6.1118,6.1118,6.1056,6.0995,6.0997,6.0922,6.0866,6.0787,6.0787,6.0787,6.0787,6.0787,6.0746,6.061,6.0514,6.0286,5.9923,5.9571,5.9299,0.0,0.0,0.0,0.0,0.0,0.0,0.0,0.0,0.0,0.0,0.0,0.0,0.0,0.0,0.0,0.0,0.0,0.0,0.0,0.0,0.0,0.0,0.0,0.0,0.0,4.5382,4.6144,4.6639,4.7178,4.7954,4.9113,4.923,4.9521,5.0147,5.0189,5.0652,5.1774,5.2124,5.2822,5.3987,5.4217,5.4501,5.4769,5.4773,5.4901,5.5113,5.5169,5.5479,5.5972,5.5972,5.6282,5.6863,5.7353,5.7501,5.7436,5.797,5.6758,5.4582,5.4641,5.5054,5.5602,5.6166,5.6703,5.7297,5.7887,5.8289,5.8554,5.8757,5.9109,5.9459,5.9459,5.9841,6.0306,6.0306,6.0692,6.1118,6.1118,6.1118,6.1118,6.1118,6.1118,6.1118,6.1118,6.135,6.1539,6.1539,6.1311,6.1118,6.1118,6.1118,6.1195,6.15,6.1539,6.166,6.193,6.1925,6.187,6.1846,6.1792,6.1736,6.1633,6.1627,6.1627,6.1627,6.1627,6.1627,6.1627,6.1543,6.137,6.1141,6.0798,6.0514,6.0261,0.0,0.0,0.0,0.0,0.0,0.0,0.0,0.0,0.0,0.0,0.0,0.0,0.0,0.0,0.0,0.0,0.0,0.0,0.0,0.0,0.0,0.0,0.0,4.7659,4.8321,4.8798,4.8627,4.8655,4.9315,5.1031,5.1186,5.1968,5.3805,5.3929,5.3968,5.4007,5.4825,5.5292,5.5331,5.5944,5.6702,5.7544,5.7557,5.7882,5.8536,5.8651,5.8644,5.8575,5.8575,5.8575,5.857,5.8522,5.8438,5.83,5.8438,5.8452,5.8368,5.8129,5.8026,5.8064,5.8064,5.8064,5.8127,5.833,5.8923,5.9688,5.9877,6.046,6.1118,6.1118,6.1118,6.1118,6.1118,6.1118,6.1118,6.1118,6.1118,6.1157,6.1157,6.1157,6.1195,6.1195,6.1848,6.2428,6.2428,6.1771,6.1195,6.1195,6.1195,6.1466,6.2312,6.2428,0.0,6.3598,6.3626,6.357,6.3505,6.3449,6.3353,6.332,6.3314,6.3314,6.3314,6.3314,6.3314,6.3314,6.2991,6.2799,6.2784,6.2465,6.2302,6.2286,0.0,0.0,0.0,0.0,0.0,0.0,0.0,0.0,0.0,0.0,0.0,0.0,0.0,0.0,0.0,0.0,0.0,0.0,0.0,0.0,0.0,5.019,5.0112,4.8631,4.9683,5.0572,5.0549,5.1637,5.2611,5.3078,5.3117,5.3593,5.4745,5.4825,5.537,5.658,5.6892,5.7282,5.7944,5.8118,5.8338,5.8608,5.8571,5.8673,5.8874,5.8904,5.9215,5.981,5.981,6.0161,6.0741,6.0683,6.0614,6.0538,6.0454,6.0376,6.0205,5.893,5.8838,5.9379,5.9379,5.9765,6.0272,6.0312,6.0476,6.0717,6.0756,6.0925,6.1118,6.1118,6.1118,6.1118,6.1118,6.1118,6.1118,6.1118,6.1577,6.2042,6.2042,6.2511,6.298,6.298,6.3173,6.3328,6.3328,6.3134,6.298,6.298,6.298,6.3057,6.3328,6.3328,6.3444,6.3676,6.3626,6.357,6.3505,6.3449,6.3353,6.332,6.3314,6.3314,6.3314,6.3314,6.3314,6.3314,6.3207,6.3039,6.2792,6.2711,6.2558,0.0,0.0,0.0,0.0,0.0,0.0,0.0,0.0,0.0,0.0,0.0,0.0,0.0,0.0,0.0,0.0,0.0,0.0,0.0,0.0,0.0,0.0,5.2058,5.2058,5.1086,5.1787,5.237,5.237,5.3617,5.4591,5.4944,5.5295,5.584,5.6736,5.6775,5.7204,5.818,5.8609,5.9038,5.9544,5.9895,6.009,6.009,6.009,6.009,6.009,6.009,6.036,6.0828,6.0828,6.1101,6.1607,6.1575,6.1475,6.1384,6.1337,6.1203,6.1002,0.0,0.0,0.0,0.0,6.0692,6.1118,6.1118,6.1118,6.1118,6.1118,6.1118,6.1118,6.1118,6.135,6.1655,6.1655,6.1892,6.2201,6.2201,6.2549,6.2936,6.2936,6.3328,6.3715,6.3715,6.3985,6.4256,6.4256,6.4527,0.0,6.4759,6.414,6.3831,6.4179,6.4256,6.4372,6.4682,6.4709,6.4607,6.4547,6.449,6.447,6.4403,6.4397,0.0,0.0,0.0,6.4397,6.4397,6.4397,0.0,0.0,0.0,6.4008,6.381,6.381,0.0,0.0,6.2767,6.236,0.0,0.0,0.0,0.0,0.0,0.0,0.0,0.0,0.0,0.0,0.0,0.0,0.0,0.0,0.0,0.0,5.4064,5.4186,5.4186,5.4342,5.4414,5.4203,5.5059,5.5918,5.67,5.744,5.8219,5.9077,5.9155,5.9194,5.9271,6.0012,0.0,0.0,0.0,6.1607,6.1607,6.1607,6.1607,6.1607,6.1607,6.1607,6.1607,6.1607,6.1607,6.1607,6.1602,6.1501,6.1384,6.1377,6.1279,6.1118,6.1118,6.1118,6.1118,6.1118,6.1118,6.1118,6.1118,0.0,0.0,6.1234,6.1311,6.1389,6.1389,6.193,6.2544,6.2544,6.3091,6.3715,6.3715,6.3753,6.3831,6.3831,6.3908,6.3985,6.3985,6.4604,6.5146,6.5146,6.5721,6.6224,6.634,6.503,6.4256,6.503,6.5146,6.5373,6.6098,6.62,6.6218,6.6156,6.6219,0.0,6.6173,6.6167,6.6167,6.6167,6.6167,6.6167,6.6167,6.6167,6.6167,6.6167,6.6167,6.6167,6.6167,6.6167,6.6167,6.6122,6.378,6.2902,0.0,0.0,0.0,0.0,0.0,0.0,0.0,0.0,0.0,0.0,0.0,0.0,0.0,0.0,0.0,5.3883,5.5082,5.5996,5.5996,5.7208,5.758,5.6168,5.7323,5.8336,5.8492,5.8648,5.9116,5.9973,6.0051,6.0363,6.1062,6.1257,6.1334,6.1334,6.149,6.1607,6.1607,6.1607,6.1607,6.1607,6.1607,0.0,6.1607,6.1607,6.1607,6.1605,6.152,6.146,6.1381,6.1275,6.1182,6.1118,6.1118,6.1118,6.1118,6.1118,6.1118,6.1118,6.1118,6.1539,6.2158,6.2158,6.2627,6.3212,6.3212,6.3328,0.0,6.3444,6.356,6.3715,6.3715,6.4217,6.4759,6.4759,6.5223,6.5721,6.5721,6.5837,6.5953,6.5953,6.6108,6.6417,6.7114,6.6417,6.576,6.5953,6.5953,6.6015,6.6123,6.6681,6.7043,6.6978,6.7564,6.7949,6.793,6.793,6.793,6.793,6.793,6.793,6.793,6.793,6.793,6.793,6.793,6.793,6.793,6.793,6.793,6.7853,6.6069,6.5588,0.0,0.0,0.0,0.0,0.0,0.0,0.0,0.0,0.0,0.0,0.0,5.4013,5.4481,0.0,5.5327,5.5797,5.6589,5.7297,5.7727,5.8938,5.9282,5.7963,5.8932,5.9711,5.9711,6.0061,6.0491,6.0918,6.0957,6.1153,6.1582,6.1597,6.1619,6.1619,6.1589,6.1607,6.1607,6.1607,6.1607,6.1607,6.2036,6.2231,6.227,6.2659,6.2854,6.2852,6.2824,6.2723,6.2655,6.2491,6.2441,6.2399,6.2399,6.2124,6.1732,6.1732,6.2046,6.2399,6.2399,6.2704,6.3052,6.3052,6.3366,6.3715,6.3715,6.3985,6.4334,6.4334,6.4643,6.4952,6.4952,6.5262,6.561,6.561,6.5915,6.6301,6.6766,6.6843,6.6998,6.7423,6.7501,6.7655,6.8076,6.781,6.7501,6.7501,6.7474,6.7453,6.7453,6.7695,6.7888,6.7888,6.818,6.8391,6.8391,6.8391,6.8391,6.8391,6.8391,6.8391,6.8391,6.8391,6.8391,6.8391,6.8391,6.8391,6.8391,6.8391,6.8391,6.8391,6.7545,6.7359,0.0,0.0,0.0,0.0,0.0,0.0,0.0,5.1829,5.2961,5.3156,5.425,5.5305,5.5656,5.6283,5.7027,5.7926,5.8201,5.8554,5.9257,6.0116,6.0389,5.9687,6.0191,6.0616,6.0616,6.1201,6.1591,6.1591,6.1591,6.1591,6.1591,6.1611,6.1594,6.1594,6.1753,6.1846,6.1846,6.2026,6.2098,6.2098,6.2783,6.3127,6.3166,6.3789,6.4099,6.4099,6.4078,6.4013,6.3895,6.376,6.3715,6.3715,6.3715,6.3366,6.2893,6.2704,6.3091,6.3715,6.3715,6.3792,6.3947,6.3947,6.4063,6.4179,6.4179,6.4682,6.5223,6.5223,6.5682,6.6224,6.6417,6.6456,6.6495,6.665,6.6727,6.6882,6.7617,6.7771,6.796,6.8656,6.881,6.8849,6.9009,6.9048,6.8965,6.881,6.8734,6.8718,6.8794,6.8776,6.8801,6.8838,6.8854,6.8891,6.8891,6.8891,6.8891,6.8891,6.8891,6.8891,6.8891,6.8891,6.8891,6.8891,6.8891,6.8891,6.8891,6.8891,6.8891,6.8891,6.8891,6.8814,4.8276,4.9133,4.9835,4.9913,5.1201,5.2412,0.0,5.3118,5.3978,5.4758,5.5071,5.5656,5.7219,5.7578,5.7929,5.8827,5.9598,6.013,6.0247,6.0989,6.1535,6.1418,6.1445,6.1475,6.1475,6.1552,6.1591,6.1591,6.1591,6.1591,6.1591,6.159,6.1588,6.1588,6.2369,6.2758,6.2758,6.3511,6.3919,6.3919,6.3939,6.3984,6.3984,6.4062,6.4099,6.4094,6.3988,6.3924,6.3895,6.376,6.3715,6.3715,6.3715,6.4101,6.4604,6.3831,6.3637,6.3715,6.3715,6.4217,6.4836,6.4836,6.5339,6.5915,6.5915,6.5992,6.6069,6.6069,6.6147,6.6379,6.7152,6.7346,6.7539,6.8346,6.8501,6.854,6.8617,6.8656,6.8694,6.8772,6.881,6.9048,6.9749,6.9865,6.9628,6.8926,6.8805,6.8789,6.8712,6.9328,6.9719,6.9669,7.0253,7.0629,7.0629,7.0629,7.0629,7.0629,7.0629,7.0629,7.0629,7.0629,7.0629,7.0629,7.0629,7.0629,7.0629,7.0629,7.0629,7.0629,7.0629,7.0244,4.9336,5.0195,5.0976,5.1484,5.2148,5.2812,5.3356,5.4096,5.4838,5.519,5.6049,5.6948,5.7651,5.8192,5.8849,5.9708,6.0167,6.0588,6.1094,6.1485,6.1719,6.1719,6.1664,6.1674,6.1674,6.1674,6.1674,6.1674,6.1674,6.1674,6.1674,6.2148,6.2422,6.2422,6.3238,6.3664,6.3664,6.4006,6.4196,6.4196,6.4687,6.4912,6.4912,6.5457,6.5652,6.5648,6.5483,6.5405,6.5388,6.5225,6.5146,6.5146,6.5146,6.5378,6.561,6.4759,6.4759,6.5146,6.5146,6.5378,6.5682,6.5682,6.5915,6.6301,6.6804,6.6959,6.7075,6.7578,6.7694,6.781,6.8153,6.8269,6.8346,6.8694,6.881,6.8926,6.9396,6.9512,6.9667,7.017,7.0247,7.0363,7.0717,7.0755,7.0639,7.0324,7.022,7.0192,7.017,7.0379,7.0517,7.0452,7.0726,7.0898,7.0898,7.0898,7.0898,7.0898,7.0898,7.0898,7.0898,7.0898,7.1129,7.1636,7.1668,7.1898,7.2392,7.2392,7.2392,7.2392,7.2392,7.2238,5.0303,5.1088,5.1908,5.2532,5.3079,5.3583,5.4191,5.5201,5.5982,5.5982,5.7153,5.8246,5.848,5.9026,5.9728,6.0627,6.0744,6.0978,6.1602,6.1719,6.1719,6.1719,6.1719,6.1719,6.1719,6.1719,6.1719,6.1719,6.1914,6.207,6.207,6.2873,6.3351,6.3351,6.4179,6.4609,6.4609,6.4803,6.4919,6.4919,6.5579,6.585,6.5889,6.6513,6.6786,6.6784,6.6621,6.6561,6.6548,6.638,6.6436,6.6617,6.6617,6.6738,6.6843,6.6263,6.6263,6.6572,6.6572,6.6727,6.692,6.692,6.692,6.7036,6.7655,6.7849,6.7998,6.8617,6.881,6.8849,6.9087,6.9125,6.9203,6.9435,6.9473,6.9667,7.0214,7.0368,7.0562,7.1181,7.1297,7.1297,7.1297,7.1485,7.1634,7.1617,7.1771,7.1748,7.1246,7.1286,7.1441,7.1598,7.1629,7.1629,7.1629,7.1629,7.1629,7.1629,7.1629,7.1629,7.1629,7.1629,7.1898,7.2552,7.2552,7.286,7.3507,7.3507,7.3507,7.3507,7.3507,7.3623,5.1337,5.2001,5.2666,5.2705,5.3954,5.5242,5.5241,5.6529,5.7739,5.7739,5.8441,5.9338,6.0159,6.0354,6.0666,6.1524,6.1641,6.168,6.1719,6.1719,6.1719,6.1719,6.1719,6.1719,6.1719,6.1719,6.1719,6.1719,6.2461,6.2969,6.2969,6.3791,6.4261,6.4261,6.5081,6.5548,6.5548,6.6318,6.6716,6.6716,6.6755,6.6747,6.6747,6.6786,6.6786,6.6785,6.6713,6.6691,6.6688,6.6617,6.7016,6.7658,6.7658,6.8096,6.8733,6.8694,6.8153,6.7462,6.7462,6.7998,6.8733,6.8733,6.8733,6.8733,6.8733,6.8772,6.8772,6.8772,6.881,6.8965,6.9749,6.9943,7.0175,7.1026,7.1214,7.1214,7.1258,7.1258,7.1258,7.1297,7.1297,7.1297,7.1297,7.1988,7.2545,7.2482,7.3172,7.31,7.14,7.1826,7.2558,7.3322,7.343,7.343,7.343,7.343,7.343,7.343,7.343,7.343,7.343,7.343,7.343,7.3469,7.3469,7.3469,7.3507,7.3507,7.3507,7.3507,7.3507,7.393,5.2114,5.2469,5.2976,5.4148,5.485,5.5592,5.6724,5.7388,5.7972,5.8558,5.9378,6.0041,6.0354,6.0861,6.1368,6.1641,6.1719,6.1719,6.1719,6.1719,6.1719,6.1719,6.1719,6.1914,6.25,6.2031,6.1953,6.254,6.2813,6.3243,6.3829,6.4687,6.5155,6.5155,6.5975,6.6406,6.6406,6.6652,6.6814,6.6814,6.6784,6.6787,6.6787,6.6787,6.6789,6.6832,6.7336,6.7552,6.7619,6.8087,6.8408,6.8634,6.8535,6.8648,6.8851,6.8829,6.897,6.9087,6.8545,6.854,6.881,6.881,6.881,6.8888,6.9435,6.9589,6.9705,7.0286,7.044,7.0518,7.0794,7.0871,7.0949,7.1219,7.1297,7.1297,7.1297,7.1297,7.1297,7.1297,7.1756,7.2142,7.2142,7.2843,7.3365,7.3247,7.3466,7.3466,7.2887,7.2956,7.3189,7.3469,7.3507,7.3507,7.3507,7.3507,7.3507,7.3507,7.3507,7.3507,7.3507,7.3507,7.3738,7.4276,7.4315,7.4584,7.5168,7.5168,7.5168,7.5168,7.5168,7.5284,5.2544,5.3133,5.3913,5.5006,5.5748,5.649,5.7544,5.8286,5.887,5.9456,6.0276,6.0861,6.0861,6.1328,6.1719,6.1719,6.1719,6.1719,6.1719,6.1719,6.1719,6.1719,6.1953,6.2383,6.2969,6.2774,6.2852,6.3438,6.375,6.4179,6.4727,6.5585,6.6014,6.6014,6.6523,6.6796,6.6796,6.6796,6.6952,6.7264,6.7577,6.7733,6.7733,6.7733,6.7739,6.7751,6.828,6.8513,6.8548,6.9059,6.941,6.961,6.954,6.9642,6.9837,6.9793,7.0049,7.0368,6.9512,6.9435,6.9705,6.9705,6.9705,6.9783,7.033,7.0446,7.0562,7.1142,7.1297,7.1297,7.1297,7.1297,7.1297,7.1297,7.1297,7.1374,7.1678,7.1756,7.1872,7.2181,7.2684,7.3065,7.3043,7.3662,7.4231,7.4447,7.4452,7.4354,7.4046,7.3966,7.4046,7.4353,7.4392,7.4392,7.4392,7.4392,7.4392,7.4392,7.4392,7.4392,7.4392,7.4392,7.463,7.5168,7.5168,7.5438,7.6015,7.6015,7.6015,7.6015,7.6015,7.6015,5.282,5.403,5.5319,5.5358,5.6607,5.7817,5.7856,5.9183,6.0393,6.0471,6.1133,6.1719,6.1719,6.1719,6.1719,6.1719,6.1719,6.1719,6.1719,6.1719,6.1719,6.1758,6.25,6.3047,6.3125,6.3868,6.4376,6.4415,6.5155,6.5624,6.5663,6.6406,6.6796,6.6796,6.6835,6.6874,6.6874,6.6913,6.7342,6.816,6.8981,6.9412,6.9412,6.9412,6.9419,6.9392,6.944,6.9486,6.9451,6.957,7.0032,7.0663,7.066,7.0993,7.1509,7.1497,7.142,7.1197,7.0346,7.0611,7.1297,7.1297,7.1297,7.1297,7.1297,7.1297,7.1297,7.1297,7.1297,7.1297,7.133,7.1374,7.1374,7.1407,7.1446,7.164,7.2491,7.2684,7.2916,7.3728,7.3916,7.3932,7.3912,7.4443,7.5159,7.5975,7.6027,7.5707,7.4853,7.4776,7.5084,7.5899,7.6015,7.6015,7.6015,7.6015,7.6015,7.6015,7.6015,7.6015,7.6015,7.6015,7.6015,7.6015,7.6015,7.6015,7.6015,7.6015,7.6015,7.6015,7.6015,7.6015,5.426,5.4967,5.5475,5.6098,5.7035,5.7972,5.8636,5.9612,6.0588,6.1211,6.1563,6.1719,6.1719,6.1719,6.1719,6.1719,6.1719,6.1719,6.1719,6.1719,6.1953,6.2579,6.2852,6.3516,6.4804,6.5155,6.5507,6.6133,6.5819,6.5858,6.6445,6.6679,6.6796,6.6796,6.742,6.7771,6.7771,6.8396,6.8865,6.9059,6.9295,6.9412,6.9412,6.9412,6.9385,6.944,7.0106,7.0386,7.0429,7.1094,7.1484,7.1637,7.1534,7.1577,7.1729,7.1689,7.1562,7.1413,7.118,7.1199,7.1297,7.1297,7.1297,7.1297,7.1297,7.1297,7.1297,7.1297,7.1297,7.1452,7.2104,7.2258,7.2413,7.3071,7.3226,7.3303,7.3535,7.3574,7.3612,7.3844,7.4346,7.4898,7.5439,7.5655,7.5838,7.6012,7.6029,7.5938,7.5707,7.5668,7.5745,7.5976,7.6015,7.6015,7.6015,7.6015,7.6015,7.6015,7.6015,7.6015,7.6015,7.6015,7.6015,7.6015,7.6015,7.6015,7.6015,7.6015,7.6015,7.6015,7.6015,7.6015,5.4925,5.5592,5.6059,5.6918,5.7738,5.8597,5.9456,6.0354,6.1094,6.1602,6.1719,6.1719,6.1719,6.1719,6.1719,6.1719,6.1719,6.1719,6.1719,6.2031,6.2461,6.293,6.3672,6.4531,6.5507,6.5936,6.6327,6.6757,6.6366,6.6327,6.6796,6.7146,6.7381,6.7381,6.82,6.8669,6.8669,6.9528,6.9957,6.9996,7.0348,7.0544,7.0544,7.0544,7.0557,7.0575,7.1044,7.1285,7.1328,7.1797,7.1992,7.1992,7.1907,7.1851,7.1788,7.1747,7.1664,7.158,7.1509,7.1684,7.1886,7.1445,7.1297,7.1297,7.1297,7.1562,7.1872,7.1872,7.2142,7.2568,7.3032,7.3187,7.3303,7.3767,7.3883,7.3999,7.4342,7.4419,7.4529,7.4893,7.5258,7.5646,7.6041,7.6069,7.6027,7.6022,7.6015,7.6015,7.6015,7.6015,7.6015,7.6015,7.6015,7.6015,7.6015,7.6015,7.6015,7.6015,7.6015,7.6015,7.6015,7.6015,7.6015,7.6015,7.6015,7.6015,7.6015,7.6015,7.6015,7.6015,7.6015,7.6015,5.5241,5.602,5.68,5.7582,5.8441,5.9338,6.0198,6.1055,6.1719,6.1719,6.1719,6.1719,6.1719,6.1719,6.1719,6.1719,6.1719,6.1758,6.1875,6.254,6.3086,6.3321,6.4687,6.5624,6.5741,6.6483,6.6952,6.6952,6.707,6.7109,6.6992,6.781,6.8318,6.8433,6.9176,6.9645,6.9724,7.0504,7.0854,7.0893,7.1636,7.1987,7.1987,7.1987,7.2002,7.2019,7.2019,7.1987,7.1992,7.1992,7.1992,7.1992,7.1992,7.1947,7.1842,7.1842,7.1842,7.1866,7.1754,7.226,7.2807,7.1792,7.1562,7.164,7.164,7.2181,7.2761,7.2761,7.3303,7.3922,7.4038,7.4071,7.4077,7.4193,7.4231,7.4425,7.5115,7.5264,7.5473,7.6146,7.6231,7.6159,7.609,7.6027,7.6015,7.6015,7.6015,7.6015,7.6015,7.6015,7.6015,7.6015,7.6015,7.6015,7.6015,7.6015,7.6015,7.6015,7.6015,7.6015,7.6015,7.6015,7.6015,7.6015,7.6015,7.6015,7.6015,7.6015,7.6015,7.6015,7.6015,7.6015,5.6138,5.6488,5.68,5.7582,5.8441,5.9338,6.0198,6.1055,6.1719,6.1719,6.1719,6.1719,6.1719,6.1719,6.1719,6.1719,6.1719,6.1953,6.2657,6.2891,6.3516,6.4999,6.5429,6.5858,6.6523,6.7381,6.7888,6.7888,6.8552,6.863,6.7927,6.8708,6.9489,7.0229,7.0385,7.0816,7.1558,7.1714,7.1753,7.1792,7.1948,7.1987,7.1987,7.1987,7.2002,7.2019,7.2019,7.1987,7.1992,7.1992,7.1992,7.1992,7.1992,7.1992,7.1952,7.1952,7.2328,7.2869,7.2818,7.3286,7.3709,7.2688,7.2877,7.3458,7.3458,7.3535,7.369,7.369,7.3767,7.4032,7.4728,7.4883,7.5076,7.5784,7.5978,7.6016,7.6127,7.6124,7.6101,7.6186,7.6159,7.609,7.6012,7.6022,7.6015,7.6015,7.6015,7.6015,7.6015,7.6015,7.6015,7.6015,7.6015,7.6015,7.6015,7.6015,7.6015,7.6015,7.6015,7.6015,7.6015,7.6015,7.6015,7.6015,7.6015,7.6015,7.6015,7.6015,7.6015,7.6015,7.6015,7.6015,5.6372,5.6918,5.7426,5.8285,5.9143,6.0002,6.086,6.1407,6.1719,6.1719,6.1719,6.1719,6.1719,6.1719,6.1836,6.2304,6.2383,6.2696,6.3556,6.4062,6.4648,6.5507,6.5975,6.6366,6.6757,6.7576,6.8082,6.8082,6.9333,6.9684,6.8825,6.9606,7.0465,7.1363,7.1363,7.1597,7.1987,7.1987,7.1987,7.1987,7.1987,7.1987,7.1987,7.1987,7.2002,7.2019,7.2019,7.1987,7.1992,7.1992,7.1992,7.2031,7.25,7.2695,7.2734,7.3203,7.3592,7.3855,7.3795,7.4285,7.4836,7.42,7.3943,7.3883,7.3883,7.4187,7.4535,7.4535,7.485,7.5276,7.5662,7.5779,7.5895,7.6287,7.6403,7.6403,7.6403,7.635,7.6282,7.6205,7.6145,7.6069,7.6029,7.6015,7.6015,7.6015,7.6015,7.6015,7.6015,7.6015,7.6015,7.6015,7.6015,7.6015,7.6015,7.6015,7.6015,7.6015,7.6015,7.6015,7.6015,7.6015,7.6015,7.6015,7.6015,7.6015,7.6015,7.6015,7.6015,7.6015,7.6015,7.6015,5.641,5.7192,5.8011,5.8869,5.9768,6.0627,6.1485,6.1671,6.1666,6.1677,6.1671,6.1666,6.1677,6.1719,6.1992,6.2852,6.3008,6.336,6.4415,6.5155,6.5663,6.5858,6.6406,6.6874,6.707,6.7888,6.8474,6.8629,7.0112,7.0699,6.9998,7.0621,7.1285,7.1987,7.1987,7.1987,7.1987,7.1987,7.1987,7.1987,7.1987,7.1987,7.1987,7.1987,7.2002,7.2019,7.2019,7.2105,7.2265,7.2265,7.2383,7.2617,7.332,7.3594,7.3672,7.4336,7.4726,7.4843,7.475,7.5277,7.595,7.5749,7.5141,7.4453,7.4442,7.4889,7.5386,7.5386,7.5856,7.6403,7.6403,7.6403,7.6403,7.6403,7.6403,7.6397,7.6386,7.6326,7.6257,7.6185,7.6118,7.6048,7.6022,7.6015,7.6015,7.6015,7.6015,7.6015,7.6015,7.6015,7.6015,7.6015,7.6015,7.6015,7.6015,7.6015,7.6015,7.6015,7.6015,7.6015,7.6015,7.6015,7.6015,7.6015,7.6015,7.6015,7.6015,7.6015,7.6015,7.6015,7.6015,7.6015,5.6566,5.7192,5.8011,5.8869,5.9768,6.0627,6.1485,6.1597,6.1567,6.167,6.1595,6.1567,6.1671,6.1719,6.1992,6.2852,6.3008,6.3594,6.5234,6.5546,6.5858,6.6601,6.6757,6.7109,6.7888,6.8786,6.9606,7.0385,7.1324,7.1831,7.1753,7.1831,7.1909,7.1987,7.1987,7.1987,7.1987,7.1987,7.1987,7.1987,7.1987,7.1987,7.1987,7.1987,7.2002,7.2019,7.2019,7.2456,7.3164,7.3164,7.3633,7.4375,7.4453,7.4492,7.4492,7.457,7.5117,7.5781,7.5781,7.6238,7.6864,7.6853,7.6637,7.6312,7.6195,7.621,7.6287,7.6287,7.6326,7.6403,7.6403,7.6403,7.6403,7.6403,7.6403,7.6386,7.6326,7.6257,7.6185,7.6118,7.6041,7.6022,7.6015,7.6015,7.6015,7.6015,7.6015,7.6015,7.6015,7.6015,7.6015,7.6015,7.6015,7.6015,7.6015,7.6015,7.6015,7.6015,7.6015,7.6015,7.6015,7.6015,7.6015,7.6015,7.6015,7.6015,7.6015,7.6015,7.6015,7.6015,7.6015,7.6015,5.6605,5.7581,5.8674,5.9025,6.0093,6.1153,6.1504,6.1432,6.1384,6.1526,6.1556,6.1558,6.167,6.1719,6.2148,6.3556,6.379,6.4376,6.6092,6.6327,6.6445,6.6757,6.6796,6.7148,6.8005,6.8903,6.9996,7.1363,7.1792,7.1987,7.1987,7.1987,7.1987,7.1987,7.1987,7.1987,7.1987,7.1987,7.1987,7.1987,7.1987,7.1987,7.2028,7.2543,7.2789,7.2801,7.3352,7.3748,7.4062,7.4062,7.4297,7.4648,7.5195,7.539,7.5469,7.5976,7.6367,7.668,7.668,7.6873,7.7099,7.7034,7.6942,7.6804,7.6587,7.6526,7.6501,7.6405,7.6403,7.6403,7.6403,7.6403,7.6403,7.6403,7.6403,7.6386,7.6313,7.6244,7.6172,7.6111,7.6034,7.6015,7.6015,7.6015,7.6015,7.6015,7.6015,7.6015,7.6015,7.6015,7.6015,7.6015,7.6015,7.6015,7.6015,7.6015,7.6015,7.6015,7.6015,7.6015,7.6015,7.6015,7.6015,7.6015,7.6015,7.6015,7.6015,7.6015,7.6015,7.6015,7.6015,7.6015,5.6857,5.7945,5.9072,5.9324,6.0404,6.1404,6.1404,6.1266,6.1215,6.1463,6.1466,6.1486,6.1667,6.1719,6.2265,6.4025,6.4298,6.4883,6.6562,6.6796,6.6796,6.6796,6.6796,6.7226,6.8357,6.9528,7.066,7.1909,7.1987,7.1987,7.1987,7.1987,7.1987,7.1987,7.1987,7.1987,7.1987,7.1987,7.2143,7.2378,7.2378,7.2495,7.2769,7.3408,7.3691,7.3739,7.4331,7.4765,7.4961,7.4961,7.5156,7.543,7.6055,7.6289,7.6367,7.6953,7.7187,7.7187,7.7187,7.7187,7.7187,7.7095,7.7047,7.703,7.679,7.665,7.6564,7.6433,7.6403,7.6403,7.6403,7.6403,7.6403,7.6403,7.6403,7.638,7.6288,7.6231,7.6165,7.6076,7.602,7.6015,7.6015,7.6015,7.6015,7.6015,7.6015,7.6015,7.6015,7.6015,7.6015,7.6015,7.6015,7.6015,7.6015,7.6015,7.6015,7.6015,7.6015,7.6015,7.6015,7.6015,7.6015,7.6015,7.6015,7.6015,7.6015,7.6015,7.6015,7.6015,7.6015,7.6015,5.7414,5.8249,5.9085,5.9818,6.0604,6.1193,6.1193,6.1103,6.1109,6.1445,6.1325,6.1313,6.1658,6.1719,6.2265,6.4025,6.4298,6.4883,6.6562,6.6796,6.6796,6.6796,6.6796,6.7499,6.9217,7.0972,7.1987,7.1987,7.1987,7.1987,7.1987,7.1987,7.1987,7.1987,7.1987,7.1987,7.1987,7.1987,7.2417,7.3274,7.3274,7.3703,7.4486,7.454,7.4591,7.4599,7.4605,7.5077,7.5898,7.5898,7.6406,7.7187,7.7187,7.7187,7.7187,7.7187,7.7187,7.7187,7.7187,7.7187,7.7187,7.7187,7.7187,7.7186,7.7039,7.6813,7.6564,7.6433,7.6403,7.6403,7.6403,7.6403,7.6403,7.6403,7.6403,7.6368,7.6225,7.6192,7.6152,7.6044,7.6015,7.6015,7.6015,7.6015,7.6015,7.6015,7.6015,7.6015,7.6015,7.6015,7.6015,7.6015,7.6015,7.6015,7.6015,7.6015,7.6015,7.6015,7.6015,7.6015,7.6015,7.6015,7.6015,7.6015,7.6015,7.6015,7.6015,7.6015,7.6015,7.6015,7.6015,7.6015,5.7397,5.8156,5.8943,5.9791,6.0554,6.1053,6.1053,6.1043,6.1074,6.1256,6.1331,6.1483,6.1666,6.2187,6.2969,6.4103,6.4805,6.5585,6.664,6.6796,6.6796,6.6796,6.785,6.8787,6.9334,7.0972,7.1987,7.1987,7.1987,7.1987,7.1987,7.2573,7.2884,7.2884,7.2884,7.3158,7.3705,7.3705,7.3861,7.4134,7.4134,7.4296,7.4579,7.5215,7.5498,7.5504,7.6132,7.6523,7.6797,7.6797,7.6953,7.7187,7.7187,7.7187,7.7187,7.7187,7.7187,7.7187,7.7187,7.7187,7.7187,7.7187,7.7187,7.7187,7.704,7.6868,7.6684,7.6477,7.6403,7.6403,7.6403,7.6403,7.6403,7.6403,7.6403,7.6368,7.6225,7.6192,7.6152,7.6044,7.6015,7.6015,7.6015,7.6015,7.6015,7.6015,7.6015,7.6015,7.6015,7.6015,7.6015,7.6015,7.6015,7.6015,7.6015,7.6015,7.6015,7.6015,7.6015,7.6015,7.6015,7.6015,7.6015,7.6015,7.6015,7.6015,7.6015,7.6015,7.6015,7.6015,7.6015,7.6015,5.7808,5.8328,5.8901,6.0037,6.0626,6.0923,6.0923,6.0945,6.1057,6.1158,6.1376,6.1558,6.167,6.2422,6.3282,6.4142,6.5038,6.5897,6.6679,6.6796,6.6913,6.7264,6.8552,6.9528,6.9879,7.1167,7.1987,7.1987,7.1987,7.2143,7.2456,7.3001,7.3586,7.4212,7.3939,7.3978,7.4486,7.4486,7.4681,7.4993,7.4993,7.5197,7.5561,7.6118,7.636,7.6404,7.6953,7.7187,0.0,7.7187,7.7187,7.7187,7.7187,7.7187,7.7187,7.7187,7.7187,7.7187,7.7187,7.7187,7.7187,7.7187,7.7187,7.7187,7.704,7.6863,7.6684,7.6531,7.6433,7.6403,7.6403,7.6403,7.6403,7.6403,7.6403,7.6368,7.6225,7.6192,7.6152,7.6044,7.6015,7.6015,7.6015,7.6015,7.6015,7.6015,7.6015,7.6015,7.6015,7.6015,7.6015,7.6015,7.6015,7.6015,7.6015,7.6015,7.6015,7.6015,7.6015,7.6015,7.6015,7.6015,7.6015,7.6015,7.6015,7.6015,7.6015,7.6015,7.6015,7.6015,7.6015,7.6015,0.0,5.8653,5.8935,6.0415,6.0787,6.0787,6.0787,6.0897,0.0,6.1161,6.1381,6.1564,6.167,6.2461,6.336,6.4181,6.5077,6.5936,6.6679,6.6796,6.7109,6.8005,6.8864,6.9723,7.0619,7.148,7.1987,7.1987,7.2065,7.2456,7.3274,7.3391,7.4173,7.5736,7.5071,7.4681,7.4681,7.4681,7.5071,7.5893,7.5894,7.6331,7.7085,7.7095,7.7141,7.7185,7.7187,7.7187,7.7187,7.7187,7.7187,7.7187,7.7187,7.7187,7.7187,7.7187,7.7187,7.7187,7.7187,7.7187,7.7187,7.7187,7.7187,7.7187,7.7044,7.6827,7.6622,7.6609,7.6501,7.6403,7.6403,7.6403,7.6403,7.6403,7.6397,7.6362,7.6225,7.6192,7.6145,7.6044,7.6015,7.6015,7.6015,7.6015,7.6015,7.6015,7.6015,7.6015,7.6015,7.6015,7.6015,7.6015,7.6015,7.6015,7.6015,7.6015,7.6015,7.6015,7.6015,7.6015,7.6015,7.6015,7.6015,7.6015,7.6015,7.6015,7.6015,7.6015,7.6015,7.6015,7.6015,7.6015,5.8464,0.0,5.9713,6.0575,6.0787,6.0787,0.0,6.0978,6.1143,6.1183,6.1442,6.1664,6.1677,6.2969,6.4064,6.4259,6.5547,6.6562,6.6757,6.6796,6.7109,6.8005,6.8864,6.9723,7.0619,7.148,7.1987,7.1987,7.2612,7.3079,7.3274,7.4525,7.5385,7.5775,7.6242,7.6477,7.6477,7.6477,7.6594,7.6789,7.6801,7.6891,7.7096,7.7141,7.7185,7.7187,7.7187,7.7187,7.7187,7.7187,7.7187,7.7187,7.7187,7.7187,7.7187,7.7187,7.7187,7.7187,7.7187,7.7187,7.7187,7.7187,7.7187,7.7187,7.7147,7.6967,7.6731,7.6643,7.6501,7.6403,7.6403,7.6403,7.6403,7.6403,7.6362,7.6301,7.6212,7.6152,7.609,7.6037,7.6015,7.6015,7.6015,7.6015,7.6015,7.6015,7.6015,7.6015,7.6015,7.6015,7.6015,7.6015,7.6015,7.6015,7.6015,7.6015,7.6015,7.6015,7.6015,7.6015,7.6015,7.6015,7.6015,7.6015,7.6015,7.6015,7.6015,7.6015,7.6015,7.6015,7.6015,7.6015,5.8505,5.9111,5.9863,6.0623,6.0787,6.0816,6.0883,6.104,6.1246,6.131,6.153,6.1719,6.1719,6.3125,6.4298,6.4298,6.5703,6.6796,6.6796,6.7148,6.7732,6.8591,6.9489,7.0348,7.1206,7.1714,7.1987,7.1987,7.2807,7.3469,7.3821,7.5073,7.5971,7.64,7.6867,7.7101,7.7101,7.7101,7.7104,7.7112,7.712,7.7131,7.7142,7.7183,7.7186,7.7187,7.7187,7.7187,7.7187,7.7187,7.7187,7.7187,7.7187,7.7187,7.7187,7.7187,7.7187,7.7187,7.7187,7.7187,7.7187,7.7187,7.7187,7.7187,7.7187,7.7046,7.6858,7.6731,7.66,7.6498,7.6432,7.6403,7.6403,7.6403,7.6374,7.6319,7.6218,7.6165,7.6111,7.6037,7.6015,7.6015,7.6015,7.6015,7.6015,7.6015,7.6015,7.6015,7.6015,7.6015,7.6015,7.6015,7.6015,7.6015,7.6015,7.6015,7.6015,7.6015,7.6015,7.6015,7.6015,7.6015,7.6015,7.6015,7.6015,7.6015,7.6015,7.6015,7.6015,7.6015,7.6015,7.6207,5.8749,5.9204,5.9896,6.0633,6.0787,6.0839,6.0948,6.1066,6.1229,6.1381,6.1532,6.1667,6.1667,6.312,6.4298,6.4298,6.5703,6.6796,6.6796,6.7537,6.8435,6.9295,7.0152,7.105,7.1909,7.1987,7.1987,7.1987,7.2924,7.3782,7.4447,7.5463,7.6322,7.7062,7.7101,7.7101,7.7101,7.7101,7.7108,7.7083,7.7085,7.7134,7.7184,7.7185,7.7186,7.7187,7.7187,7.7187,7.7187,7.7187,7.7187,7.7187,7.7187,7.7187,7.7187,7.7187,7.7187,7.7187,7.7187,7.7187,7.7187,7.7187,7.7187,7.7187,7.7187,7.7102,7.6986,7.6861,7.6717,7.6559,7.6427,7.6403,7.6403,7.6403,7.6386,7.6344,7.6218,7.6179,7.6125,7.5998,7.6015,7.6015,7.6015,7.6015,7.6015,7.6015,7.6015,7.6015,7.6015,7.6015,7.6015,7.6015,7.6015,7.6015,7.6015,7.6015,7.6015,7.6015,7.6015,7.6015,7.6015,7.6015,7.6015,7.6015,7.6015,7.6015,7.6015,7.6015,7.6015,7.6015,7.613,7.6592,5.9564,6.0166,6.0633,6.0787,6.0787,6.0793,6.0833,6.0938,6.1052,6.1083,6.1324,6.1513,6.1513,6.3054,6.4298,6.4298,6.5703,6.6796,6.6796,6.7537,6.8435,6.9295,7.0152,7.105,7.1909,7.1987,7.1987,7.1987,7.3432,7.4369,7.4486,7.6047,7.6945,7.7101,7.7101,7.7101,7.7101,7.7101,7.7108,7.7084,7.7093,7.7139,7.7184,7.7187,7.7187,7.7187,7.7187,7.7187,7.7187,7.7187,7.7187,7.7187,7.7187,7.7187,7.7187,7.7187,7.7187,7.7187,7.7187,7.7187,7.7187,7.7187,7.7187,7.7187,7.7187,7.7187,7.7144,7.7026,7.6793,7.6559,7.6427,7.6403,7.6403,7.6403,7.6313,7.6225,7.6198,7.6097,7.6005,7.5984,7.6015,7.6015,7.6015,7.6015,7.6015,7.6015,7.6015,7.6015,7.6015,7.6015,7.6015,7.6015,7.6015,7.6015,7.6015,7.6015,7.6015,7.6015,7.6015,7.6015,7.6015,7.6015,7.6015,7.6015,7.6015,7.6015,7.6015,7.6015,7.6015,7.6015,7.6746,7.7176,5.9504,6.0249,6.0787,6.0787,6.0845,6.0892,6.0892,6.102,6.1116,6.1116,6.1232,6.1537,6.2107,6.3245,6.4455,6.5503,6.6289,6.6796,6.6796,6.7966,6.8942,6.9334,7.0582,7.1558,7.1948,7.1987,7.1987,7.1987,7.3549,7.4486,7.4486,7.6164,7.7101,7.7101,7.7101,7.7101,7.7101,7.711,7.7081,7.7093,7.7139,7.7184,7.7187,7.7187,7.7187,7.7187,7.7187,7.7187,7.7187,7.7187,7.7187,7.7187,7.7187,7.7187,7.7187,7.7187,7.7187,7.7187,7.7187,7.7187,7.7187,7.7187,7.7187,7.7187,7.7187,7.7187,7.7186,7.7039,7.6853,7.6669,7.6522,7.646,7.6403,7.6403,7.6356,7.6288,7.6212,7.6145,7.6069,7.5991,7.6015,7.6015,7.6015,7.6015,7.6015,7.6015,7.6015,7.6015,7.6015,7.6015,7.6015,7.6015,7.6015,7.6015,7.6015,7.6015,7.6015,7.6015,7.6015,7.6015,7.6015,7.6015,7.6015,7.6015,7.6015,7.6015,7.6015,7.6015,7.6245,7.6707,7.7099,7.7784,5.9666,6.0327,6.0787,6.0787,6.0883,6.0968,6.0968,6.1014,6.1116,6.1116,6.1147,6.1483,6.249,6.3564,6.4831,6.6492,6.6787,6.6874,6.707,6.8436,6.949,6.9684,7.105,7.1987,7.1987,7.1987,7.2065,7.23,7.3666,7.4603,7.4798,7.6242,7.7101,7.7101,7.7104,7.7107,7.7107,7.7123,7.7133,7.7098,7.7182,7.7186,7.7187,7.7187,7.7187,7.7187,7.7187,7.7187,7.7187,7.7187,7.7187,7.7187,7.7187,7.7187,7.7187,7.7187,7.7187,7.7187,7.7187,7.7187,7.7187,7.7187,7.7187,7.7187,7.7187,7.7187,7.7187,7.7091,7.6942,7.6771,7.6613,7.6496,7.6403,7.6403,7.638,7.6326,7.6218,7.6165,7.6111,7.6037,7.6015,7.6015,7.6015,7.6015,7.6015,7.6015,7.6015,7.6015,7.6015,7.6015,7.6015,7.6015,7.6015,7.6015,7.6015,7.6015,7.6015,7.6015,7.6015,7.6015,7.6015,7.6015,7.6015,7.6015,7.6015,7.6015,7.6015,7.6207,7.663,7.733,7.7707,7.8554,6.0621,6.0832,6.0787,6.0787,6.0798,6.081,6.081,6.0821,6.0839,6.0839,6.0928,6.1296,6.2161,6.3906,6.5504,6.6447,6.6716,6.707,6.7888,6.8825,6.9684,7.0502,7.1441,7.1987,7.1987,7.1987,7.2339,7.3157,7.4017,7.4837,7.5658,7.6594,7.7101,7.7101,7.7115,7.7082,7.7082,7.7178,7.7142,7.7098,7.7182,7.7186,7.7187,7.7187,7.7187,7.7187,7.7187,7.7187,7.7187,7.7187,7.7187,7.7187,7.7187,7.7187,7.7187,7.7187,7.7187,7.7187,7.7187,7.7187,7.7187,7.7187,7.7187,7.7187,7.7187,7.7187,7.7187,7.7187,7.6984,7.6771,7.6613,7.6496,7.6403,7.6403,7.6307,7.6205,7.6198,7.609,7.6029,7.6015,7.6015,7.6015,7.6015,7.6015,7.6015,7.6015,7.6015,7.6015,7.6015,7.6015,7.6015,7.6015,7.6015,7.6015,7.6015,7.6015,7.6015,7.6015,7.6015,7.6015,7.6015,7.6015,7.6015,7.6015,7.6015,7.6015,7.6015,7.683,7.7253,7.733,7.89,7.9662,6.0624,6.0855,6.0787,6.0787,6.0787,6.0787,6.0787,6.0861,6.0882,6.0816,6.0855,6.1311,6.2844,6.4827,6.6313,6.6564,6.7181,6.7732,6.8043,6.9333,7.0348,7.0659,7.148,7.1987,7.1987,7.1987,7.2378,7.3235,7.4056,7.4876,7.5736,7.6633,7.7106,7.7115,7.7081,7.7087,7.7093,7.7181,7.7184,7.7143,7.7186,7.7187,7.7187,7.7187,7.7187,7.7187,7.7187,7.7187,7.7187,7.7187,7.7187,7.7187,7.7187,7.7187,7.7187,7.7187,7.7187,7.7187,7.7187,7.7187,7.7187,7.7187,7.7187,7.7187,7.7187,7.7187,7.7187,7.7187,7.7088,7.688,7.6761,7.6555,7.6403,7.6403,7.6362,7.6313,7.6269,7.6225,7.6159,7.6069,7.6055,7.6034,7.6022,7.6015,7.6015,7.6015,7.6015,7.6015,7.6015,7.6015,7.6015,7.6015,7.6015,7.6015,7.6015,7.6015,7.6015,7.6015,7.6015,7.6015,7.6015,7.6015,7.6015,7.6015,7.6015,7.6015,7.6015,7.6868,7.7561,7.8061,7.9246,8.0092,6.0627,6.0787,6.0787,6.0787,6.0787,6.0787,6.0787,6.0872,6.0897,6.0821,6.1204,6.2116,6.3772,6.5489,6.6638,6.66,6.7452,6.82,6.8474,6.9761,7.0815,7.1089,7.1636,7.1987,7.1987,7.1987,7.2456,7.3586,7.4217,7.5001,7.6134,7.6762,7.7081,7.7088,7.7131,7.7135,7.7141,7.7184,7.7186,7.7186,7.7187,7.7187,7.7187,7.7187,7.7187,7.7187,7.7187,7.7187,7.7187,7.7187,7.7187,7.7187,7.7187,7.7187,7.7187,7.7187,7.7187,7.7187,7.7187,7.7187,7.7187,7.7187,7.7187,7.7187,7.7187,7.7187,7.7187,7.7187,7.7098,7.6968,7.6835,7.6613,7.6455,7.6421,7.6386,7.6356,7.6313,7.6282,7.6238,7.6118,7.6097,7.6069,7.6029,7.6015,7.6015,7.6015,7.6015,7.6015,7.6015,7.6015,7.6015,7.6015,7.6015,7.6015,7.6015,7.6015,7.6015,7.6015,7.6015,7.6015,7.6015,7.6015,7.6015,7.6015,7.6015,7.613,7.6399,7.7253,7.8099,7.8938,7.9785,8.0516,6.0787,6.0787,6.0787,6.0787,6.0787,6.0787,6.0787,6.0787,6.0787,6.0825,6.2133,6.367,6.4862,6.5774,6.6366,6.6574,6.7454,6.8435,6.9295,7.0152,7.1011,7.1909,7.1989,7.1989,7.1989,7.1989,7.2691,7.4369,7.4578,7.5327,7.7006,7.7093,7.7098,7.7098,7.7182,7.7184,7.7184,7.7187,7.7187,7.7187,7.7187,7.7187,7.7187,7.7187,7.7187,7.7187,7.7187,7.7187,7.7187,7.7187,7.7187,7.7187,7.7187,7.7187,7.7187,7.7187,7.7187,7.7187,7.7187,7.7187,7.7187,7.7187,7.7187,7.7187,7.7187,7.7187,7.7187,7.7187,7.7098,7.6968,7.6835,7.6699,7.6559,7.6422,7.635,7.6301,7.6301,7.6244,7.6179,7.6111,7.6097,7.6069,7.5991,7.6015,7.6015,7.6015,7.6015,7.6015,7.6015,7.6015,7.6015,7.6015,7.6015,7.6015,7.6015,7.6015,7.6015,7.6015,7.6015,7.6015,7.6015,7.6015,7.6015,7.6015,7.6015,7.6438,7.7292,7.8099,7.8938,7.9815,8.0708,8.1093,6.0922,6.0883,6.0793,6.0871,6.0816,6.0787,6.0787,6.0787,6.1004,6.1722,6.33,6.4664,6.5022,6.5993,6.6918,6.7434,6.8341,6.9308,7.0206,7.1057,7.1718,7.1961,7.2001,7.2004,7.2011,7.2012,7.2715,7.4434,7.4593,7.5337,7.7016,7.7097,7.71,7.7182,7.7184,7.7185,7.7187,7.7187,7.7187,7.7187,7.7187,7.7187,7.7187,7.7187,7.7187,7.7187,7.7187,7.7187,7.7187,7.7187,7.7187,7.7187,7.7187,7.7187,7.7187,7.7187,7.7187,7.7187,7.7187,7.7187,7.7187,7.7187,7.7187,7.7187,7.7187,7.7187,7.7187,7.7187,7.7186,7.7094,7.6853,7.6774,7.6677,7.646,7.6386,7.6374,7.6374,7.6356,7.6326,7.6257,7.6198,7.6145,7.6076,7.6012,7.6015,7.6015,7.6015,7.6015,7.6015,7.6015,7.6015,7.6015,7.6015,7.6015,7.6015,7.6015,7.6015,7.6015,7.6015,7.6015,7.6015,7.6015,7.6015,7.6015,7.6015,7.6438,7.7292,7.8099,7.8938,7.9815,8.0708,8.1093,6.0916,6.0877,6.0793,6.0866,6.081,6.0908,6.1278,6.136,6.1665,6.2663,6.4031,6.5171,6.5723,6.6343,6.7033,6.7844,6.8798,6.9709,7.0568,7.1461,7.2005,7.2011,7.2012,7.2014,7.2019,7.2019,7.2722,7.4481,7.4601,7.5344,7.7063,7.7143,7.7145,7.7186,7.7186,7.7187,7.7187,7.7187,7.7187,7.7187,7.7187,7.7187,7.7187,7.7187,7.7187,7.7187,7.7187,7.7187,7.7187,7.7187,7.7187,7.7187,7.7187,7.7187,7.7187,7.7187,7.7187,7.7187,7.7187,7.7187,7.7187,7.7187,7.7187,7.7187,7.7187,7.7187,7.7187,7.7187,7.7187,7.7144,7.6863,7.6802,7.6734,7.6477,7.6403,7.6403,7.6403,7.6403,7.6374,7.6276,7.6225,7.6165,7.6069,7.6051,7.6015,7.6015,7.6015,7.6015,7.6015,7.6015,7.6015,7.6015,7.6015,7.6015,7.6015,7.6015,7.6015,7.6015,7.6015,7.6015,7.6015,7.6015,7.6015,7.6015,7.6322,7.6938,7.7792,7.8592,7.9477,8.0323,8.0862,8.1093,6.0827,6.0804,6.0793,6.081,6.0804,6.1047,6.1989,6.2276,6.2648,6.3698,6.4538,6.5414,6.6653,6.6838,6.7055,6.8073,6.8936,6.9834,7.0693,7.1512,7.198,7.1981,7.1982,7.1982,7.1982,7.1982,7.2724,7.4483,7.4605,7.5349,7.7107,7.7187,7.7187,7.7187,7.7187,7.7187,7.7187,7.7187,7.7187,7.7187,7.7187,7.7187,7.7187,7.7187,7.7187,7.7187,7.7187,7.7187,7.7187,7.7187,7.7187,7.7187,7.7187,7.7187,7.7187,7.7187,7.7187,7.7187,7.7187,7.7187,7.7187,7.7187,7.7187,7.7187,7.7187,7.7187,7.7187,7.7187,7.7187,7.7144,7.6875,7.681,7.6738,7.6465,7.6421,7.6403,7.6403,7.6403,7.6368,7.6238,7.6205,7.6152,7.6058,7.6022,7.6015,7.6015,7.6015,7.6015,7.6015,7.6015,7.6015,7.6015,7.6015,7.6015,7.6015,7.6015,7.6015,7.6015,7.6015,7.6015,7.6015,7.6015,7.6015,7.6015,7.6868,7.7715,7.8484,7.9361,8.0246,8.1093,8.1093,8.1093,6.1021,6.0959,6.0878,6.0931,6.0953,6.1191,6.2023,6.2755,6.3608,6.4662,6.5623,6.6367,6.6832,6.742,6.8161,6.9062,6.9881,7.0738,7.1598,7.1867,7.1982,7.1988,7.1988,7.1989,7.1991,7.1991,7.2734,7.4452,7.4609,7.5351,7.7109,7.7187,7.7187,7.7187,7.7187,7.7187,7.7187,7.7187,7.7187,7.7187,7.7187,7.7187,7.7187,7.7187,7.7187,7.7187,7.7187,7.7187,7.7187,7.7187,7.7187,7.7187,7.7187,7.7187,7.7187,7.7187,7.7187,7.7187,7.7187,7.7187,7.7187,7.7187,7.7187,7.7187,7.7187,7.7187,7.7187,7.7187,7.7187,7.7147,7.6983,7.6871,7.6761,7.66,7.6498,7.6403,7.6403,7.6403,7.6392,7.6368,7.6269,7.6185,7.6152,7.6055,7.6015,7.6015,7.6015,7.6015,7.6015,7.6015,7.6015,7.6015,7.6015,7.6015,7.6015,7.6015,7.6015,7.6015,7.6015,7.6015,7.6015,7.6015,7.6015,7.6015,7.6868,7.7715,7.8484,7.9361,8.0246,8.1093,8.1093,8.1093,6.1026,6.1018,6.0965,6.0985,6.1288,6.1818,6.2655,6.3579,6.4575,6.5642,6.6269,6.6808,6.742,6.789,6.8594,6.9883,7.0429,7.1015,7.1874,7.199,7.199,7.1991,7.1991,7.1992,7.1992,7.1992,7.2734,7.4453,7.4609,7.5351,7.7109,7.7187,7.7187,7.7187,7.7187,7.7187,7.7187,7.7187,7.7187,7.7187,7.7187,7.7187,7.7187,7.7187,7.7187,7.7187,7.7187,7.7187,7.7187,7.7187,7.7187,7.7187,7.7187,7.7187,7.7187,7.7187,7.7187,7.7187,7.7187,7.7187,7.7187,7.7187,7.7187,7.7187,7.7187,7.7187,7.7187,7.7187,7.7187,7.7186,7.7038,7.6886,7.6768,7.6648,7.6491,7.6403,7.6403,7.6403,7.6386,7.6319,7.6244,7.6172,7.6104,7.6065,7.6015,7.6015,7.6015,7.6015,7.6015,7.6015,7.6015,7.6015,7.6015,7.6015,7.6015,7.6015,7.6015,7.6015,7.6015,7.6015,7.6015,7.6015,7.6207,7.6592,7.7445,7.8292,7.9131,8.0015,8.0669,8.1093,8.1093,8.1093,6.0995,6.1023,6.1023,6.1023,6.153,6.228,6.3364,6.4239,6.5125,6.6332,6.6607,6.6945,6.8006,6.832,6.8906,7.0469,7.082,7.1172,7.1914,7.1992,7.1992,7.1992,7.1992,7.1992,7.1992,7.1992,7.2734,7.4453,7.4609,7.5351,7.7109,7.7187,7.7187,7.7187,7.7187,7.7187,7.7187,7.7187,7.7187,7.7187,7.7187,7.7187,7.7187,7.7187,7.7187,7.7187,7.7187,7.7187,7.7187,7.7187,7.7187,7.7187,7.7187,7.7187,7.7187,7.7187,7.7187,7.7187,7.7187,7.7187,7.7187,7.7187,7.7187,7.7187,7.7187,7.7187,7.7187,7.7187,7.7187,7.7187,7.7048,7.6936,7.6774,7.6646,7.6516,7.6403,7.6403,7.6403,7.6368,7.6238,7.6192,7.6138,7.5998,7.6015,7.6015,7.6015,7.6015,7.6015,7.6015,7.6015,7.6015,7.6015,7.6015,7.6015,7.6015,7.6015,7.6015,7.6015,7.6015,7.6015,7.6015,7.613,7.663,7.7484,7.8176,7.8938,7.9815,8.0669,8.1093,8.1093,8.1093,8.1093,6.1085,6.1094,6.1094,6.1094,6.1172,6.1679,6.3318,6.3822,6.4457,6.626,6.666,6.6999,6.8007,6.8789,6.957,7.0547,7.1328,7.1875,7.1992,7.1992,7.1992,7.1992,7.1992,7.1992,7.1992,7.1992,7.2734,7.4453,7.4609,7.5351,7.7109,7.7187,7.7187,7.7187,7.7187,7.7187,7.7187,7.7187,7.7187,7.7187,7.7187,7.7187,7.7187,7.7187,7.7187,7.7187,7.7187,7.7187,7.7187,7.7187,7.7187,7.7187,7.7187,7.7187,7.7187,7.7187,7.7187,7.7187,7.7187,7.7187,7.7187,7.7187,7.7187,7.7187,7.7187,7.7187,7.7187,7.7187,7.7187,7.7187,7.7187,7.6978,7.6799,7.678,7.6582,7.6403,7.6403,7.6403,7.638,7.6301,7.6192,7.6083,7.5991,7.6015,7.6015,7.6015,7.6015,7.6015,7.6015,7.6015,7.6015,7.6015,7.6015,7.6015,7.6015,7.6015,7.6015,7.6015,7.6015,7.6015,7.6015,7.6746,7.7522,7.833,7.8446,7.8938,7.9815,8.0669,8.1093,8.1093,8.1093,8.1093,6.107,6.1118,6.1118,6.1118,6.1814,6.2747,6.3521,6.4528,6.5507,6.6413,6.6631,6.7162,6.8593,6.918,6.9883,7.1211,7.1758,7.1992,7.1992,7.1992,7.1992,7.1992,7.1992,7.1992,7.1992,7.1992,7.2734,7.4453,7.4609,7.5351,7.7109,7.7187,7.7187,7.7187,7.7187,7.7187,7.7187,7.7187,7.7187,7.7187,7.7187,7.7187,7.7187,7.7187,7.7187,7.7187,7.7187,7.7187,7.7187,7.7187,7.7187,7.7187,7.7187,7.7187,7.7187,7.7187,7.7187,7.7187,7.7187,7.7187,7.7187,7.7187,7.7187,7.7187,7.7187,7.7187,7.7187,7.7187,7.7187,7.7187,7.7187,7.7046,7.688,7.6819,7.6638,7.648,7.6432,7.6403,7.6374,7.6263,7.6131,7.602,7.6022,7.6015,7.6015,7.6015,7.6015,7.6015,7.6015,7.6015,7.6015,7.6015,7.6015,7.6015,7.6015,7.6015,7.6015,7.6015,7.6015,7.6015,7.6015,7.6823,7.7676,7.8484,7.8977,7.9669,8.0516,8.09,8.1093,8.1093,8.1093,8.1093,6.1118,6.1118,6.1118,6.1118,6.2282,6.3485,6.3678,6.4978,6.6223,6.6578,6.6697,6.7213,6.8828,6.9336,7.0039,7.1719,7.1992,7.1992,7.1992,7.1992,7.1992,7.1992,7.1992,7.1992,7.1992,7.1992,7.2734,7.4453,7.4609,7.5351,7.7109,7.7187,7.7187,7.7187,7.7187,7.7187,7.7187,7.7187,7.7187,7.7187,7.7187,7.7187,7.7187,7.7187,7.7187,7.7187,7.7187,7.7187,7.7187,7.7187,7.7187,7.7187,7.7187,7.7187,7.7187,7.7187,7.7187,7.7187,7.7187,7.7187,7.7187,7.7187,7.7187,7.7187,7.7187,7.7187,7.7187,7.7187,7.7187,7.7187,7.7187,7.7097,7.6967,7.6833,7.6692,7.655,7.6393,7.6362,7.6319,7.6192,7.6069,7.6015,7.6015,7.6015,7.6015,7.6015,7.6015,7.6015,7.6015,7.6015,7.6015,7.6015,7.6015,7.6015,7.6015,7.6015,7.6015,7.6015,7.6015,7.6092,7.6322,7.7138,7.7984,7.883,7.9708,8.0439,8.1093,8.1093,8.1093,8.1093,8.1093,8.1093,6.1118,6.1118,6.1118,6.1118,6.1883,6.286,6.3634,6.4652,6.5699,6.6518,6.6786,6.7187,6.8086,6.8945,7.0039,7.1719,7.1992,7.1992,7.1992,7.1992,7.1992,7.1992,7.1992,7.1992,7.1992,7.1992,7.2734,7.4453,7.4609,7.5351,7.7109,7.7187,7.7187,7.7187,7.7187,7.7187,7.7187,7.7187,7.7187,7.7187,7.7187,7.7187,7.7187,7.7187,7.7187,7.7187,7.7187,7.7187,7.7187,7.7187,7.7187,7.7187,7.7187,7.7187,7.7187,7.7187,7.7187,7.7187,7.7187,7.7187,7.7187,7.7187,7.7187,7.7187,7.7187,7.7187,7.7187,7.7187,7.7187,7.7187,7.7187,7.7097,7.6967,7.6833,7.6692,7.6541,7.6335,7.6257,7.6185,7.6111,7.6034,7.6015,7.6015,7.6015,7.6015,7.6015,7.6015,7.6015,7.6015,7.6015,7.6015,7.6015,7.6015,7.6015,7.6015,7.6015,7.6015,7.6015,7.6015,7.6361,7.7215,7.8023,7.8869,7.97,8.0592,8.1054,8.1093,8.1093,8.1093,8.1093,8.1093,8.1093,6.1112,6.1118,6.1234,6.1771,6.2663,6.3606,6.4457,6.5477,6.6329,6.664,6.6827,6.7187,6.8047,6.8867,6.9805,7.0976,7.164,7.1992,7.1992,7.1992,7.1992,7.1992,7.1992,7.1992,7.1992,7.1992,7.2734,7.4453,7.4609,7.5351,7.7109,7.7187,7.7187,7.7187,7.7187,7.7187,7.7187,7.7187,7.7187,7.7187,7.7187,7.7187,7.7187,7.7187,7.7187,7.7187,7.7187,7.7187,7.7187,7.7187,7.7187,7.7187,7.7187,7.7187,7.7187,7.7187,7.7187,7.7187,7.7187,7.7187,7.7187,7.7187,7.7187,7.7187,7.7187,7.7187,7.7187,7.7187,7.7187,7.7187,7.7187,7.7147,7.7051,7.6848,7.6588,7.6388,7.6269,7.6212,7.6172,7.6111,7.6034,7.6015,7.6015,7.6015,7.6015,7.6015,7.6015,7.6015,7.6015,7.6015,7.6015,7.6015,7.6015,7.6015,7.6015,7.6015,7.6015,7.6015,7.6515,7.6984,7.7292,7.8592,7.9477,7.9777,8.0669,8.1093,8.1093,8.1093,8.1093,8.1093,8.1093,8.1093,6.1217,6.1414,6.1755,6.2336,6.3363,6.4394,6.5025,6.5966,6.6723,6.6777,6.6832,6.707,6.7656,6.8437,6.9375,7.0508,7.1445,7.1992,7.1992,7.1992,7.1992,7.1992,7.1992,7.1992,7.1992,7.1992,7.2617,7.4062,7.4414,7.5234,7.668,7.7031,7.7344,7.7617,7.7344,7.7344,7.7617,7.7344,7.7187,7.7187,7.7187,7.7187,7.7187,7.7187,7.7187,7.7187,7.7187,7.7187,7.7187,7.7187,7.7187,7.7187,7.7187,7.7187,7.7187,7.7187,7.7187,7.7187,7.7187,7.7187,7.7187,7.7187,7.7187,7.7187,7.7187,7.7187,7.7187,7.7187,7.7187,7.7187,7.7187,7.7186,7.7091,7.6848,7.6575,7.6353,7.6231,7.6179,7.6138,7.6069,7.6012,7.6015,7.6015,7.6015,7.6015,7.6015,7.6015,7.6015,7.6015,7.6015,7.6015,7.6015,7.6015,7.6015,7.6015,7.6015,7.613,7.6399,7.6984,7.7561,7.813,7.9208,7.9931,8.0239,8.0823,8.1093,8.1093,8.1093,8.1093,8.1093,8.1093,8.1093,0.0,0.0,0.0,6.2627,6.3878,6.5167,6.5289,6.6048,6.6732,6.6874,6.6875,6.6914,6.6914,6.7617,6.8711,7.0351,7.1367,7.1953,7.1992,7.1992,7.1992,7.1992,7.1992,7.1992,7.1992,7.1992,7.2344,7.3242,7.4101,7.4961,7.5859,7.6719,7.7617,7.8476,7.7656,7.7617,7.8476,7.7656,7.7187,7.7187,7.7187,7.7187,7.7187,7.7187,7.7187,7.7187,7.7187,7.7187,7.7187,7.7187,7.7187,7.7187,7.7187,7.7187,7.7187,7.7187,7.7187,7.7187,7.7187,7.7187,7.7187,7.7187,7.7187,7.7187,7.7187,7.7187,7.7187,7.7187,7.7187,7.7187,7.7187,7.7097,7.6967,7.6835,7.6665,7.6423,7.6237,7.6145,7.6069,7.5991,7.6015,7.6015,7.6015,7.6015,7.6015,7.6015,7.6015,7.6015,7.6015,7.6015,7.6015,7.6015,7.6015,7.6015,7.6015,7.6015,7.6361,7.7253,7.733,7.8092,7.9738,7.9815,8.0246,8.1093,8.1093,8.1093,8.1093,8.1093,8.1093,8.1093,8.1093,8.1093,6.1431,0.0,0.0,0.0,0.0,0.0,6.6101,6.6475,6.6722,6.6735,6.6776,6.6784,6.6874,6.7617,6.8359,6.8828,7.0117,7.1289,7.1914,7.1992,7.1992,7.1992,7.1992,7.1992,7.1992,7.1992,7.2344,7.3242,7.4101,7.4961,7.5859,7.6719,7.7617,7.8476,7.7656,7.7617,7.8476,7.7656,7.7187,7.7187,7.7187,7.7187,7.7187,7.7187,7.7187,7.7187,7.7187,7.7187,7.7187,7.7187,7.7187,7.7187,7.7187,7.7187,7.7187,7.7187,7.7187,7.7187,7.7187,7.7187,7.7187,7.7187,7.7187,7.7187,7.7187,7.7187,7.7187,7.7187,7.7187,7.7187,7.7187,7.7097,7.6977,7.694,7.6667,7.6408,7.636,7.6173,7.6005,7.5984,7.6015,7.6015,7.6015,7.6015,7.6015,7.6015,7.6015,7.6015,7.6015,7.6015,7.6015,7.6015,7.6015,7.6015,7.6015,7.6015,7.6361,7.7253,7.7869,7.8669,7.9738,8.04,8.0862,8.1093,8.1093,8.1093,8.1093,8.1093,8.1093,8.1093,8.1093,8.1093,0.0,0.0,6.3497,6.4355,0.0,0.0,6.6541,6.6652,6.6724,6.6781,6.6783,6.6827,6.6875,6.7305,6.7773,6.8125,6.9336,7.0508,7.1328,7.1758,7.1992,7.1992,7.1992,7.1992,7.1992,7.1992,7.2226,7.2734,7.3555,7.4609,7.582,7.707,7.8125,7.8984,7.8164,7.8164,7.8984,7.7812,7.7187,7.7187,7.7187,7.7187,7.7187,7.7187,7.7187,7.7187,7.7187,7.7187,7.7187,7.7187,7.7187,7.7187,7.7187,7.7187,7.7187,7.7187,7.7187,7.7187,7.7187,7.7187,7.7187,7.7187,7.7187,7.7187,7.7187,7.7187,7.7187,7.7187,7.7187,7.7187,7.7187,7.7143,7.7079,7.7006,7.6755,7.6483,7.6394,7.6192,7.6015,7.6015,7.6015,7.6015,7.6015,7.6015,7.6015,7.6015,7.6015,7.6015,7.6015,7.6015,7.6015,7.6015,7.6015,7.6015,7.6015,7.6322,7.6899,7.7753,7.8592,7.9438,8.0323,8.0823,8.1093,8.1093,8.1093,8.1093,8.1093,8.1093,8.1093,8.1093,8.1093,8.1093,0.0,0.0,0.0,6.5242,6.6019,0.0,6.6708,6.6718,6.6731,6.6834,6.6874,6.6874,6.6914,6.6914,6.7148,6.793,6.8867,6.9765,7.0586,7.1445,7.1992,7.1992,7.1992,7.1992,7.1992,7.1992,7.1992,7.1992,7.289,7.414,7.582,7.7539,7.8867,7.9687,7.9023,7.8984,7.9687,7.8125,7.7305,7.7187,7.7187,7.7187,7.7187,7.7187,7.7187,7.7187,7.7187,7.7187,7.7187,7.7187,7.7187,7.7187,7.7187,7.7187,7.7187,7.7187,7.7187,7.7187,7.7187,7.7187,7.7187,7.7187,7.7187,7.7187,7.7187,7.7187,7.7187,7.7187,7.7187,7.7187,7.7187,7.7186,7.7179,7.7056,7.6816,7.6574,7.6447,7.6237,7.602,7.5984,7.6015,7.6015,7.6015,7.6015,7.6015,7.6015,7.6015,7.6015,7.6015,7.6015,7.6015,7.6015,7.6015,7.6053,7.613,7.6861,7.7676,7.86,7.9361,8.0208,8.1054,8.1093,8.1093,8.1093,8.1093,8.1093,8.1093,8.1093,8.1093,8.1093,8.1093,8.1093,6.3984,6.4648,6.535,6.5506,6.6207,0.0,6.6725,6.6718,6.6721,6.673,6.6732,6.6781,6.6874,6.6914,6.6953,6.7148,6.8437,6.9726,7.0586,7.1445,7.1992,7.1992,7.1992,7.1992,7.1992,7.1992,7.1992,7.1992,7.3476,7.4805,7.5859,7.7539,7.8867,7.9687,7.9531,7.9531,7.9687,7.8711,7.789,7.7187,7.7187,7.7187,7.7187,7.7187,7.7187,7.7187,7.7187,7.7187,7.7187,7.7187,7.7187,7.7187,7.7187,7.7187,7.7187,7.7187,7.7187,7.7187,7.7187,7.7187,7.7187,7.7187,7.7187,7.7187,7.7187,7.7187,7.7187,7.7187,7.7187,7.7187,7.7186,7.7185,7.7181,7.7083,7.6977,7.6774,7.6579,7.6394,7.6186,7.6027,7.6015,7.6015,7.6015,7.6015,7.6015,7.6015,7.6015,7.6015,7.6015,7.6015,7.6015,7.6015,7.6015,7.6284,7.6984,7.7215,7.7938,7.9438,7.97,8.0208,8.1054,8.1093,8.1093,8.1093,8.1093,8.1093,8.1093,8.1093,8.1093,8.1093,8.1093,8.1093,6.4844,6.5273,6.5703,6.6133,6.6562,0.0,0.0,6.6787,6.6787,6.6787,6.6787,6.683,6.6875,6.6914,6.6914,6.6914,6.832,6.9531,7.0,7.1172,7.1992,7.1992,7.1992,7.1992,7.1992,7.1992,7.1992,7.1992,7.3203,7.4336,7.5195,7.7305,7.8867,7.9687,8.0117,8.0156,7.9687,7.8906,7.8047,7.7187,7.7187,7.7187,7.7187,7.7187,7.7187,7.7187,7.7187,7.7187,7.7187,7.7187,7.7187,7.7187,7.7187,7.7187,7.7187,7.7187,7.7187,7.7187,7.7187,7.7187,7.7187,7.7187,7.7187,7.7187,7.7187,7.7187,7.7187,7.7187,7.7187,7.7186,7.7185,7.7181,7.7134,7.7125,7.6987,7.679,7.6656,7.6452,7.6248,7.6034,7.6015,7.6015,7.6015,7.6015,7.6015,7.6015,7.6015,7.6015,7.6015,7.6015,7.6015,7.6015,7.6399,7.6823,7.7253,7.8054,7.89,7.9738,8.0208,8.0631,8.1093,8.1093,8.1093,8.1093,8.1093,8.1093,8.1093,8.1093,8.1093,8.1093,8.1093,8.1093,6.5664,6.5859,6.6015,6.6719,6.6914,6.6914,0.0,0.0,0.0,6.6914,6.6914,6.6914,6.6914,6.6914,6.6836,6.668,6.8203,6.9336,6.918,7.0781,7.1992,7.1992,7.1992,7.1992,7.1992,7.1992,7.1992,7.1992,7.2812,7.3672,7.4531,7.707,7.8867,7.9687,8.0703,8.0742,7.9726,7.9062,7.8203,7.7187,7.7187,7.7187,7.7187,7.7187,7.7187,7.7187,7.7187,7.7187,7.7187,7.7187,7.7187,7.7187,7.7187,7.7187,7.7187,7.7187,7.7187,7.7187,7.7187,7.7187,7.7187,7.7187,7.7187,7.7187,7.7187,7.7187,7.7187,7.7187,7.7186,7.7183,7.7182,7.7134,7.7083,7.712,7.6989,7.6804,7.6661,7.6473,7.6281,7.6086,7.602,7.6015,7.6015,7.6015,7.6015,7.6015,7.6015,7.6015,7.6015,7.6015,7.6053,7.6245,7.6861,7.7445,7.7746,7.9015,7.9854,8.0046,8.0708,8.1093,8.1093,8.1093,8.1093,8.1093,8.1093,8.1093,8.1093,8.1093,8.1093,8.1093,8.1093,8.1093,6.6719,6.6758,6.6797,6.6875,6.6914,6.6914,6.6914,0.0,6.6914,6.6914,0.0,6.6914,6.6914,0.0,0.0,6.5859,6.7812,6.914,6.8437,7.0469,7.1992,7.1992,7.1992,7.1992,7.1992,7.1992,7.1992,7.1992,7.2812,7.3672,7.4531,7.707,7.8867,7.9687,8.1289,8.1367,7.9726,7.9609,7.8789,7.7187,7.7187,7.7187,7.7187,7.7187,7.7187,7.7187,7.7187,7.7187,7.7187,7.7187,7.7187,7.7187,7.7187,7.7187,7.7187,7.7187,7.7187,7.7187,7.7187,7.7187,7.7187,7.7187,7.7187,7.7187,7.7186,7.7185,7.7184,7.7141,7.71,7.7097,7.7129,7.7124,7.7081,7.7107,7.7097,7.6991,7.681,7.6665,7.6522,7.6287,7.612,7.6015,7.6015,7.6015,7.6015,7.6015,7.6015,7.6015,7.6015,7.6015,7.6284,7.7061,7.7253,7.79,7.94,7.97,8.0131,8.09,8.1054,8.1093,8.1093,8.1093,8.1093,8.1093,8.1093,8.1093,8.1093,8.1093,8.1093,8.1093,8.1093,8.1093,6.6914,6.6914,6.6914,6.6914,6.6914,6.6914,6.6914,6.6914,6.6914,6.6914,0.0,0.0,0.0,0.0,0.0,0.0,6.8086,6.9336,6.8984,7.0703,7.1992,7.1992,7.1992,7.1992,7.1992,7.1992,7.1992,7.1992,7.2344,7.293,7.3789,7.6328,7.8125,7.8984,8.1133,8.1445,7.9726,7.9687,7.8867,7.7187,7.7187,7.7187,7.7187,7.7187,7.7187,7.7187,7.7187,7.7187,7.7187,7.7187,7.7187,7.7187,7.7187,7.7187,7.7187,7.7187,7.7187,7.7187,7.7187,7.7187,7.7187,7.7187,7.7186,7.7186,7.7143,7.7141,7.7141,7.7099,7.7094,7.7089,7.7085,7.7117,7.711,7.7103,7.7101,7.7043,7.683,7.6695,7.6555,7.6333,7.6147,7.6015,7.6015,7.6015,7.6015,7.6015,7.6015,7.6169,7.6669,7.6746,7.7053,7.7907,7.8438,7.9054,7.9738,8.0246,8.0708,8.1093,8.1093,8.1093,8.1093,8.1093,8.1093,8.1093,8.1093,8.1093,8.1093,8.1093,8.1093,8.1093,8.1093,8.1093,6.6914,6.6914,6.6914,6.6914,6.6914,6.6914,6.6914,6.6914,6.6914,6.6914,6.6914,0.0,0.0,0.0,6.6914,6.6914,0.0,6.9453,6.9453,7.0937,7.1992,7.1992,7.1992,7.1992,7.1992,7.1992,7.1992,7.1992,7.1992,7.2383,7.3242,7.5781,7.7617,7.8476,8.0976,8.1562,8.0078,7.9805,7.8984,7.7539,7.7305,7.7187,7.7187,7.7187,7.7187,7.7187,7.7187,7.7187,7.7187,7.7187,7.7187,7.7187,7.7187,7.7187,7.7187,7.7187,7.7187,7.7187,7.7187,7.7187,7.7186,7.7184,7.7182,7.7143,7.7097,7.7095,7.7094,7.7092,7.7085,7.7117,7.7117,7.711,7.7101,7.7101,7.7101,7.7048,7.6907,7.6724,7.6573,7.6415,7.6199,7.6092,7.6322,7.6169,7.6092,7.6322,7.6361,7.6669,7.7522,7.7638,7.7946,7.8784,7.9438,7.99,8.0131,8.0746,8.1093,8.1093,8.1093,8.1093,8.1093,8.1093,8.1093,8.1093,8.1093,8.1093,8.1093,8.1093,8.1093,8.1093,8.1093,8.1093,6.6914,6.6914,6.6914,6.6914,6.6914,6.6914,6.6914,6.6914,6.6914,6.6914,6.6914,6.6914,6.6914,6.6914,0.0,0.0,6.832,0.0,0.0,7.0898,7.1992,7.1992,7.1992,7.1992,7.1992,7.1992,7.1992,7.1992,7.1992,7.2383,7.3242,7.5781,7.7617,7.8476,8.0976,8.1875,8.0976,8.0117,7.9297,7.8437,7.7617,7.7187,7.7187,7.7187,7.7187,7.7187,7.7187,7.7187,7.7187,7.7187,7.7187,7.7187,7.7187,7.7187,7.7185,7.7187,7.7187,7.7184,7.7184,7.7143,7.7099,7.7099,7.7099,7.7097,7.7087,7.7084,7.7082,7.7107,7.7103,7.7101,7.7101,7.7101,7.7101,7.7101,7.7101,7.71,7.7098,7.6832,7.6613,7.6605,7.6285,7.6284,7.7099,7.6553,7.6284,7.7138,7.7253,7.7561,7.8369,7.8446,7.8792,7.9669,7.9777,8.0131,8.0977,8.1093,8.1093,8.1093,8.1093,8.1093,8.1093,8.1093,8.1093,8.1093,8.1093,8.1093,8.1093,8.1093,8.1093,8.1093,8.1093,8.1093,6.6914,6.6914,6.6914,6.6914,6.7344,6.7773,6.7773,6.8203,6.8594,6.8555,6.8555,6.8555,6.8594,6.8594,0.0,0.0,0.0,7.0273,0.0,7.125,7.1992,7.1992,7.1992,7.1992,7.1992,7.1992,7.1992,7.1992,7.1992,7.2148,7.2422,7.5469,7.7344,7.7617,8.0664,8.1875,8.1015,8.0156,7.9297,7.8476,7.7617,7.7187,7.7187,7.7187,7.7187,7.7187,7.7187,7.7187,7.7187,7.7187,7.7187,7.7186,7.7186,7.7184,7.7141,7.7185,7.7184,7.7141,7.7141,7.7139,7.7097,7.7091,7.7089,7.7087,7.7114,7.7108,7.7108,7.7103,7.7101,7.7101,7.7101,7.7101,7.7101,7.7101,7.7101,7.7101,7.7101,7.7257,7.7377,7.7377,7.7522,7.7753,7.8023,7.7869,7.7753,7.8061,7.8099,7.8407,7.9246,7.9361,7.9708,8.0554,8.0669,8.0785,8.1054,8.1093,8.1093,8.1093,8.1093,8.1093,8.1093,8.1093,8.1093,8.1093,8.1093,8.1093,8.1093,8.1093,8.1093,8.1093,8.1093,8.1093,6.7812,6.7812,6.7812,6.7812,6.8242,6.8633,6.8633,6.9062,6.9453,6.9453,6.9453,6.9453,6.9453,6.9453,0.0,0.0,0.0,0.0,0.0,7.164,7.1992,7.1992,7.1992,7.1992,7.1992,7.1992,7.1992,7.1992,7.1992,7.1992,7.1992,7.5,7.6875,7.7187,8.0234,8.1562,8.1015,8.0156,7.9297,7.8476,7.7617,7.7187,7.7187,7.7187,7.7187,7.7187,7.7187,7.7187,7.7187,7.7187,7.7186,7.7143,7.7143,7.7139,7.7094,7.7141,7.7139,7.7093,7.709,7.7088,7.7087,7.7118,7.7116,7.7114,7.7104,7.7101,7.7179,7.7492,7.7335,7.7179,7.7492,7.7335,7.7101,7.7101,7.7335,7.757,7.757,7.7919,7.8271,7.8271,7.8372,7.86,7.8907,7.8977,7.8977,7.8977,7.8977,7.9285,8.0169,8.0246,8.0477,8.1054,8.1093,8.1093,8.1093,8.1093,8.1093,8.1093,8.1093,8.1093,8.1093,8.1093,8.1362,8.1977,8.14,8.14,8.1977,8.14,8.1093,8.1093,8.1093,8.1093]}]]